<?xml version="1.0" encoding="UTF-8" standalone="no" ?>
<gpx xmlns="http://www.topografix.com/GPX/1/1" xmlns:xsi="http://www.w3.org/2001/XMLSchema-instance" xsi:schemaLocation="http://www.topografix.com/GPX/1/1 http://www.topografix.com/GPX/1/1/gpx.xsd" version="1.1" creator="VisuGPX - https://www.visugpx.com">
  <metadata>
    <name>Puy de l'Usclave et Griounou</name>
    <desc><![CDATA[File with points/tracks from Locus Map/4.12.0]]></desc>
  </metadata>
  <trk>
    <name><![CDATA[2022-10-20 11:00]]></name>
    <trkseg>
      <trkpt lat="45.07799" lon="2.66912">
        <ele>996.76</ele>
        <time>2022-10-20T09:00:01.000Z</time>
      </trkpt>
      <trkpt lat="45.07805" lon="2.66899">
        <ele>999.32</ele>
        <time>2022-10-20T09:00:11.000Z</time>
      </trkpt>
      <trkpt lat="45.0781" lon="2.66913">
        <ele>980.4</ele>
        <time>2022-10-20T09:00:21.000Z</time>
      </trkpt>
      <trkpt lat="45.07806" lon="2.66917">
        <ele>972.86</ele>
        <time>2022-10-20T09:00:31.000Z</time>
      </trkpt>
      <trkpt lat="45.07798" lon="2.6691">
        <ele>969.19</ele>
        <time>2022-10-20T09:00:41.000Z</time>
      </trkpt>
      <trkpt lat="45.07793" lon="2.66918">
        <ele>966.97</ele>
        <time>2022-10-20T09:00:51.000Z</time>
      </trkpt>
      <trkpt lat="45.07798" lon="2.66927">
        <ele>967.67</ele>
        <time>2022-10-20T09:01:01.000Z</time>
      </trkpt>
      <trkpt lat="45.07787" lon="2.6692">
        <ele>970.84</ele>
        <time>2022-10-20T09:01:11.000Z</time>
      </trkpt>
      <trkpt lat="45.07782" lon="2.66915">
        <ele>971.92</ele>
        <time>2022-10-20T09:01:21.000Z</time>
      </trkpt>
      <trkpt lat="45.07782" lon="2.66914">
        <ele>971.91</ele>
        <time>2022-10-20T09:01:32.000Z</time>
      </trkpt>
      <trkpt lat="45.07781" lon="2.66911">
        <ele>971.92</ele>
        <time>2022-10-20T09:01:42.000Z</time>
      </trkpt>
      <trkpt lat="45.07783" lon="2.66911">
        <ele>971.12</ele>
        <time>2022-10-20T09:01:52.000Z</time>
      </trkpt>
      <trkpt lat="45.07785" lon="2.66911">
        <ele>969.92</ele>
        <time>2022-10-20T09:02:02.000Z</time>
      </trkpt>
      <trkpt lat="45.07789" lon="2.66913">
        <ele>969.92</ele>
        <time>2022-10-20T09:02:12.000Z</time>
      </trkpt>
      <trkpt lat="45.07792" lon="2.66915">
        <ele>969.92</ele>
        <time>2022-10-20T09:02:22.000Z</time>
      </trkpt>
      <trkpt lat="45.07793" lon="2.66921">
        <ele>972.85</ele>
        <time>2022-10-20T09:02:32.000Z</time>
      </trkpt>
      <trkpt lat="45.07795" lon="2.66918">
        <ele>974.93</ele>
        <time>2022-10-20T09:02:42.000Z</time>
      </trkpt>
      <trkpt lat="45.07793" lon="2.66917">
        <ele>975.92</ele>
        <time>2022-10-20T09:02:52.000Z</time>
      </trkpt>
      <trkpt lat="45.07791" lon="2.66916">
        <ele>973.93</ele>
        <time>2022-10-20T09:03:02.000Z</time>
      </trkpt>
      <trkpt lat="45.07793" lon="2.66916">
        <ele>976.67</ele>
        <time>2022-10-20T09:03:12.000Z</time>
      </trkpt>
      <trkpt lat="45.07794" lon="2.66922">
        <ele>974.97</ele>
        <time>2022-10-20T09:03:22.000Z</time>
      </trkpt>
      <trkpt lat="45.07792" lon="2.6692">
        <ele>975.92</ele>
        <time>2022-10-20T09:03:32.000Z</time>
      </trkpt>
      <trkpt lat="45.07784" lon="2.66922">
        <ele>974.93</ele>
        <time>2022-10-20T09:03:42.000Z</time>
      </trkpt>
      <trkpt lat="45.07785" lon="2.6692">
        <ele>974.92</ele>
        <time>2022-10-20T09:03:52.000Z</time>
      </trkpt>
      <trkpt lat="45.07787" lon="2.66919">
        <ele>975.98</ele>
        <time>2022-10-20T09:04:02.000Z</time>
      </trkpt>
      <trkpt lat="45.07784" lon="2.66923">
        <ele>974.92</ele>
        <time>2022-10-20T09:04:12.000Z</time>
      </trkpt>
      <trkpt lat="45.07789" lon="2.66925">
        <ele>974.9</ele>
        <time>2022-10-20T09:04:22.000Z</time>
      </trkpt>
      <trkpt lat="45.07794" lon="2.66929">
        <ele>982.31</ele>
        <time>2022-10-20T09:04:32.000Z</time>
      </trkpt>
      <trkpt lat="45.07793" lon="2.66933">
        <ele>982.32</ele>
        <time>2022-10-20T09:04:42.000Z</time>
      </trkpt>
      <trkpt lat="45.07781" lon="2.66927">
        <ele>982.32</ele>
        <time>2022-10-20T09:04:52.000Z</time>
      </trkpt>
      <trkpt lat="45.07772" lon="2.66923">
        <ele>982.32</ele>
        <time>2022-10-20T09:05:01.001Z</time>
      </trkpt>
      <trkpt lat="45.07774" lon="2.66937">
        <ele>982.72</ele>
        <time>2022-10-20T09:05:11.000Z</time>
      </trkpt>
      <trkpt lat="45.0777" lon="2.66951">
        <ele>982.32</ele>
        <time>2022-10-20T09:05:20.530Z</time>
      </trkpt>
      <trkpt lat="45.07769" lon="2.66961">
        <ele>982.32</ele>
        <time>2022-10-20T09:05:29.673Z</time>
      </trkpt>
      <trkpt lat="45.07774" lon="2.66972">
        <ele>982.32</ele>
        <time>2022-10-20T09:05:39.000Z</time>
      </trkpt>
      <trkpt lat="45.07773" lon="2.66983">
        <ele>982.32</ele>
        <time>2022-10-20T09:05:49.000Z</time>
      </trkpt>
      <trkpt lat="45.0777" lon="2.66998">
        <ele>982.32</ele>
        <time>2022-10-20T09:05:58.274Z</time>
      </trkpt>
      <trkpt lat="45.07767" lon="2.67013">
        <ele>982.32</ele>
        <time>2022-10-20T09:06:07.632Z</time>
      </trkpt>
      <trkpt lat="45.07761" lon="2.67022">
        <ele>982.32</ele>
        <time>2022-10-20T09:06:17.132Z</time>
      </trkpt>
      <trkpt lat="45.07753" lon="2.67025">
        <ele>982.32</ele>
        <time>2022-10-20T09:06:26.351Z</time>
      </trkpt>
      <trkpt lat="45.07743" lon="2.67024">
        <ele>982.32</ele>
        <time>2022-10-20T09:06:36.000Z</time>
      </trkpt>
      <trkpt lat="45.07734" lon="2.67015">
        <ele>982.32</ele>
        <time>2022-10-20T09:06:45.972Z</time>
      </trkpt>
      <trkpt lat="45.07724" lon="2.67011">
        <ele>982.32</ele>
        <time>2022-10-20T09:06:55.031Z</time>
      </trkpt>
      <trkpt lat="45.07717" lon="2.67007">
        <ele>982.32</ele>
        <time>2022-10-20T09:07:04.092Z</time>
      </trkpt>
      <trkpt lat="45.07708" lon="2.67001">
        <ele>982.32</ele>
        <time>2022-10-20T09:07:14.000Z</time>
      </trkpt>
      <trkpt lat="45.07697" lon="2.66995">
        <ele>982.85</ele>
        <time>2022-10-20T09:07:23.132Z</time>
      </trkpt>
      <trkpt lat="45.07688" lon="2.66991">
        <ele>982.92</ele>
        <time>2022-10-20T09:07:32.540Z</time>
      </trkpt>
      <trkpt lat="45.07677" lon="2.66988">
        <ele>982.32</ele>
        <time>2022-10-20T09:07:42.042Z</time>
      </trkpt>
      <trkpt lat="45.07668" lon="2.66983">
        <ele>982.32</ele>
        <time>2022-10-20T09:07:52.000Z</time>
      </trkpt>
      <trkpt lat="45.0766" lon="2.66978">
        <ele>982.32</ele>
        <time>2022-10-20T09:08:02.000Z</time>
      </trkpt>
      <trkpt lat="45.07651" lon="2.66973">
        <ele>982.32</ele>
        <time>2022-10-20T09:08:11.812Z</time>
      </trkpt>
      <trkpt lat="45.07647" lon="2.66971">
        <ele>982.32</ele>
        <time>2022-10-20T09:08:21.000Z</time>
      </trkpt>
      <trkpt lat="45.0764" lon="2.66964">
        <ele>982.32</ele>
        <time>2022-10-20T09:08:31.000Z</time>
      </trkpt>
      <trkpt lat="45.07635" lon="2.6696">
        <ele>982.32</ele>
        <time>2022-10-20T09:08:41.000Z</time>
      </trkpt>
      <trkpt lat="45.0763" lon="2.66953">
        <ele>982.32</ele>
        <time>2022-10-20T09:08:51.000Z</time>
      </trkpt>
      <trkpt lat="45.07626" lon="2.66951">
        <ele>982.32</ele>
        <time>2022-10-20T09:09:01.000Z</time>
      </trkpt>
      <trkpt lat="45.07621" lon="2.66946">
        <ele>982.32</ele>
        <time>2022-10-20T09:09:10.151Z</time>
      </trkpt>
      <trkpt lat="45.07616" lon="2.66944">
        <ele>982.32</ele>
        <time>2022-10-20T09:09:21.000Z</time>
      </trkpt>
      <trkpt lat="45.07612" lon="2.66942">
        <ele>982.32</ele>
        <time>2022-10-20T09:09:31.000Z</time>
      </trkpt>
      <trkpt lat="45.07606" lon="2.66939">
        <ele>982.32</ele>
        <time>2022-10-20T09:09:41.000Z</time>
      </trkpt>
      <trkpt lat="45.07601" lon="2.66934">
        <ele>982.32</ele>
        <time>2022-10-20T09:09:50.911Z</time>
      </trkpt>
      <trkpt lat="45.07596" lon="2.66932">
        <ele>982.32</ele>
        <time>2022-10-20T09:10:01.000Z</time>
      </trkpt>
      <trkpt lat="45.07591" lon="2.66934">
        <ele>982.32</ele>
        <time>2022-10-20T09:10:11.000Z</time>
      </trkpt>
      <trkpt lat="45.07585" lon="2.66935">
        <ele>982.32</ele>
        <time>2022-10-20T09:10:20.870Z</time>
      </trkpt>
      <trkpt lat="45.07575" lon="2.66934">
        <ele>1002.91</ele>
        <time>2022-10-20T09:10:31.000Z</time>
      </trkpt>
      <trkpt lat="45.07567" lon="2.66927">
        <ele>1006.65</ele>
        <time>2022-10-20T09:10:40.953Z</time>
      </trkpt>
      <trkpt lat="45.07562" lon="2.66919">
        <ele>1007.92</ele>
        <time>2022-10-20T09:10:50.000Z</time>
      </trkpt>
      <trkpt lat="45.07553" lon="2.66912">
        <ele>1006.92</ele>
        <time>2022-10-20T09:10:59.432Z</time>
      </trkpt>
      <trkpt lat="45.07545" lon="2.66907">
        <ele>1003.92</ele>
        <time>2022-10-20T09:11:08.451Z</time>
      </trkpt>
      <trkpt lat="45.0754" lon="2.66901">
        <ele>1005.86</ele>
        <time>2022-10-20T09:11:18.000Z</time>
      </trkpt>
      <trkpt lat="45.07532" lon="2.66902">
        <ele>1007.92</ele>
        <time>2022-10-20T09:11:27.432Z</time>
      </trkpt>
      <trkpt lat="45.07524" lon="2.66906">
        <ele>1010.86</ele>
        <time>2022-10-20T09:11:37.000Z</time>
      </trkpt>
      <trkpt lat="45.07514" lon="2.66909">
        <ele>1011.92</ele>
        <time>2022-10-20T09:11:47.000Z</time>
      </trkpt>
      <trkpt lat="45.07504" lon="2.66913">
        <ele>1013.93</ele>
        <time>2022-10-20T09:11:56.632Z</time>
      </trkpt>
      <trkpt lat="45.07495" lon="2.66914">
        <ele>1013.92</ele>
        <time>2022-10-20T09:12:05.941Z</time>
      </trkpt>
      <trkpt lat="45.07486" lon="2.66915">
        <ele>1015.67</ele>
        <time>2022-10-20T09:12:16.000Z</time>
      </trkpt>
      <trkpt lat="45.07477" lon="2.6692">
        <ele>1015.98</ele>
        <time>2022-10-20T09:12:26.000Z</time>
      </trkpt>
      <trkpt lat="45.07466" lon="2.66927">
        <ele>1014.67</ele>
        <time>2022-10-20T09:12:37.000Z</time>
      </trkpt>
      <trkpt lat="45.07456" lon="2.66937">
        <ele>1015.92</ele>
        <time>2022-10-20T09:12:46.571Z</time>
      </trkpt>
      <trkpt lat="45.0745" lon="2.66944">
        <ele>1016.92</ele>
        <time>2022-10-20T09:12:56.000Z</time>
      </trkpt>
      <trkpt lat="45.07448" lon="2.66947">
        <ele>1016.92</ele>
        <time>2022-10-20T09:13:05.297Z</time>
      </trkpt>
      <trkpt lat="45.07443" lon="2.66951">
        <ele>1018.86</ele>
        <time>2022-10-20T09:13:15.000Z</time>
      </trkpt>
      <trkpt lat="45.07434" lon="2.66959">
        <ele>1018.73</ele>
        <time>2022-10-20T09:13:25.000Z</time>
      </trkpt>
      <trkpt lat="45.07426" lon="2.66966">
        <ele>1019.86</ele>
        <time>2022-10-20T09:13:34.093Z</time>
      </trkpt>
      <trkpt lat="45.07418" lon="2.66974">
        <ele>1020.92</ele>
        <time>2022-10-20T09:13:43.352Z</time>
      </trkpt>
      <trkpt lat="45.07412" lon="2.66981">
        <ele>1021.86</ele>
        <time>2022-10-20T09:13:53.151Z</time>
      </trkpt>
      <trkpt lat="45.07405" lon="2.66982">
        <ele>1024.86</ele>
        <time>2022-10-20T09:14:03.000Z</time>
      </trkpt>
      <trkpt lat="45.07402" lon="2.6698">
        <ele>1024.92</ele>
        <time>2022-10-20T09:14:13.000Z</time>
      </trkpt>
      <trkpt lat="45.07401" lon="2.66979">
        <ele>1022.92</ele>
        <time>2022-10-20T09:14:28.000Z</time>
      </trkpt>
      <trkpt lat="45.07402" lon="2.66976">
        <ele>1022.92</ele>
        <time>2022-10-20T09:14:38.000Z</time>
      </trkpt>
      <trkpt lat="45.07398" lon="2.6698">
        <ele>1020.17</ele>
        <time>2022-10-20T09:14:48.000Z</time>
      </trkpt>
      <trkpt lat="45.07391" lon="2.66979">
        <ele>1019.98</ele>
        <time>2022-10-20T09:14:58.000Z</time>
      </trkpt>
      <trkpt lat="45.07387" lon="2.66976">
        <ele>1020.86</ele>
        <time>2022-10-20T09:15:07.713Z</time>
      </trkpt>
      <trkpt lat="45.07382" lon="2.66973">
        <ele>1021.86</ele>
        <time>2022-10-20T09:15:17.451Z</time>
      </trkpt>
      <trkpt lat="45.07377" lon="2.66969">
        <ele>1025.9</ele>
        <time>2022-10-20T09:15:26.690Z</time>
      </trkpt>
      <trkpt lat="45.0737" lon="2.6696">
        <ele>1026.98</ele>
        <time>2022-10-20T09:15:36.098Z</time>
      </trkpt>
      <trkpt lat="45.07363" lon="2.6695">
        <ele>1028.92</ele>
        <time>2022-10-20T09:15:46.000Z</time>
      </trkpt>
      <trkpt lat="45.07357" lon="2.66941">
        <ele>1029.86</ele>
        <time>2022-10-20T09:15:56.000Z</time>
      </trkpt>
      <trkpt lat="45.07352" lon="2.66934">
        <ele>1029.11</ele>
        <time>2022-10-20T09:16:06.000Z</time>
      </trkpt>
      <trkpt lat="45.07349" lon="2.66928">
        <ele>1028.92</ele>
        <time>2022-10-20T09:16:16.000Z</time>
      </trkpt>
      <trkpt lat="45.07343" lon="2.66923">
        <ele>1031.67</ele>
        <time>2022-10-20T09:16:26.000Z</time>
      </trkpt>
      <trkpt lat="45.07335" lon="2.66917">
        <ele>1033.92</ele>
        <time>2022-10-20T09:16:35.543Z</time>
      </trkpt>
      <trkpt lat="45.07328" lon="2.66918">
        <ele>1035.92</ele>
        <time>2022-10-20T09:16:45.000Z</time>
      </trkpt>
      <trkpt lat="45.07326" lon="2.66918">
        <ele>1033.98</ele>
        <time>2022-10-20T09:16:54.001Z</time>
      </trkpt>
      <trkpt lat="45.0732" lon="2.66936">
        <ele>1034.85</ele>
        <time>2022-10-20T09:17:04.052Z</time>
      </trkpt>
      <trkpt lat="45.07316" lon="2.66948">
        <ele>1037.67</ele>
        <time>2022-10-20T09:17:13.552Z</time>
      </trkpt>
      <trkpt lat="45.07313" lon="2.6696">
        <ele>1036.97</ele>
        <time>2022-10-20T09:17:22.892Z</time>
      </trkpt>
      <trkpt lat="45.0731" lon="2.66973">
        <ele>1037.86</ele>
        <time>2022-10-20T09:17:33.000Z</time>
      </trkpt>
      <trkpt lat="45.07305" lon="2.66988">
        <ele>1038.11</ele>
        <time>2022-10-20T09:17:42.993Z</time>
      </trkpt>
      <trkpt lat="45.07301" lon="2.67002">
        <ele>1039.9</ele>
        <time>2022-10-20T09:17:52.342Z</time>
      </trkpt>
      <trkpt lat="45.07299" lon="2.67014">
        <ele>1039.86</ele>
        <time>2022-10-20T09:18:02.032Z</time>
      </trkpt>
      <trkpt lat="45.07295" lon="2.67023">
        <ele>1042.9</ele>
        <time>2022-10-20T09:18:11.674Z</time>
      </trkpt>
      <trkpt lat="45.07292" lon="2.67032">
        <ele>1042.93</ele>
        <time>2022-10-20T09:18:21.112Z</time>
      </trkpt>
      <trkpt lat="45.07289" lon="2.67044">
        <ele>1042.9</ele>
        <time>2022-10-20T09:18:30.713Z</time>
      </trkpt>
      <trkpt lat="45.07287" lon="2.67054">
        <ele>1043.92</ele>
        <time>2022-10-20T09:18:40.000Z</time>
      </trkpt>
      <trkpt lat="45.07283" lon="2.67067">
        <ele>1045.92</ele>
        <time>2022-10-20T09:18:50.000Z</time>
      </trkpt>
      <trkpt lat="45.07281" lon="2.67081">
        <ele>1046.67</ele>
        <time>2022-10-20T09:19:00.000Z</time>
      </trkpt>
      <trkpt lat="45.0728" lon="2.67086">
        <ele>1048.92</ele>
        <time>2022-10-20T09:19:09.450Z</time>
      </trkpt>
      <trkpt lat="45.07278" lon="2.67093">
        <ele>1051.85</ele>
        <time>2022-10-20T09:19:19.000Z</time>
      </trkpt>
      <trkpt lat="45.07279" lon="2.67105">
        <ele>1049.92</ele>
        <time>2022-10-20T09:19:29.000Z</time>
      </trkpt>
      <trkpt lat="45.07278" lon="2.67116">
        <ele>1049.92</ele>
        <time>2022-10-20T09:19:39.411Z</time>
      </trkpt>
      <trkpt lat="45.07275" lon="2.67122">
        <ele>1051.85</ele>
        <time>2022-10-20T09:19:49.000Z</time>
      </trkpt>
      <trkpt lat="45.07269" lon="2.67124">
        <ele>1055.91</ele>
        <time>2022-10-20T09:20:01.000Z</time>
      </trkpt>
      <trkpt lat="45.07268" lon="2.67123">
        <ele>1052.93</ele>
        <time>2022-10-20T09:20:13.630Z</time>
      </trkpt>
      <trkpt lat="45.07269" lon="2.67123">
        <ele>1055.92</ele>
        <time>2022-10-20T09:20:22.897Z</time>
      </trkpt>
      <trkpt lat="45.0727" lon="2.67123">
        <ele>1056.92</ele>
        <time>2022-10-20T09:20:32.000Z</time>
      </trkpt>
      <trkpt lat="45.0727" lon="2.67125">
        <ele>1060.91</ele>
        <time>2022-10-20T09:21:31.000Z</time>
      </trkpt>
      <trkpt lat="45.07269" lon="2.67123">
        <ele>1058.92</ele>
        <time>2022-10-20T09:21:45.462Z</time>
      </trkpt>
      <trkpt lat="45.0726" lon="2.67114">
        <ele>1060.92</ele>
        <time>2022-10-20T09:21:55.166Z</time>
      </trkpt>
      <trkpt lat="45.07257" lon="2.67115">
        <ele>1058.92</ele>
        <time>2022-10-20T09:22:06.000Z</time>
      </trkpt>
      <trkpt lat="45.07252" lon="2.67114">
        <ele>1058.92</ele>
        <time>2022-10-20T09:22:16.000Z</time>
      </trkpt>
      <trkpt lat="45.07244" lon="2.6711">
        <ele>1058.85</ele>
        <time>2022-10-20T09:22:25.562Z</time>
      </trkpt>
      <trkpt lat="45.07237" lon="2.6711">
        <ele>1059.92</ele>
        <time>2022-10-20T09:22:36.000Z</time>
      </trkpt>
      <trkpt lat="45.07229" lon="2.67112">
        <ele>1062.66</ele>
        <time>2022-10-20T09:22:46.000Z</time>
      </trkpt>
      <trkpt lat="45.07222" lon="2.67115">
        <ele>1064.67</ele>
        <time>2022-10-20T09:22:56.000Z</time>
      </trkpt>
      <trkpt lat="45.07216" lon="2.67116">
        <ele>1065.92</ele>
        <time>2022-10-20T09:23:05.841Z</time>
      </trkpt>
      <trkpt lat="45.07213" lon="2.67118">
        <ele>1064.92</ele>
        <time>2022-10-20T09:23:15.000Z</time>
      </trkpt>
      <trkpt lat="45.07212" lon="2.67122">
        <ele>1064.92</ele>
        <time>2022-10-20T09:23:25.000Z</time>
      </trkpt>
      <trkpt lat="45.07212" lon="2.6713">
        <ele>1065.92</ele>
        <time>2022-10-20T09:23:35.000Z</time>
      </trkpt>
      <trkpt lat="45.07217" lon="2.67135">
        <ele>1069.85</ele>
        <time>2022-10-20T09:23:45.000Z</time>
      </trkpt>
      <trkpt lat="45.0722" lon="2.67141">
        <ele>1072.79</ele>
        <time>2022-10-20T09:23:55.000Z</time>
      </trkpt>
      <trkpt lat="45.07225" lon="2.67152">
        <ele>1073.92</ele>
        <time>2022-10-20T09:24:05.000Z</time>
      </trkpt>
      <trkpt lat="45.07223" lon="2.67163">
        <ele>1075.67</ele>
        <time>2022-10-20T09:24:14.574Z</time>
      </trkpt>
      <trkpt lat="45.07222" lon="2.67172">
        <ele>1078.9</ele>
        <time>2022-10-20T09:24:24.000Z</time>
      </trkpt>
      <trkpt lat="45.07222" lon="2.67179">
        <ele>1078.92</ele>
        <time>2022-10-20T09:24:34.000Z</time>
      </trkpt>
      <trkpt lat="45.07222" lon="2.67189">
        <ele>1079.87</ele>
        <time>2022-10-20T09:24:44.000Z</time>
      </trkpt>
      <trkpt lat="45.07221" lon="2.67199">
        <ele>1079.67</ele>
        <time>2022-10-20T09:24:54.000Z</time>
      </trkpt>
      <trkpt lat="45.07222" lon="2.67211">
        <ele>1081.92</ele>
        <time>2022-10-20T09:25:03.871Z</time>
      </trkpt>
      <trkpt lat="45.07222" lon="2.67219">
        <ele>1083.85</ele>
        <time>2022-10-20T09:25:13.573Z</time>
      </trkpt>
      <trkpt lat="45.07223" lon="2.67224">
        <ele>1083.73</ele>
        <time>2022-10-20T09:25:24.000Z</time>
      </trkpt>
      <trkpt lat="45.07223" lon="2.67233">
        <ele>1086.42</ele>
        <time>2022-10-20T09:25:33.602Z</time>
      </trkpt>
      <trkpt lat="45.07222" lon="2.67241">
        <ele>1088.66</ele>
        <time>2022-10-20T09:25:43.000Z</time>
      </trkpt>
      <trkpt lat="45.07219" lon="2.67249">
        <ele>1089.9</ele>
        <time>2022-10-20T09:25:53.000Z</time>
      </trkpt>
      <trkpt lat="45.07217" lon="2.67257">
        <ele>1089.91</ele>
        <time>2022-10-20T09:26:02.792Z</time>
      </trkpt>
      <trkpt lat="45.07216" lon="2.67267">
        <ele>1091.41</ele>
        <time>2022-10-20T09:26:12.000Z</time>
      </trkpt>
      <trkpt lat="45.07213" lon="2.6728">
        <ele>1092.91</ele>
        <time>2022-10-20T09:26:21.832Z</time>
      </trkpt>
      <trkpt lat="45.07211" lon="2.6729">
        <ele>1095.91</ele>
        <time>2022-10-20T09:26:30.893Z</time>
      </trkpt>
      <trkpt lat="45.07208" lon="2.67297">
        <ele>1092.98</ele>
        <time>2022-10-20T09:26:41.000Z</time>
      </trkpt>
      <trkpt lat="45.07201" lon="2.67307">
        <ele>1092.73</ele>
        <time>2022-10-20T09:26:50.753Z</time>
      </trkpt>
      <trkpt lat="45.072" lon="2.67315">
        <ele>1096.41</ele>
        <time>2022-10-20T09:27:00.000Z</time>
      </trkpt>
      <trkpt lat="45.07196" lon="2.67326">
        <ele>1098.91</ele>
        <time>2022-10-20T09:27:09.433Z</time>
      </trkpt>
      <trkpt lat="45.07192" lon="2.67334">
        <ele>1098.91</ele>
        <time>2022-10-20T09:27:19.000Z</time>
      </trkpt>
      <trkpt lat="45.0719" lon="2.67351">
        <ele>1099.68</ele>
        <time>2022-10-20T09:27:29.000Z</time>
      </trkpt>
      <trkpt lat="45.07188" lon="2.67362">
        <ele>1101.85</ele>
        <time>2022-10-20T09:27:39.000Z</time>
      </trkpt>
      <trkpt lat="45.07187" lon="2.67375">
        <ele>1103.85</ele>
        <time>2022-10-20T09:27:48.032Z</time>
      </trkpt>
      <trkpt lat="45.07181" lon="2.67388">
        <ele>1107.85</ele>
        <time>2022-10-20T09:27:57.074Z</time>
      </trkpt>
      <trkpt lat="45.07175" lon="2.674">
        <ele>1107.91</ele>
        <time>2022-10-20T09:28:07.000Z</time>
      </trkpt>
      <trkpt lat="45.07173" lon="2.67409">
        <ele>1108.66</ele>
        <time>2022-10-20T09:28:17.000Z</time>
      </trkpt>
      <trkpt lat="45.07169" lon="2.67421">
        <ele>1107.93</ele>
        <time>2022-10-20T09:28:26.040Z</time>
      </trkpt>
      <trkpt lat="45.07165" lon="2.67437">
        <ele>1105.92</ele>
        <time>2022-10-20T09:28:35.670Z</time>
      </trkpt>
      <trkpt lat="45.07165" lon="2.67444">
        <ele>1108.66</ele>
        <time>2022-10-20T09:28:45.000Z</time>
      </trkpt>
      <trkpt lat="45.07164" lon="2.67452">
        <ele>1106.85</ele>
        <time>2022-10-20T09:28:54.671Z</time>
      </trkpt>
      <trkpt lat="45.07162" lon="2.67462">
        <ele>1105.1</ele>
        <time>2022-10-20T09:29:04.000Z</time>
      </trkpt>
      <trkpt lat="45.0716" lon="2.67473">
        <ele>1107.91</ele>
        <time>2022-10-20T09:29:14.000Z</time>
      </trkpt>
      <trkpt lat="45.07158" lon="2.67482">
        <ele>1107.66</ele>
        <time>2022-10-20T09:29:24.000Z</time>
      </trkpt>
      <trkpt lat="45.07155" lon="2.67493">
        <ele>1106.66</ele>
        <time>2022-10-20T09:29:34.000Z</time>
      </trkpt>
      <trkpt lat="45.07153" lon="2.67502">
        <ele>1108.91</ele>
        <time>2022-10-20T09:29:43.833Z</time>
      </trkpt>
      <trkpt lat="45.07151" lon="2.67506">
        <ele>1108.97</ele>
        <time>2022-10-20T09:29:53.000Z</time>
      </trkpt>
      <trkpt lat="45.07145" lon="2.67517">
        <ele>1108.91</ele>
        <time>2022-10-20T09:30:02.921Z</time>
      </trkpt>
      <trkpt lat="45.07141" lon="2.67524">
        <ele>1109.85</ele>
        <time>2022-10-20T09:30:12.000Z</time>
      </trkpt>
      <trkpt lat="45.07136" lon="2.6753">
        <ele>1108.91</ele>
        <time>2022-10-20T09:30:21.752Z</time>
      </trkpt>
      <trkpt lat="45.07131" lon="2.67538">
        <ele>1111.89</ele>
        <time>2022-10-20T09:30:32.000Z</time>
      </trkpt>
      <trkpt lat="45.07129" lon="2.6755">
        <ele>1111.91</ele>
        <time>2022-10-20T09:30:42.000Z</time>
      </trkpt>
      <trkpt lat="45.07124" lon="2.67558">
        <ele>1114.1</ele>
        <time>2022-10-20T09:30:52.000Z</time>
      </trkpt>
      <trkpt lat="45.07119" lon="2.67571">
        <ele>1114.16</ele>
        <time>2022-10-20T09:31:01.623Z</time>
      </trkpt>
      <trkpt lat="45.07117" lon="2.67585">
        <ele>1114.86</ele>
        <time>2022-10-20T09:31:12.000Z</time>
      </trkpt>
      <trkpt lat="45.07114" lon="2.67595">
        <ele>1115.91</ele>
        <time>2022-10-20T09:31:21.901Z</time>
      </trkpt>
      <trkpt lat="45.07111" lon="2.67601">
        <ele>1115.92</ele>
        <time>2022-10-20T09:31:31.000Z</time>
      </trkpt>
      <trkpt lat="45.07107" lon="2.67614">
        <ele>1115.92</ele>
        <time>2022-10-20T09:31:40.791Z</time>
      </trkpt>
      <trkpt lat="45.07101" lon="2.67622">
        <ele>1117.91</ele>
        <time>2022-10-20T09:31:50.000Z</time>
      </trkpt>
      <trkpt lat="45.07092" lon="2.6763">
        <ele>1118.91</ele>
        <time>2022-10-20T09:31:59.712Z</time>
      </trkpt>
      <trkpt lat="45.07087" lon="2.67635">
        <ele>1119.15</ele>
        <time>2022-10-20T09:32:08.812Z</time>
      </trkpt>
      <trkpt lat="45.07081" lon="2.6764">
        <ele>1121.66</ele>
        <time>2022-10-20T09:32:19.000Z</time>
      </trkpt>
      <trkpt lat="45.07072" lon="2.67645">
        <ele>1120.16</ele>
        <time>2022-10-20T09:32:28.872Z</time>
      </trkpt>
      <trkpt lat="45.07065" lon="2.67649">
        <ele>1119.91</ele>
        <time>2022-10-20T09:32:37.953Z</time>
      </trkpt>
      <trkpt lat="45.07059" lon="2.67649">
        <ele>1120.72</ele>
        <time>2022-10-20T09:32:48.000Z</time>
      </trkpt>
      <trkpt lat="45.07052" lon="2.6765">
        <ele>1120.91</ele>
        <time>2022-10-20T09:32:59.000Z</time>
      </trkpt>
      <trkpt lat="45.07049" lon="2.67653">
        <ele>1126.65</ele>
        <time>2022-10-20T09:33:09.000Z</time>
      </trkpt>
      <trkpt lat="45.07048" lon="2.67658">
        <ele>1127.66</ele>
        <time>2022-10-20T09:33:19.000Z</time>
      </trkpt>
      <trkpt lat="45.07048" lon="2.67667">
        <ele>1128.91</ele>
        <time>2022-10-20T09:33:30.000Z</time>
      </trkpt>
      <trkpt lat="45.07047" lon="2.6768">
        <ele>1131.89</ele>
        <time>2022-10-20T09:33:39.472Z</time>
      </trkpt>
      <trkpt lat="45.07043" lon="2.67688">
        <ele>1132.16</ele>
        <time>2022-10-20T09:33:49.000Z</time>
      </trkpt>
      <trkpt lat="45.07038" lon="2.67693">
        <ele>1135.9</ele>
        <time>2022-10-20T09:33:58.894Z</time>
      </trkpt>
      <trkpt lat="45.07032" lon="2.67697">
        <ele>1137.89</ele>
        <time>2022-10-20T09:34:07.933Z</time>
      </trkpt>
      <trkpt lat="45.07027" lon="2.67699">
        <ele>1140.66</ele>
        <time>2022-10-20T09:34:17.670Z</time>
      </trkpt>
      <trkpt lat="45.07023" lon="2.67707">
        <ele>1139.91</ele>
        <time>2022-10-20T09:34:28.000Z</time>
      </trkpt>
      <trkpt lat="45.07024" lon="2.67711">
        <ele>1138.91</ele>
        <time>2022-10-20T09:34:38.000Z</time>
      </trkpt>
      <trkpt lat="45.07025" lon="2.67728">
        <ele>1136.91</ele>
        <time>2022-10-20T09:34:48.000Z</time>
      </trkpt>
      <trkpt lat="45.07025" lon="2.67738">
        <ele>1139.89</ele>
        <time>2022-10-20T09:34:58.000Z</time>
      </trkpt>
      <trkpt lat="45.07023" lon="2.67748">
        <ele>1138.34</ele>
        <time>2022-10-20T09:35:08.353Z</time>
      </trkpt>
      <trkpt lat="45.07021" lon="2.67755">
        <ele>1138.9</ele>
        <time>2022-10-20T09:35:17.852Z</time>
      </trkpt>
      <trkpt lat="45.0702" lon="2.67764">
        <ele>1141.03</ele>
        <time>2022-10-20T09:35:28.000Z</time>
      </trkpt>
      <trkpt lat="45.07019" lon="2.67772">
        <ele>1142.9</ele>
        <time>2022-10-20T09:35:37.731Z</time>
      </trkpt>
      <trkpt lat="45.07017" lon="2.67781">
        <ele>1145.91</ele>
        <time>2022-10-20T09:35:48.000Z</time>
      </trkpt>
      <trkpt lat="45.07015" lon="2.67795">
        <ele>1148.16</ele>
        <time>2022-10-20T09:35:57.974Z</time>
      </trkpt>
      <trkpt lat="45.07012" lon="2.67802">
        <ele>1147.89</ele>
        <time>2022-10-20T09:36:07.000Z</time>
      </trkpt>
      <trkpt lat="45.07008" lon="2.67808">
        <ele>1147.65</ele>
        <time>2022-10-20T09:36:17.000Z</time>
      </trkpt>
      <trkpt lat="45.07003" lon="2.67813">
        <ele>1146.9</ele>
        <time>2022-10-20T09:36:26.971Z</time>
      </trkpt>
      <trkpt lat="45.07002" lon="2.67816">
        <ele>1149.89</ele>
        <time>2022-10-20T09:36:36.000Z</time>
      </trkpt>
      <trkpt lat="45.07002" lon="2.67824">
        <ele>1152.91</ele>
        <time>2022-10-20T09:36:45.863Z</time>
      </trkpt>
      <trkpt lat="45.07001" lon="2.6783">
        <ele>1152.91</ele>
        <time>2022-10-20T09:36:55.622Z</time>
      </trkpt>
      <trkpt lat="45.06998" lon="2.67838">
        <ele>1154.64</ele>
        <time>2022-10-20T09:37:04.690Z</time>
      </trkpt>
      <trkpt lat="45.06997" lon="2.67848">
        <ele>1156.9</ele>
        <time>2022-10-20T09:37:13.692Z</time>
      </trkpt>
      <trkpt lat="45.06997" lon="2.67856">
        <ele>1160.65</ele>
        <time>2022-10-20T09:37:22.694Z</time>
      </trkpt>
      <trkpt lat="45.06995" lon="2.67865">
        <ele>1158.91</ele>
        <time>2022-10-20T09:37:33.000Z</time>
      </trkpt>
      <trkpt lat="45.06996" lon="2.67877">
        <ele>1157.9</ele>
        <time>2022-10-20T09:37:43.000Z</time>
      </trkpt>
      <trkpt lat="45.06995" lon="2.67884">
        <ele>1156.9</ele>
        <time>2022-10-20T09:37:52.507Z</time>
      </trkpt>
      <trkpt lat="45.06995" lon="2.67892">
        <ele>1157.9</ele>
        <time>2022-10-20T09:38:01.732Z</time>
      </trkpt>
      <trkpt lat="45.06995" lon="2.67897">
        <ele>1160.9</ele>
        <time>2022-10-20T09:38:11.000Z</time>
      </trkpt>
      <trkpt lat="45.06994" lon="2.67901">
        <ele>1162.9</ele>
        <time>2022-10-20T09:38:20.652Z</time>
      </trkpt>
      <trkpt lat="45.0699" lon="2.67909">
        <ele>1163.89</ele>
        <time>2022-10-20T09:38:30.000Z</time>
      </trkpt>
      <trkpt lat="45.06987" lon="2.67918">
        <ele>1163.89</ele>
        <time>2022-10-20T09:38:39.600Z</time>
      </trkpt>
      <trkpt lat="45.06981" lon="2.67925">
        <ele>1163.97</ele>
        <time>2022-10-20T09:38:50.014Z</time>
      </trkpt>
      <trkpt lat="45.06976" lon="2.67931">
        <ele>1162.92</ele>
        <time>2022-10-20T09:38:59.631Z</time>
      </trkpt>
      <trkpt lat="45.0697" lon="2.67937">
        <ele>1162.9</ele>
        <time>2022-10-20T09:39:09.000Z</time>
      </trkpt>
      <trkpt lat="45.06963" lon="2.6794">
        <ele>1164.9</ele>
        <time>2022-10-20T09:39:19.000Z</time>
      </trkpt>
      <trkpt lat="45.06957" lon="2.67942">
        <ele>1163.92</ele>
        <time>2022-10-20T09:39:28.832Z</time>
      </trkpt>
      <trkpt lat="45.06949" lon="2.67946">
        <ele>1163.89</ele>
        <time>2022-10-20T09:39:38.620Z</time>
      </trkpt>
      <trkpt lat="45.06943" lon="2.67949">
        <ele>1165.65</ele>
        <time>2022-10-20T09:39:47.912Z</time>
      </trkpt>
      <trkpt lat="45.0694" lon="2.67953">
        <ele>1164.9</ele>
        <time>2022-10-20T09:39:57.591Z</time>
      </trkpt>
      <trkpt lat="45.06941" lon="2.6796">
        <ele>1167.71</ele>
        <time>2022-10-20T09:40:06.670Z</time>
      </trkpt>
      <trkpt lat="45.06941" lon="2.67968">
        <ele>1169.84</ele>
        <time>2022-10-20T09:40:17.000Z</time>
      </trkpt>
      <trkpt lat="45.06937" lon="2.67978">
        <ele>1172.97</ele>
        <time>2022-10-20T09:40:26.692Z</time>
      </trkpt>
      <trkpt lat="45.06936" lon="2.67982">
        <ele>1173.65</ele>
        <time>2022-10-20T09:40:36.000Z</time>
      </trkpt>
      <trkpt lat="45.06929" lon="2.6799">
        <ele>1177.84</ele>
        <time>2022-10-20T09:40:46.000Z</time>
      </trkpt>
      <trkpt lat="45.06923" lon="2.67996">
        <ele>1179.65</ele>
        <time>2022-10-20T09:40:56.000Z</time>
      </trkpt>
      <trkpt lat="45.06919" lon="2.68002">
        <ele>1180.9</ele>
        <time>2022-10-20T09:41:06.000Z</time>
      </trkpt>
      <trkpt lat="45.0691" lon="2.6801">
        <ele>1182.59</ele>
        <time>2022-10-20T09:41:16.000Z</time>
      </trkpt>
      <trkpt lat="45.06907" lon="2.68014">
        <ele>1180.97</ele>
        <time>2022-10-20T09:41:26.000Z</time>
      </trkpt>
      <trkpt lat="45.06903" lon="2.68022">
        <ele>1183.65</ele>
        <time>2022-10-20T09:41:36.000Z</time>
      </trkpt>
      <trkpt lat="45.06899" lon="2.6803">
        <ele>1184.84</ele>
        <time>2022-10-20T09:41:45.753Z</time>
      </trkpt>
      <trkpt lat="45.06896" lon="2.68039">
        <ele>1184.9</ele>
        <time>2022-10-20T09:41:55.000Z</time>
      </trkpt>
      <trkpt lat="45.06892" lon="2.68048">
        <ele>1189.89</ele>
        <time>2022-10-20T09:42:04.732Z</time>
      </trkpt>
      <trkpt lat="45.0689" lon="2.68053">
        <ele>1189.92</ele>
        <time>2022-10-20T09:42:14.000Z</time>
      </trkpt>
      <trkpt lat="45.06885" lon="2.6806">
        <ele>1190.91</ele>
        <time>2022-10-20T09:42:24.000Z</time>
      </trkpt>
      <trkpt lat="45.0688" lon="2.68072">
        <ele>1193.15</ele>
        <time>2022-10-20T09:42:33.801Z</time>
      </trkpt>
      <trkpt lat="45.06876" lon="2.68079">
        <ele>1190.15</ele>
        <time>2022-10-20T09:42:43.000Z</time>
      </trkpt>
      <trkpt lat="45.06873" lon="2.68088">
        <ele>1192.4</ele>
        <time>2022-10-20T09:42:53.000Z</time>
      </trkpt>
      <trkpt lat="45.06869" lon="2.68096">
        <ele>1191.9</ele>
        <time>2022-10-20T09:43:03.000Z</time>
      </trkpt>
      <trkpt lat="45.06864" lon="2.68106">
        <ele>1191.09</ele>
        <time>2022-10-20T09:43:12.578Z</time>
      </trkpt>
      <trkpt lat="45.06859" lon="2.68113">
        <ele>1190.9</ele>
        <time>2022-10-20T09:43:22.000Z</time>
      </trkpt>
      <trkpt lat="45.06853" lon="2.6812">
        <ele>1191.84</ele>
        <time>2022-10-20T09:43:31.591Z</time>
      </trkpt>
      <trkpt lat="45.06848" lon="2.68124">
        <ele>1192.65</ele>
        <time>2022-10-20T09:43:41.000Z</time>
      </trkpt>
      <trkpt lat="45.06842" lon="2.6813">
        <ele>1194.9</ele>
        <time>2022-10-20T09:43:51.000Z</time>
      </trkpt>
      <trkpt lat="45.06834" lon="2.68131">
        <ele>1195.9</ele>
        <time>2022-10-20T09:44:00.971Z</time>
      </trkpt>
      <trkpt lat="45.06827" lon="2.68131">
        <ele>1198.9</ele>
        <time>2022-10-20T09:44:10.503Z</time>
      </trkpt>
      <trkpt lat="45.06821" lon="2.68126">
        <ele>1198.9</ele>
        <time>2022-10-20T09:44:20.000Z</time>
      </trkpt>
      <trkpt lat="45.06815" lon="2.68118">
        <ele>1200.84</ele>
        <time>2022-10-20T09:44:30.000Z</time>
      </trkpt>
      <trkpt lat="45.06808" lon="2.68102">
        <ele>1202.84</ele>
        <time>2022-10-20T09:44:40.000Z</time>
      </trkpt>
      <trkpt lat="45.06803" lon="2.68087">
        <ele>1204.9</ele>
        <time>2022-10-20T09:44:49.582Z</time>
      </trkpt>
      <trkpt lat="45.06797" lon="2.68082">
        <ele>1205.9</ele>
        <time>2022-10-20T09:44:58.792Z</time>
      </trkpt>
      <trkpt lat="45.06789" lon="2.6808">
        <ele>1206.65</ele>
        <time>2022-10-20T09:45:09.000Z</time>
      </trkpt>
      <trkpt lat="45.06783" lon="2.68075">
        <ele>1205.96</ele>
        <time>2022-10-20T09:45:18.452Z</time>
      </trkpt>
      <trkpt lat="45.0678" lon="2.68072">
        <ele>1206.65</ele>
        <time>2022-10-20T09:45:27.772Z</time>
      </trkpt>
      <trkpt lat="45.0677" lon="2.68078">
        <ele>1206.96</ele>
        <time>2022-10-20T09:45:38.000Z</time>
      </trkpt>
      <trkpt lat="45.06769" lon="2.68077">
        <ele>1207.9</ele>
        <time>2022-10-20T09:45:48.000Z</time>
      </trkpt>
      <trkpt lat="45.06767" lon="2.68078">
        <ele>1204.97</ele>
        <time>2022-10-20T09:45:58.000Z</time>
      </trkpt>
      <trkpt lat="45.06767" lon="2.68079">
        <ele>1203.97</ele>
        <time>2022-10-20T09:46:10.311Z</time>
      </trkpt>
      <trkpt lat="45.06766" lon="2.68079">
        <ele>1203.9</ele>
        <time>2022-10-20T09:46:37.000Z</time>
      </trkpt>
      <trkpt lat="45.06763" lon="2.68081">
        <ele>1204.9</ele>
        <time>2022-10-20T09:46:47.000Z</time>
      </trkpt>
      <trkpt lat="45.06762" lon="2.68082">
        <ele>1206.87</ele>
        <time>2022-10-20T09:46:57.000Z</time>
      </trkpt>
      <trkpt lat="45.06763" lon="2.6808">
        <ele>1208.65</ele>
        <time>2022-10-20T09:49:21.000Z</time>
      </trkpt>
      <trkpt lat="45.06764" lon="2.68078">
        <ele>1208.9</ele>
        <time>2022-10-20T09:49:31.000Z</time>
      </trkpt>
      <trkpt lat="45.06766" lon="2.68078">
        <ele>1210.65</ele>
        <time>2022-10-20T09:49:40.682Z</time>
      </trkpt>
      <trkpt lat="45.06772" lon="2.68072">
        <ele>1213.9</ele>
        <time>2022-10-20T09:49:49.881Z</time>
      </trkpt>
      <trkpt lat="45.06771" lon="2.68063">
        <ele>1217.84</ele>
        <time>2022-10-20T09:50:00.000Z</time>
      </trkpt>
      <trkpt lat="45.06772" lon="2.68055">
        <ele>1215.92</ele>
        <time>2022-10-20T09:50:09.492Z</time>
      </trkpt>
      <trkpt lat="45.06768" lon="2.68051">
        <ele>1215.9</ele>
        <time>2022-10-20T09:50:18.772Z</time>
      </trkpt>
      <trkpt lat="45.06761" lon="2.68045">
        <ele>1217.89</ele>
        <time>2022-10-20T09:50:29.000Z</time>
      </trkpt>
      <trkpt lat="45.06759" lon="2.68037">
        <ele>1217.97</ele>
        <time>2022-10-20T09:50:39.000Z</time>
      </trkpt>
      <trkpt lat="45.06754" lon="2.68029">
        <ele>1221.89</ele>
        <time>2022-10-20T09:50:49.000Z</time>
      </trkpt>
      <trkpt lat="45.06751" lon="2.6802">
        <ele>1226.84</ele>
        <time>2022-10-20T09:50:58.570Z</time>
      </trkpt>
      <trkpt lat="45.06747" lon="2.68015">
        <ele>1228.15</ele>
        <time>2022-10-20T09:51:07.732Z</time>
      </trkpt>
      <trkpt lat="45.06741" lon="2.68008">
        <ele>1227.66</ele>
        <time>2022-10-20T09:51:17.000Z</time>
      </trkpt>
      <trkpt lat="45.06741" lon="2.67996">
        <ele>1224.92</ele>
        <time>2022-10-20T09:51:27.000Z</time>
      </trkpt>
      <trkpt lat="45.06741" lon="2.67993">
        <ele>1224.9</ele>
        <time>2022-10-20T09:51:37.000Z</time>
      </trkpt>
      <trkpt lat="45.06741" lon="2.67992">
        <ele>1225.89</ele>
        <time>2022-10-20T09:51:55.811Z</time>
      </trkpt>
      <trkpt lat="45.06742" lon="2.67985">
        <ele>1224.97</ele>
        <time>2022-10-20T09:52:05.000Z</time>
      </trkpt>
      <trkpt lat="45.06747" lon="2.67974">
        <ele>1225.9</ele>
        <time>2022-10-20T09:52:16.000Z</time>
      </trkpt>
      <trkpt lat="45.0675" lon="2.6796">
        <ele>1225.65</ele>
        <time>2022-10-20T09:52:26.000Z</time>
      </trkpt>
      <trkpt lat="45.06751" lon="2.67957">
        <ele>1225.9</ele>
        <time>2022-10-20T09:52:36.000Z</time>
      </trkpt>
      <trkpt lat="45.06752" lon="2.67952">
        <ele>1226.9</ele>
        <time>2022-10-20T09:52:46.000Z</time>
      </trkpt>
      <trkpt lat="45.0675" lon="2.67942">
        <ele>1228.9</ele>
        <time>2022-10-20T09:52:56.000Z</time>
      </trkpt>
      <trkpt lat="45.06749" lon="2.67933">
        <ele>1229.16</ele>
        <time>2022-10-20T09:53:05.734Z</time>
      </trkpt>
      <trkpt lat="45.06746" lon="2.67927">
        <ele>1229.91</ele>
        <time>2022-10-20T09:53:15.000Z</time>
      </trkpt>
      <trkpt lat="45.06738" lon="2.67924">
        <ele>1229.84</ele>
        <time>2022-10-20T09:53:25.000Z</time>
      </trkpt>
      <trkpt lat="45.06729" lon="2.67928">
        <ele>1232.89</ele>
        <time>2022-10-20T09:53:35.000Z</time>
      </trkpt>
      <trkpt lat="45.06723" lon="2.67937">
        <ele>1236.89</ele>
        <time>2022-10-20T09:53:44.632Z</time>
      </trkpt>
      <trkpt lat="45.06719" lon="2.67946">
        <ele>1239.91</ele>
        <time>2022-10-20T09:53:55.000Z</time>
      </trkpt>
      <trkpt lat="45.06715" lon="2.67953">
        <ele>1237.91</ele>
        <time>2022-10-20T09:54:05.000Z</time>
      </trkpt>
      <trkpt lat="45.06711" lon="2.67962">
        <ele>1236.9</ele>
        <time>2022-10-20T09:54:14.652Z</time>
      </trkpt>
      <trkpt lat="45.06706" lon="2.67973">
        <ele>1237.9</ele>
        <time>2022-10-20T09:54:23.712Z</time>
      </trkpt>
      <trkpt lat="45.06702" lon="2.67981">
        <ele>1239.87</ele>
        <time>2022-10-20T09:54:32.773Z</time>
      </trkpt>
      <trkpt lat="45.06696" lon="2.67988">
        <ele>1243.9</ele>
        <time>2022-10-20T09:54:43.000Z</time>
      </trkpt>
      <trkpt lat="45.06691" lon="2.67997">
        <ele>1245.65</ele>
        <time>2022-10-20T09:54:53.000Z</time>
      </trkpt>
      <trkpt lat="45.06682" lon="2.68007">
        <ele>1242.91</ele>
        <time>2022-10-20T09:55:02.642Z</time>
      </trkpt>
      <trkpt lat="45.06675" lon="2.6801">
        <ele>1240.92</ele>
        <time>2022-10-20T09:55:11.884Z</time>
      </trkpt>
      <trkpt lat="45.06673" lon="2.68014">
        <ele>1241.4</ele>
        <time>2022-10-20T09:55:21.000Z</time>
      </trkpt>
      <trkpt lat="45.06667" lon="2.6802">
        <ele>1240.91</ele>
        <time>2022-10-20T09:55:31.000Z</time>
      </trkpt>
      <trkpt lat="45.06657" lon="2.68027">
        <ele>1239.98</ele>
        <time>2022-10-20T09:55:40.033Z</time>
      </trkpt>
      <trkpt lat="45.0665" lon="2.6803">
        <ele>1240.97</ele>
        <time>2022-10-20T09:55:50.114Z</time>
      </trkpt>
      <trkpt lat="45.06641" lon="2.68034">
        <ele>1243.9</ele>
        <time>2022-10-20T09:55:59.814Z</time>
      </trkpt>
      <trkpt lat="45.06633" lon="2.68036">
        <ele>1247.9</ele>
        <time>2022-10-20T09:56:10.000Z</time>
      </trkpt>
      <trkpt lat="45.06627" lon="2.68041">
        <ele>1243.92</ele>
        <time>2022-10-20T09:56:19.672Z</time>
      </trkpt>
      <trkpt lat="45.06622" lon="2.68041">
        <ele>1246.89</ele>
        <time>2022-10-20T09:56:29.000Z</time>
      </trkpt>
      <trkpt lat="45.06621" lon="2.68039">
        <ele>1246.9</ele>
        <time>2022-10-20T09:56:39.000Z</time>
      </trkpt>
      <trkpt lat="45.06618" lon="2.68035">
        <ele>1246.9</ele>
        <time>2022-10-20T09:56:49.000Z</time>
      </trkpt>
      <trkpt lat="45.06617" lon="2.68029">
        <ele>1246.84</ele>
        <time>2022-10-20T09:56:58.074Z</time>
      </trkpt>
      <trkpt lat="45.0662" lon="2.6802">
        <ele>1246.15</ele>
        <time>2022-10-20T09:57:07.630Z</time>
      </trkpt>
      <trkpt lat="45.06624" lon="2.6801">
        <ele>1248.84</ele>
        <time>2022-10-20T09:57:17.000Z</time>
      </trkpt>
      <trkpt lat="45.06627" lon="2.68001">
        <ele>1250.9</ele>
        <time>2022-10-20T09:57:27.000Z</time>
      </trkpt>
      <trkpt lat="45.06629" lon="2.67988">
        <ele>1253.89</ele>
        <time>2022-10-20T09:57:37.000Z</time>
      </trkpt>
      <trkpt lat="45.06629" lon="2.67974">
        <ele>1253.9</ele>
        <time>2022-10-20T09:57:47.000Z</time>
      </trkpt>
      <trkpt lat="45.06631" lon="2.67959">
        <ele>1254.91</ele>
        <time>2022-10-20T09:57:57.000Z</time>
      </trkpt>
      <trkpt lat="45.06629" lon="2.67944">
        <ele>1254.9</ele>
        <time>2022-10-20T09:58:06.090Z</time>
      </trkpt>
      <trkpt lat="45.06626" lon="2.67935">
        <ele>1255.91</ele>
        <time>2022-10-20T09:58:16.000Z</time>
      </trkpt>
      <trkpt lat="45.06627" lon="2.67918">
        <ele>1255.65</ele>
        <time>2022-10-20T09:58:26.072Z</time>
      </trkpt>
      <trkpt lat="45.06625" lon="2.67912">
        <ele>1255.66</ele>
        <time>2022-10-20T09:58:36.000Z</time>
      </trkpt>
      <trkpt lat="45.06623" lon="2.67898">
        <ele>1255.91</ele>
        <time>2022-10-20T09:58:45.592Z</time>
      </trkpt>
      <trkpt lat="45.06623" lon="2.67878">
        <ele>1255.91</ele>
        <time>2022-10-20T09:58:55.133Z</time>
      </trkpt>
      <trkpt lat="45.06623" lon="2.67866">
        <ele>1255.97</ele>
        <time>2022-10-20T09:59:04.141Z</time>
      </trkpt>
      <trkpt lat="45.06623" lon="2.67856">
        <ele>1256.91</ele>
        <time>2022-10-20T09:59:13.563Z</time>
      </trkpt>
      <trkpt lat="45.06614" lon="2.67852">
        <ele>1256.91</ele>
        <time>2022-10-20T09:59:22.832Z</time>
      </trkpt>
      <trkpt lat="45.0661" lon="2.67854">
        <ele>1256.72</ele>
        <time>2022-10-20T09:59:32.000Z</time>
      </trkpt>
      <trkpt lat="45.066" lon="2.67864">
        <ele>1259.89</ele>
        <time>2022-10-20T09:59:41.393Z</time>
      </trkpt>
      <trkpt lat="45.06596" lon="2.67875">
        <ele>1263.89</ele>
        <time>2022-10-20T09:59:50.872Z</time>
      </trkpt>
      <trkpt lat="45.06591" lon="2.67886">
        <ele>1260.91</ele>
        <time>2022-10-20T10:00:01.000Z</time>
      </trkpt>
      <trkpt lat="45.0659" lon="2.679">
        <ele>1265.65</ele>
        <time>2022-10-20T10:00:11.000Z</time>
      </trkpt>
      <trkpt lat="45.06583" lon="2.67909">
        <ele>1269.67</ele>
        <time>2022-10-20T10:00:20.631Z</time>
      </trkpt>
      <trkpt lat="45.06579" lon="2.67916">
        <ele>1271.91</ele>
        <time>2022-10-20T10:00:30.000Z</time>
      </trkpt>
      <trkpt lat="45.06577" lon="2.6793">
        <ele>1271.97</ele>
        <time>2022-10-20T10:00:39.114Z</time>
      </trkpt>
      <trkpt lat="45.06574" lon="2.67943">
        <ele>1273.59</ele>
        <time>2022-10-20T10:00:48.441Z</time>
      </trkpt>
      <trkpt lat="45.06572" lon="2.67955">
        <ele>1276.89</ele>
        <time>2022-10-20T10:00:57.569Z</time>
      </trkpt>
      <trkpt lat="45.0657" lon="2.67967">
        <ele>1276.66</ele>
        <time>2022-10-20T10:01:07.000Z</time>
      </trkpt>
      <trkpt lat="45.06562" lon="2.67976">
        <ele>1277.66</ele>
        <time>2022-10-20T10:01:17.000Z</time>
      </trkpt>
      <trkpt lat="45.06555" lon="2.67983">
        <ele>1276.92</ele>
        <time>2022-10-20T10:01:27.151Z</time>
      </trkpt>
      <trkpt lat="45.06548" lon="2.67994">
        <ele>1277.91</ele>
        <time>2022-10-20T10:01:37.000Z</time>
      </trkpt>
      <trkpt lat="45.06548" lon="2.68002">
        <ele>1280.9</ele>
        <time>2022-10-20T10:01:46.162Z</time>
      </trkpt>
      <trkpt lat="45.06553" lon="2.6801">
        <ele>1280.92</ele>
        <time>2022-10-20T10:01:55.470Z</time>
      </trkpt>
      <trkpt lat="45.06555" lon="2.68024">
        <ele>1281.9</ele>
        <time>2022-10-20T10:02:04.773Z</time>
      </trkpt>
      <trkpt lat="45.06556" lon="2.68037">
        <ele>1281.16</ele>
        <time>2022-10-20T10:02:14.000Z</time>
      </trkpt>
      <trkpt lat="45.06555" lon="2.6805">
        <ele>1280.9</ele>
        <time>2022-10-20T10:02:23.230Z</time>
      </trkpt>
      <trkpt lat="45.06552" lon="2.68059">
        <ele>1279.92</ele>
        <time>2022-10-20T10:02:32.757Z</time>
      </trkpt>
      <trkpt lat="45.06547" lon="2.68073">
        <ele>1279.15</ele>
        <time>2022-10-20T10:02:42.000Z</time>
      </trkpt>
      <trkpt lat="45.06544" lon="2.68088">
        <ele>1279.9</ele>
        <time>2022-10-20T10:02:52.000Z</time>
      </trkpt>
      <trkpt lat="45.0654" lon="2.68101">
        <ele>1283.78</ele>
        <time>2022-10-20T10:03:01.150Z</time>
      </trkpt>
      <trkpt lat="45.0654" lon="2.68105">
        <ele>1287.9</ele>
        <time>2022-10-20T10:03:10.713Z</time>
      </trkpt>
      <trkpt lat="45.06542" lon="2.68119">
        <ele>1284.9</ele>
        <time>2022-10-20T10:03:21.000Z</time>
      </trkpt>
      <trkpt lat="45.06543" lon="2.68135">
        <ele>1286.84</ele>
        <time>2022-10-20T10:03:32.000Z</time>
      </trkpt>
      <trkpt lat="45.06542" lon="2.68152">
        <ele>1287.65</ele>
        <time>2022-10-20T10:03:42.000Z</time>
      </trkpt>
      <trkpt lat="45.06542" lon="2.68166">
        <ele>1285.96</ele>
        <time>2022-10-20T10:03:51.071Z</time>
      </trkpt>
      <trkpt lat="45.0654" lon="2.68166">
        <ele>1286.65</ele>
        <time>2022-10-20T10:04:22.000Z</time>
      </trkpt>
      <trkpt lat="45.0654" lon="2.68167">
        <ele>1286.9</ele>
        <time>2022-10-20T10:04:54.000Z</time>
      </trkpt>
      <trkpt lat="45.06536" lon="2.68181">
        <ele>1286.9</ele>
        <time>2022-10-20T10:05:03.054Z</time>
      </trkpt>
      <trkpt lat="45.06533" lon="2.68193">
        <ele>1287.67</ele>
        <time>2022-10-20T10:05:12.412Z</time>
      </trkpt>
      <trkpt lat="45.06531" lon="2.682">
        <ele>1285.9</ele>
        <time>2022-10-20T10:05:21.732Z</time>
      </trkpt>
      <trkpt lat="45.06528" lon="2.68217">
        <ele>1287.96</ele>
        <time>2022-10-20T10:05:31.013Z</time>
      </trkpt>
      <trkpt lat="45.06525" lon="2.68235">
        <ele>1287.71</ele>
        <time>2022-10-20T10:05:40.361Z</time>
      </trkpt>
      <trkpt lat="45.06524" lon="2.68246">
        <ele>1285.92</ele>
        <time>2022-10-20T10:05:50.000Z</time>
      </trkpt>
      <trkpt lat="45.06522" lon="2.68263">
        <ele>1287.65</ele>
        <time>2022-10-20T10:05:59.441Z</time>
      </trkpt>
      <trkpt lat="45.06522" lon="2.68275">
        <ele>1290.15</ele>
        <time>2022-10-20T10:06:08.490Z</time>
      </trkpt>
      <trkpt lat="45.06525" lon="2.68288">
        <ele>1293.9</ele>
        <time>2022-10-20T10:06:17.710Z</time>
      </trkpt>
      <trkpt lat="45.06526" lon="2.68299">
        <ele>1292.96</ele>
        <time>2022-10-20T10:06:27.012Z</time>
      </trkpt>
      <trkpt lat="45.06526" lon="2.68315">
        <ele>1292.13</ele>
        <time>2022-10-20T10:06:36.032Z</time>
      </trkpt>
      <trkpt lat="45.06527" lon="2.68329">
        <ele>1294.15</ele>
        <time>2022-10-20T10:06:45.805Z</time>
      </trkpt>
      <trkpt lat="45.06528" lon="2.68343">
        <ele>1296.6</ele>
        <time>2022-10-20T10:06:55.191Z</time>
      </trkpt>
      <trkpt lat="45.06531" lon="2.68357">
        <ele>1299.15</ele>
        <time>2022-10-20T10:07:04.612Z</time>
      </trkpt>
      <trkpt lat="45.06534" lon="2.68365">
        <ele>1300.9</ele>
        <time>2022-10-20T10:07:14.000Z</time>
      </trkpt>
      <trkpt lat="45.06539" lon="2.68378">
        <ele>1300.9</ele>
        <time>2022-10-20T10:07:24.000Z</time>
      </trkpt>
      <trkpt lat="45.06544" lon="2.68395">
        <ele>1298.96</ele>
        <time>2022-10-20T10:07:33.092Z</time>
      </trkpt>
      <trkpt lat="45.06549" lon="2.68406">
        <ele>1300.88</ele>
        <time>2022-10-20T10:07:42.712Z</time>
      </trkpt>
      <trkpt lat="45.06553" lon="2.68418">
        <ele>1300.9</ele>
        <time>2022-10-20T10:07:52.000Z</time>
      </trkpt>
      <trkpt lat="45.06557" lon="2.68435">
        <ele>1300.15</ele>
        <time>2022-10-20T10:08:01.473Z</time>
      </trkpt>
      <trkpt lat="45.0656" lon="2.68444">
        <ele>1301.88</ele>
        <time>2022-10-20T10:08:10.651Z</time>
      </trkpt>
      <trkpt lat="45.06563" lon="2.68455">
        <ele>1298.15</ele>
        <time>2022-10-20T10:08:20.000Z</time>
      </trkpt>
      <trkpt lat="45.06564" lon="2.68469">
        <ele>1296.9</ele>
        <time>2022-10-20T10:08:29.651Z</time>
      </trkpt>
      <trkpt lat="45.06568" lon="2.68487">
        <ele>1298.91</ele>
        <time>2022-10-20T10:08:39.052Z</time>
      </trkpt>
      <trkpt lat="45.0657" lon="2.685">
        <ele>1299.9</ele>
        <time>2022-10-20T10:08:50.000Z</time>
      </trkpt>
      <trkpt lat="45.06572" lon="2.68517">
        <ele>1302.15</ele>
        <time>2022-10-20T10:09:00.053Z</time>
      </trkpt>
      <trkpt lat="45.06574" lon="2.6853">
        <ele>1302.9</ele>
        <time>2022-10-20T10:09:10.073Z</time>
      </trkpt>
      <trkpt lat="45.06576" lon="2.68549">
        <ele>1303.65</ele>
        <time>2022-10-20T10:09:20.092Z</time>
      </trkpt>
      <trkpt lat="45.06576" lon="2.68559">
        <ele>1302.9</ele>
        <time>2022-10-20T10:09:29.576Z</time>
      </trkpt>
      <trkpt lat="45.06577" lon="2.6857">
        <ele>1304.88</ele>
        <time>2022-10-20T10:09:39.033Z</time>
      </trkpt>
      <trkpt lat="45.06577" lon="2.68585">
        <ele>1306.64</ele>
        <time>2022-10-20T10:09:48.591Z</time>
      </trkpt>
      <trkpt lat="45.06573" lon="2.68603">
        <ele>1304.9</ele>
        <time>2022-10-20T10:09:57.992Z</time>
      </trkpt>
      <trkpt lat="45.06568" lon="2.68616">
        <ele>1305.89</ele>
        <time>2022-10-20T10:10:07.000Z</time>
      </trkpt>
      <trkpt lat="45.06563" lon="2.68625">
        <ele>1304.89</ele>
        <time>2022-10-20T10:10:17.000Z</time>
      </trkpt>
      <trkpt lat="45.06554" lon="2.68634">
        <ele>1303.89</ele>
        <time>2022-10-20T10:10:27.000Z</time>
      </trkpt>
      <trkpt lat="45.06544" lon="2.68647">
        <ele>1304.64</ele>
        <time>2022-10-20T10:10:36.932Z</time>
      </trkpt>
      <trkpt lat="45.06538" lon="2.68658">
        <ele>1305.89</ele>
        <time>2022-10-20T10:10:47.000Z</time>
      </trkpt>
      <trkpt lat="45.06531" lon="2.68667">
        <ele>1306.9</ele>
        <time>2022-10-20T10:10:57.000Z</time>
      </trkpt>
      <trkpt lat="45.06525" lon="2.68679">
        <ele>1307.89</ele>
        <time>2022-10-20T10:11:07.031Z</time>
      </trkpt>
      <trkpt lat="45.06525" lon="2.6869">
        <ele>1309.88</ele>
        <time>2022-10-20T10:11:16.433Z</time>
      </trkpt>
      <trkpt lat="45.06527" lon="2.68706">
        <ele>1309.89</ele>
        <time>2022-10-20T10:11:25.670Z</time>
      </trkpt>
      <trkpt lat="45.06527" lon="2.68719">
        <ele>1311.64</ele>
        <time>2022-10-20T10:11:36.000Z</time>
      </trkpt>
      <trkpt lat="45.06526" lon="2.68726">
        <ele>1314.64</ele>
        <time>2022-10-20T10:11:46.000Z</time>
      </trkpt>
      <trkpt lat="45.06525" lon="2.68741">
        <ele>1312.89</ele>
        <time>2022-10-20T10:11:56.000Z</time>
      </trkpt>
      <trkpt lat="45.06527" lon="2.68754">
        <ele>1315.89</ele>
        <time>2022-10-20T10:12:06.012Z</time>
      </trkpt>
      <trkpt lat="45.06524" lon="2.68772">
        <ele>1316.14</ele>
        <time>2022-10-20T10:12:15.513Z</time>
      </trkpt>
      <trkpt lat="45.06522" lon="2.68789">
        <ele>1313.89</ele>
        <time>2022-10-20T10:12:24.702Z</time>
      </trkpt>
      <trkpt lat="45.06519" lon="2.68803">
        <ele>1313.89</ele>
        <time>2022-10-20T10:12:35.000Z</time>
      </trkpt>
      <trkpt lat="45.06517" lon="2.68807">
        <ele>1312.89</ele>
        <time>2022-10-20T10:12:45.000Z</time>
      </trkpt>
      <trkpt lat="45.06515" lon="2.68816">
        <ele>1313.83</ele>
        <time>2022-10-20T10:12:55.000Z</time>
      </trkpt>
      <trkpt lat="45.06513" lon="2.6883">
        <ele>1315.89</ele>
        <time>2022-10-20T10:13:04.511Z</time>
      </trkpt>
      <trkpt lat="45.06514" lon="2.68843">
        <ele>1316.89</ele>
        <time>2022-10-20T10:13:14.112Z</time>
      </trkpt>
      <trkpt lat="45.06515" lon="2.68855">
        <ele>1318.83</ele>
        <time>2022-10-20T10:13:24.000Z</time>
      </trkpt>
      <trkpt lat="45.06517" lon="2.68868">
        <ele>1320.89</ele>
        <time>2022-10-20T10:13:34.000Z</time>
      </trkpt>
      <trkpt lat="45.0652" lon="2.68876">
        <ele>1321.89</ele>
        <time>2022-10-20T10:13:43.563Z</time>
      </trkpt>
      <trkpt lat="45.06527" lon="2.68882">
        <ele>1321.14</ele>
        <time>2022-10-20T10:13:52.640Z</time>
      </trkpt>
      <trkpt lat="45.06535" lon="2.68884">
        <ele>1321.83</ele>
        <time>2022-10-20T10:14:02.000Z</time>
      </trkpt>
      <trkpt lat="45.06543" lon="2.68884">
        <ele>1321.95</ele>
        <time>2022-10-20T10:14:11.121Z</time>
      </trkpt>
      <trkpt lat="45.06552" lon="2.68889">
        <ele>1320.89</ele>
        <time>2022-10-20T10:14:21.090Z</time>
      </trkpt>
      <trkpt lat="45.06562" lon="2.68893">
        <ele>1319.14</ele>
        <time>2022-10-20T10:14:31.000Z</time>
      </trkpt>
      <trkpt lat="45.06572" lon="2.689">
        <ele>1317.89</ele>
        <time>2022-10-20T10:14:40.692Z</time>
      </trkpt>
      <trkpt lat="45.06579" lon="2.68906">
        <ele>1317.89</ele>
        <time>2022-10-20T10:14:50.000Z</time>
      </trkpt>
      <trkpt lat="45.06587" lon="2.68912">
        <ele>1316.7</ele>
        <time>2022-10-20T10:15:00.000Z</time>
      </trkpt>
      <trkpt lat="45.06594" lon="2.68922">
        <ele>1316.87</ele>
        <time>2022-10-20T10:15:09.011Z</time>
      </trkpt>
      <trkpt lat="45.06597" lon="2.68924">
        <ele>1317.89</ele>
        <time>2022-10-20T10:15:19.000Z</time>
      </trkpt>
      <trkpt lat="45.06598" lon="2.68926">
        <ele>1317.89</ele>
        <time>2022-10-20T10:15:28.823Z</time>
      </trkpt>
      <trkpt lat="45.06604" lon="2.68935">
        <ele>1319.88</ele>
        <time>2022-10-20T10:15:38.491Z</time>
      </trkpt>
      <trkpt lat="45.06608" lon="2.68946">
        <ele>1320.89</ele>
        <time>2022-10-20T10:15:48.000Z</time>
      </trkpt>
      <trkpt lat="45.06614" lon="2.68955">
        <ele>1323.64</ele>
        <time>2022-10-20T10:15:58.000Z</time>
      </trkpt>
      <trkpt lat="45.06621" lon="2.68968">
        <ele>1324.89</ele>
        <time>2022-10-20T10:16:08.000Z</time>
      </trkpt>
      <trkpt lat="45.06625" lon="2.68981">
        <ele>1325.89</ele>
        <time>2022-10-20T10:16:18.000Z</time>
      </trkpt>
      <trkpt lat="45.06628" lon="2.68993">
        <ele>1324.89</ele>
        <time>2022-10-20T10:16:28.000Z</time>
      </trkpt>
      <trkpt lat="45.06629" lon="2.69012">
        <ele>1325.64</ele>
        <time>2022-10-20T10:16:38.052Z</time>
      </trkpt>
      <trkpt lat="45.06631" lon="2.69027">
        <ele>1327.64</ele>
        <time>2022-10-20T10:16:48.000Z</time>
      </trkpt>
      <trkpt lat="45.06631" lon="2.69041">
        <ele>1327.88</ele>
        <time>2022-10-20T10:16:58.000Z</time>
      </trkpt>
      <trkpt lat="45.06629" lon="2.69057">
        <ele>1327.87</ele>
        <time>2022-10-20T10:17:07.113Z</time>
      </trkpt>
      <trkpt lat="45.06628" lon="2.69072">
        <ele>1327.82</ele>
        <time>2022-10-20T10:17:16.972Z</time>
      </trkpt>
      <trkpt lat="45.06628" lon="2.69082">
        <ele>1328.93</ele>
        <time>2022-10-20T10:17:27.091Z</time>
      </trkpt>
      <trkpt lat="45.06626" lon="2.69093">
        <ele>1326.39</ele>
        <time>2022-10-20T10:17:36.893Z</time>
      </trkpt>
      <trkpt lat="45.06624" lon="2.69109">
        <ele>1323.89</ele>
        <time>2022-10-20T10:17:45.994Z</time>
      </trkpt>
      <trkpt lat="45.06619" lon="2.69126">
        <ele>1321.14</ele>
        <time>2022-10-20T10:17:56.000Z</time>
      </trkpt>
      <trkpt lat="45.06613" lon="2.69138">
        <ele>1321.88</ele>
        <time>2022-10-20T10:18:05.921Z</time>
      </trkpt>
      <trkpt lat="45.0661" lon="2.69149">
        <ele>1325.56</ele>
        <time>2022-10-20T10:18:15.000Z</time>
      </trkpt>
      <trkpt lat="45.06614" lon="2.69158">
        <ele>1327.89</ele>
        <time>2022-10-20T10:18:25.093Z</time>
      </trkpt>
      <trkpt lat="45.06622" lon="2.69166">
        <ele>1326.88</ele>
        <time>2022-10-20T10:18:35.093Z</time>
      </trkpt>
      <trkpt lat="45.0663" lon="2.69169">
        <ele>1325.95</ele>
        <time>2022-10-20T10:18:45.000Z</time>
      </trkpt>
      <trkpt lat="45.0664" lon="2.6918">
        <ele>1321.89</ele>
        <time>2022-10-20T10:18:55.000Z</time>
      </trkpt>
      <trkpt lat="45.06648" lon="2.69189">
        <ele>1320.83</ele>
        <time>2022-10-20T10:19:04.654Z</time>
      </trkpt>
      <trkpt lat="45.06651" lon="2.69191">
        <ele>1322.59</ele>
        <time>2022-10-20T10:19:14.000Z</time>
      </trkpt>
      <trkpt lat="45.06655" lon="2.69194">
        <ele>1325.88</ele>
        <time>2022-10-20T10:19:24.000Z</time>
      </trkpt>
      <trkpt lat="45.06661" lon="2.69197">
        <ele>1327.82</ele>
        <time>2022-10-20T10:19:33.671Z</time>
      </trkpt>
      <trkpt lat="45.06666" lon="2.69201">
        <ele>1329.82</ele>
        <time>2022-10-20T10:19:44.000Z</time>
      </trkpt>
      <trkpt lat="45.06672" lon="2.69205">
        <ele>1329.88</ele>
        <time>2022-10-20T10:19:53.813Z</time>
      </trkpt>
      <trkpt lat="45.06681" lon="2.69212">
        <ele>1330.88</ele>
        <time>2022-10-20T10:20:04.000Z</time>
      </trkpt>
      <trkpt lat="45.06686" lon="2.69219">
        <ele>1331.88</ele>
        <time>2022-10-20T10:20:14.000Z</time>
      </trkpt>
      <trkpt lat="45.06693" lon="2.69228">
        <ele>1332.82</ele>
        <time>2022-10-20T10:20:24.000Z</time>
      </trkpt>
      <trkpt lat="45.06702" lon="2.69238">
        <ele>1333.63</ele>
        <time>2022-10-20T10:20:33.590Z</time>
      </trkpt>
      <trkpt lat="45.06709" lon="2.69243">
        <ele>1335.88</ele>
        <time>2022-10-20T10:20:42.684Z</time>
      </trkpt>
      <trkpt lat="45.06714" lon="2.69252">
        <ele>1334.88</ele>
        <time>2022-10-20T10:20:52.000Z</time>
      </trkpt>
      <trkpt lat="45.06721" lon="2.69258">
        <ele>1334.88</ele>
        <time>2022-10-20T10:21:01.580Z</time>
      </trkpt>
      <trkpt lat="45.06728" lon="2.6927">
        <ele>1335.88</ele>
        <time>2022-10-20T10:21:11.041Z</time>
      </trkpt>
      <trkpt lat="45.0673" lon="2.69275">
        <ele>1336.82</ele>
        <time>2022-10-20T10:21:20.844Z</time>
      </trkpt>
      <trkpt lat="45.06736" lon="2.69289">
        <ele>1336.94</ele>
        <time>2022-10-20T10:21:30.530Z</time>
      </trkpt>
      <trkpt lat="45.06739" lon="2.69302">
        <ele>1336.83</ele>
        <time>2022-10-20T10:21:39.794Z</time>
      </trkpt>
      <trkpt lat="45.06745" lon="2.69318">
        <ele>1337.94</ele>
        <time>2022-10-20T10:21:50.181Z</time>
      </trkpt>
      <trkpt lat="45.06748" lon="2.6933">
        <ele>1337.89</ele>
        <time>2022-10-20T10:21:59.911Z</time>
      </trkpt>
      <trkpt lat="45.06749" lon="2.69337">
        <ele>1338.88</ele>
        <time>2022-10-20T10:22:09.576Z</time>
      </trkpt>
      <trkpt lat="45.06752" lon="2.69347">
        <ele>1340.88</ele>
        <time>2022-10-20T10:22:20.000Z</time>
      </trkpt>
      <trkpt lat="45.06756" lon="2.69357">
        <ele>1342.88</ele>
        <time>2022-10-20T10:22:30.000Z</time>
      </trkpt>
      <trkpt lat="45.06761" lon="2.69371">
        <ele>1343.88</ele>
        <time>2022-10-20T10:22:39.693Z</time>
      </trkpt>
      <trkpt lat="45.06763" lon="2.69385">
        <ele>1344.88</ele>
        <time>2022-10-20T10:22:48.727Z</time>
      </trkpt>
      <trkpt lat="45.06763" lon="2.69397">
        <ele>1345.88</ele>
        <time>2022-10-20T10:22:59.000Z</time>
      </trkpt>
      <trkpt lat="45.06763" lon="2.69407">
        <ele>1346.88</ele>
        <time>2022-10-20T10:23:09.000Z</time>
      </trkpt>
      <trkpt lat="45.06768" lon="2.69411">
        <ele>1350.63</ele>
        <time>2022-10-20T10:23:19.000Z</time>
      </trkpt>
      <trkpt lat="45.06774" lon="2.69415">
        <ele>1350.96</ele>
        <time>2022-10-20T10:23:29.000Z</time>
      </trkpt>
      <trkpt lat="45.0678" lon="2.69425">
        <ele>1347.88</ele>
        <time>2022-10-20T10:23:40.000Z</time>
      </trkpt>
      <trkpt lat="45.06787" lon="2.6943">
        <ele>1347.88</ele>
        <time>2022-10-20T10:23:50.000Z</time>
      </trkpt>
      <trkpt lat="45.06792" lon="2.69439">
        <ele>1348.88</ele>
        <time>2022-10-20T10:24:00.000Z</time>
      </trkpt>
      <trkpt lat="45.06795" lon="2.69449">
        <ele>1349.88</ele>
        <time>2022-10-20T10:24:10.000Z</time>
      </trkpt>
      <trkpt lat="45.06799" lon="2.69459">
        <ele>1350.82</ele>
        <time>2022-10-20T10:24:19.578Z</time>
      </trkpt>
      <trkpt lat="45.06802" lon="2.69467">
        <ele>1352.63</ele>
        <time>2022-10-20T10:24:30.000Z</time>
      </trkpt>
      <trkpt lat="45.06806" lon="2.6948">
        <ele>1352.88</ele>
        <time>2022-10-20T10:24:40.000Z</time>
      </trkpt>
      <trkpt lat="45.06808" lon="2.69492">
        <ele>1355.82</ele>
        <time>2022-10-20T10:24:49.590Z</time>
      </trkpt>
      <trkpt lat="45.06811" lon="2.69505">
        <ele>1355.88</ele>
        <time>2022-10-20T10:25:00.000Z</time>
      </trkpt>
      <trkpt lat="45.06815" lon="2.69517">
        <ele>1357.63</ele>
        <time>2022-10-20T10:25:09.432Z</time>
      </trkpt>
      <trkpt lat="45.0682" lon="2.69527">
        <ele>1360.86</ele>
        <time>2022-10-20T10:25:18.693Z</time>
      </trkpt>
      <trkpt lat="45.06824" lon="2.69536">
        <ele>1359.88</ele>
        <time>2022-10-20T10:25:28.000Z</time>
      </trkpt>
      <trkpt lat="45.06824" lon="2.69541">
        <ele>1358.88</ele>
        <time>2022-10-20T10:25:38.000Z</time>
      </trkpt>
      <trkpt lat="45.06829" lon="2.69552">
        <ele>1361.63</ele>
        <time>2022-10-20T10:25:48.000Z</time>
      </trkpt>
      <trkpt lat="45.06834" lon="2.69563">
        <ele>1363.87</ele>
        <time>2022-10-20T10:25:57.012Z</time>
      </trkpt>
      <trkpt lat="45.06838" lon="2.69577">
        <ele>1363.87</ele>
        <time>2022-10-20T10:26:06.114Z</time>
      </trkpt>
      <trkpt lat="45.06841" lon="2.69586">
        <ele>1367.63</ele>
        <time>2022-10-20T10:26:15.512Z</time>
      </trkpt>
      <trkpt lat="45.06846" lon="2.69604">
        <ele>1368.63</ele>
        <time>2022-10-20T10:26:24.792Z</time>
      </trkpt>
      <trkpt lat="45.06849" lon="2.69615">
        <ele>1372.63</ele>
        <time>2022-10-20T10:26:35.073Z</time>
      </trkpt>
      <trkpt lat="45.0685" lon="2.69632">
        <ele>1371.88</ele>
        <time>2022-10-20T10:26:45.000Z</time>
      </trkpt>
      <trkpt lat="45.06852" lon="2.69652">
        <ele>1372.63</ele>
        <time>2022-10-20T10:26:54.578Z</time>
      </trkpt>
      <trkpt lat="45.06852" lon="2.69664">
        <ele>1370.94</ele>
        <time>2022-10-20T10:27:04.093Z</time>
      </trkpt>
      <trkpt lat="45.06855" lon="2.6968">
        <ele>1370</ele>
        <time>2022-10-20T10:27:13.411Z</time>
      </trkpt>
      <trkpt lat="45.06857" lon="2.69691">
        <ele>1370.81</ele>
        <time>2022-10-20T10:27:23.000Z</time>
      </trkpt>
      <trkpt lat="45.06857" lon="2.69695">
        <ele>1369.12</ele>
        <time>2022-10-20T10:27:32.141Z</time>
      </trkpt>
      <trkpt lat="45.06857" lon="2.697">
        <ele>1368.87</ele>
        <time>2022-10-20T10:27:42.000Z</time>
      </trkpt>
      <trkpt lat="45.06856" lon="2.69701">
        <ele>1367.88</ele>
        <time>2022-10-20T10:28:04.000Z</time>
      </trkpt>
      <trkpt lat="45.06857" lon="2.69702">
        <ele>1366.88</ele>
        <time>2022-10-20T10:28:14.000Z</time>
      </trkpt>
      <trkpt lat="45.06857" lon="2.69703">
        <ele>1366.87</ele>
        <time>2022-10-20T10:28:27.000Z</time>
      </trkpt>
      <trkpt lat="45.06858" lon="2.69701">
        <ele>1365</ele>
        <time>2022-10-20T10:30:33.000Z</time>
      </trkpt>
      <trkpt lat="45.06855" lon="2.69701">
        <ele>1363.88</ele>
        <time>2022-10-20T10:30:42.612Z</time>
      </trkpt>
      <trkpt lat="45.06855" lon="2.69699">
        <ele>1362.94</ele>
        <time>2022-10-20T10:33:14.000Z</time>
      </trkpt>
      <trkpt lat="45.06856" lon="2.697">
        <ele>1361.87</ele>
        <time>2022-10-20T10:33:52.000Z</time>
      </trkpt>
      <trkpt lat="45.06856" lon="2.69701">
        <ele>1357.62</ele>
        <time>2022-10-20T10:35:03.000Z</time>
      </trkpt>
      <trkpt lat="45.06858" lon="2.69702">
        <ele>1360.6</ele>
        <time>2022-10-20T10:35:31.574Z</time>
      </trkpt>
      <trkpt lat="45.06858" lon="2.69704">
        <ele>1359.87</ele>
        <time>2022-10-20T10:35:41.000Z</time>
      </trkpt>
      <trkpt lat="45.06856" lon="2.69704">
        <ele>1358.88</ele>
        <time>2022-10-20T10:35:55.000Z</time>
      </trkpt>
      <trkpt lat="45.06863" lon="2.69703">
        <ele>1362.61</ele>
        <time>2022-10-20T10:36:04.472Z</time>
      </trkpt>
      <trkpt lat="45.06872" lon="2.697">
        <ele>1361.87</ele>
        <time>2022-10-20T10:36:14.000Z</time>
      </trkpt>
      <trkpt lat="45.0688" lon="2.69698">
        <ele>1361.87</ele>
        <time>2022-10-20T10:36:23.122Z</time>
      </trkpt>
      <trkpt lat="45.06888" lon="2.69696">
        <ele>1361.88</ele>
        <time>2022-10-20T10:36:32.711Z</time>
      </trkpt>
      <trkpt lat="45.06896" lon="2.69691">
        <ele>1362.87</ele>
        <time>2022-10-20T10:36:42.000Z</time>
      </trkpt>
      <trkpt lat="45.06905" lon="2.69688">
        <ele>1364.06</ele>
        <time>2022-10-20T10:36:52.122Z</time>
      </trkpt>
      <trkpt lat="45.06913" lon="2.69687">
        <ele>1365.81</ele>
        <time>2022-10-20T10:37:01.453Z</time>
      </trkpt>
      <trkpt lat="45.0692" lon="2.69685">
        <ele>1367.87</ele>
        <time>2022-10-20T10:37:10.471Z</time>
      </trkpt>
      <trkpt lat="45.06924" lon="2.69681">
        <ele>1370.87</ele>
        <time>2022-10-20T10:37:19.603Z</time>
      </trkpt>
      <trkpt lat="45.06927" lon="2.69677">
        <ele>1371.87</ele>
        <time>2022-10-20T10:37:28.814Z</time>
      </trkpt>
      <trkpt lat="45.06932" lon="2.69671">
        <ele>1373.62</ele>
        <time>2022-10-20T10:37:38.000Z</time>
      </trkpt>
      <trkpt lat="45.06939" lon="2.69663">
        <ele>1374.87</ele>
        <time>2022-10-20T10:37:47.711Z</time>
      </trkpt>
      <trkpt lat="45.06945" lon="2.69655">
        <ele>1376.86</ele>
        <time>2022-10-20T10:37:56.712Z</time>
      </trkpt>
      <trkpt lat="45.06949" lon="2.69649">
        <ele>1377.87</ele>
        <time>2022-10-20T10:38:05.852Z</time>
      </trkpt>
      <trkpt lat="45.06955" lon="2.69642">
        <ele>1377.87</ele>
        <time>2022-10-20T10:38:15.000Z</time>
      </trkpt>
      <trkpt lat="45.06961" lon="2.69633">
        <ele>1379.87</ele>
        <time>2022-10-20T10:38:24.373Z</time>
      </trkpt>
      <trkpt lat="45.06968" lon="2.69627">
        <ele>1380.62</ele>
        <time>2022-10-20T10:38:34.000Z</time>
      </trkpt>
      <trkpt lat="45.06975" lon="2.69618">
        <ele>1380.87</ele>
        <time>2022-10-20T10:38:43.792Z</time>
      </trkpt>
      <trkpt lat="45.06982" lon="2.69613">
        <ele>1382.8</ele>
        <time>2022-10-20T10:38:54.000Z</time>
      </trkpt>
      <trkpt lat="45.06989" lon="2.6961">
        <ele>1383.86</ele>
        <time>2022-10-20T10:39:03.692Z</time>
      </trkpt>
      <trkpt lat="45.06994" lon="2.69604">
        <ele>1385.87</ele>
        <time>2022-10-20T10:39:12.812Z</time>
      </trkpt>
      <trkpt lat="45.07" lon="2.69599">
        <ele>1386.87</ele>
        <time>2022-10-20T10:39:23.000Z</time>
      </trkpt>
      <trkpt lat="45.07007" lon="2.69593">
        <ele>1387.63</ele>
        <time>2022-10-20T10:39:33.000Z</time>
      </trkpt>
      <trkpt lat="45.07014" lon="2.69586">
        <ele>1388.63</ele>
        <time>2022-10-20T10:39:42.693Z</time>
      </trkpt>
      <trkpt lat="45.07019" lon="2.69578">
        <ele>1390.62</ele>
        <time>2022-10-20T10:39:53.000Z</time>
      </trkpt>
      <trkpt lat="45.07026" lon="2.69573">
        <ele>1389.88</ele>
        <time>2022-10-20T10:40:03.000Z</time>
      </trkpt>
      <trkpt lat="45.07032" lon="2.69563">
        <ele>1390.81</ele>
        <time>2022-10-20T10:40:12.452Z</time>
      </trkpt>
      <trkpt lat="45.07038" lon="2.69558">
        <ele>1391.88</ele>
        <time>2022-10-20T10:40:21.743Z</time>
      </trkpt>
      <trkpt lat="45.07045" lon="2.69556">
        <ele>1393.86</ele>
        <time>2022-10-20T10:40:30.853Z</time>
      </trkpt>
      <trkpt lat="45.07049" lon="2.69553">
        <ele>1396.87</ele>
        <time>2022-10-20T10:40:40.575Z</time>
      </trkpt>
      <trkpt lat="45.07057" lon="2.69549">
        <ele>1397.88</ele>
        <time>2022-10-20T10:40:50.131Z</time>
      </trkpt>
      <trkpt lat="45.07065" lon="2.69545">
        <ele>1399.89</ele>
        <time>2022-10-20T10:41:00.000Z</time>
      </trkpt>
      <trkpt lat="45.07076" lon="2.69542">
        <ele>1401.88</ele>
        <time>2022-10-20T10:41:10.000Z</time>
      </trkpt>
      <trkpt lat="45.07087" lon="2.69538">
        <ele>1402.88</ele>
        <time>2022-10-20T10:41:20.000Z</time>
      </trkpt>
      <trkpt lat="45.07096" lon="2.69535">
        <ele>1403.88</ele>
        <time>2022-10-20T10:41:29.032Z</time>
      </trkpt>
      <trkpt lat="45.07105" lon="2.6953">
        <ele>1403.88</ele>
        <time>2022-10-20T10:41:38.071Z</time>
      </trkpt>
      <trkpt lat="45.07115" lon="2.69525">
        <ele>1402.88</ele>
        <time>2022-10-20T10:41:47.130Z</time>
      </trkpt>
      <trkpt lat="45.07124" lon="2.69518">
        <ele>1400.94</ele>
        <time>2022-10-20T10:41:57.000Z</time>
      </trkpt>
      <trkpt lat="45.07135" lon="2.69513">
        <ele>1401.81</ele>
        <time>2022-10-20T10:42:06.121Z</time>
      </trkpt>
      <trkpt lat="45.07142" lon="2.69508">
        <ele>1401.88</ele>
        <time>2022-10-20T10:42:15.569Z</time>
      </trkpt>
      <trkpt lat="45.07149" lon="2.69504">
        <ele>1402.87</ele>
        <time>2022-10-20T10:42:25.000Z</time>
      </trkpt>
      <trkpt lat="45.07152" lon="2.69495">
        <ele>1404.62</ele>
        <time>2022-10-20T10:42:34.754Z</time>
      </trkpt>
      <trkpt lat="45.07156" lon="2.69485">
        <ele>1405.88</ele>
        <time>2022-10-20T10:42:44.000Z</time>
      </trkpt>
      <trkpt lat="45.07161" lon="2.69474">
        <ele>1408.69</ele>
        <time>2022-10-20T10:42:54.000Z</time>
      </trkpt>
      <trkpt lat="45.07166" lon="2.69466">
        <ele>1408.13</ele>
        <time>2022-10-20T10:43:03.650Z</time>
      </trkpt>
      <trkpt lat="45.07169" lon="2.69459">
        <ele>1407.88</ele>
        <time>2022-10-20T10:43:14.000Z</time>
      </trkpt>
      <trkpt lat="45.07173" lon="2.69453">
        <ele>1408.88</ele>
        <time>2022-10-20T10:43:25.000Z</time>
      </trkpt>
      <trkpt lat="45.07177" lon="2.69445">
        <ele>1409.81</ele>
        <time>2022-10-20T10:43:34.693Z</time>
      </trkpt>
      <trkpt lat="45.07178" lon="2.6944">
        <ele>1410.88</ele>
        <time>2022-10-20T10:43:44.000Z</time>
      </trkpt>
      <trkpt lat="45.07179" lon="2.69434">
        <ele>1412.88</ele>
        <time>2022-10-20T10:43:53.670Z</time>
      </trkpt>
      <trkpt lat="45.07181" lon="2.69427">
        <ele>1413.81</ele>
        <time>2022-10-20T10:44:03.052Z</time>
      </trkpt>
      <trkpt lat="45.07185" lon="2.69415">
        <ele>1413.88</ele>
        <time>2022-10-20T10:44:13.000Z</time>
      </trkpt>
      <trkpt lat="45.0719" lon="2.69404">
        <ele>1415.69</ele>
        <time>2022-10-20T10:44:22.512Z</time>
      </trkpt>
      <trkpt lat="45.07192" lon="2.69396">
        <ele>1418.62</ele>
        <time>2022-10-20T10:44:31.902Z</time>
      </trkpt>
      <trkpt lat="45.07192" lon="2.69392">
        <ele>1420.82</ele>
        <time>2022-10-20T10:44:42.000Z</time>
      </trkpt>
      <trkpt lat="45.07194" lon="2.69381">
        <ele>1420.88</ele>
        <time>2022-10-20T10:44:52.014Z</time>
      </trkpt>
      <trkpt lat="45.07194" lon="2.69372">
        <ele>1422.88</ele>
        <time>2022-10-20T10:45:01.790Z</time>
      </trkpt>
      <trkpt lat="45.07196" lon="2.69364">
        <ele>1424.81</ele>
        <time>2022-10-20T10:45:12.000Z</time>
      </trkpt>
      <trkpt lat="45.07197" lon="2.69358">
        <ele>1424.94</ele>
        <time>2022-10-20T10:45:21.470Z</time>
      </trkpt>
      <trkpt lat="45.07198" lon="2.69352">
        <ele>1425.82</ele>
        <time>2022-10-20T10:45:31.000Z</time>
      </trkpt>
      <trkpt lat="45.07201" lon="2.69343">
        <ele>1424.88</ele>
        <time>2022-10-20T10:45:40.435Z</time>
      </trkpt>
      <trkpt lat="45.07206" lon="2.69332">
        <ele>1425.88</ele>
        <time>2022-10-20T10:45:49.652Z</time>
      </trkpt>
      <trkpt lat="45.07208" lon="2.6932">
        <ele>1428.63</ele>
        <time>2022-10-20T10:45:59.000Z</time>
      </trkpt>
      <trkpt lat="45.07211" lon="2.69308">
        <ele>1429.87</ele>
        <time>2022-10-20T10:46:09.000Z</time>
      </trkpt>
      <trkpt lat="45.07216" lon="2.69292">
        <ele>1430.63</ele>
        <time>2022-10-20T10:46:18.330Z</time>
      </trkpt>
      <trkpt lat="45.07224" lon="2.69282">
        <ele>1431.82</ele>
        <time>2022-10-20T10:46:27.581Z</time>
      </trkpt>
      <trkpt lat="45.07228" lon="2.69268">
        <ele>1431.88</ele>
        <time>2022-10-20T10:46:36.932Z</time>
      </trkpt>
      <trkpt lat="45.07234" lon="2.69255">
        <ele>1430.63</ele>
        <time>2022-10-20T10:46:46.032Z</time>
      </trkpt>
      <trkpt lat="45.0724" lon="2.69241">
        <ele>1430.88</ele>
        <time>2022-10-20T10:46:55.602Z</time>
      </trkpt>
      <trkpt lat="45.07245" lon="2.6923">
        <ele>1431.88</ele>
        <time>2022-10-20T10:47:04.651Z</time>
      </trkpt>
      <trkpt lat="45.07249" lon="2.69218">
        <ele>1429.15</ele>
        <time>2022-10-20T10:47:13.661Z</time>
      </trkpt>
      <trkpt lat="45.07255" lon="2.69203">
        <ele>1428.88</ele>
        <time>2022-10-20T10:47:22.891Z</time>
      </trkpt>
      <trkpt lat="45.07259" lon="2.69194">
        <ele>1429.88</ele>
        <time>2022-10-20T10:47:32.000Z</time>
      </trkpt>
      <trkpt lat="45.07264" lon="2.69178">
        <ele>1427.88</ele>
        <time>2022-10-20T10:47:41.774Z</time>
      </trkpt>
      <trkpt lat="45.07268" lon="2.69167">
        <ele>1428.82</ele>
        <time>2022-10-20T10:47:52.000Z</time>
      </trkpt>
      <trkpt lat="45.07271" lon="2.69159">
        <ele>1429.88</ele>
        <time>2022-10-20T10:48:01.831Z</time>
      </trkpt>
      <trkpt lat="45.07272" lon="2.69151">
        <ele>1430.88</ele>
        <time>2022-10-20T10:48:11.000Z</time>
      </trkpt>
      <trkpt lat="45.07273" lon="2.69147">
        <ele>1432.63</ele>
        <time>2022-10-20T10:48:21.000Z</time>
      </trkpt>
      <trkpt lat="45.07276" lon="2.6914">
        <ele>1432.88</ele>
        <time>2022-10-20T10:48:31.000Z</time>
      </trkpt>
      <trkpt lat="45.07278" lon="2.69128">
        <ele>1433.63</ele>
        <time>2022-10-20T10:48:40.953Z</time>
      </trkpt>
      <trkpt lat="45.0728" lon="2.69121">
        <ele>1435.62</ele>
        <time>2022-10-20T10:48:50.000Z</time>
      </trkpt>
      <trkpt lat="45.07279" lon="2.69114">
        <ele>1439.82</ele>
        <time>2022-10-20T10:48:59.651Z</time>
      </trkpt>
      <trkpt lat="45.0728" lon="2.69106">
        <ele>1439.82</ele>
        <time>2022-10-20T10:49:09.000Z</time>
      </trkpt>
      <trkpt lat="45.07281" lon="2.69099">
        <ele>1442.85</ele>
        <time>2022-10-20T10:49:18.002Z</time>
      </trkpt>
      <trkpt lat="45.0728" lon="2.69092">
        <ele>1444.88</ele>
        <time>2022-10-20T10:49:28.000Z</time>
      </trkpt>
      <trkpt lat="45.07281" lon="2.69082">
        <ele>1445.63</ele>
        <time>2022-10-20T10:49:37.892Z</time>
      </trkpt>
      <trkpt lat="45.07282" lon="2.69074">
        <ele>1444.89</ele>
        <time>2022-10-20T10:49:47.000Z</time>
      </trkpt>
      <trkpt lat="45.07285" lon="2.69063">
        <ele>1443.88</ele>
        <time>2022-10-20T10:49:56.671Z</time>
      </trkpt>
      <trkpt lat="45.07289" lon="2.69057">
        <ele>1444.63</ele>
        <time>2022-10-20T10:50:06.472Z</time>
      </trkpt>
      <trkpt lat="45.07294" lon="2.69052">
        <ele>1445.82</ele>
        <time>2022-10-20T10:50:15.752Z</time>
      </trkpt>
      <trkpt lat="45.07298" lon="2.69046">
        <ele>1445.88</ele>
        <time>2022-10-20T10:50:24.981Z</time>
      </trkpt>
      <trkpt lat="45.073" lon="2.69042">
        <ele>1446.88</ele>
        <time>2022-10-20T10:50:34.000Z</time>
      </trkpt>
      <trkpt lat="45.07305" lon="2.69036">
        <ele>1451.63</ele>
        <time>2022-10-20T10:50:44.022Z</time>
      </trkpt>
      <trkpt lat="45.07308" lon="2.69033">
        <ele>1451.38</ele>
        <time>2022-10-20T10:50:54.000Z</time>
      </trkpt>
      <trkpt lat="45.0731" lon="2.69027">
        <ele>1452.88</ele>
        <time>2022-10-20T10:51:03.491Z</time>
      </trkpt>
      <trkpt lat="45.07314" lon="2.69021">
        <ele>1452.87</ele>
        <time>2022-10-20T10:51:12.752Z</time>
      </trkpt>
      <trkpt lat="45.07317" lon="2.69017">
        <ele>1452.88</ele>
        <time>2022-10-20T10:51:22.000Z</time>
      </trkpt>
      <trkpt lat="45.07319" lon="2.69014">
        <ele>1453.88</ele>
        <time>2022-10-20T10:51:31.833Z</time>
      </trkpt>
      <trkpt lat="45.07324" lon="2.69007">
        <ele>1454.87</ele>
        <time>2022-10-20T10:51:41.000Z</time>
      </trkpt>
      <trkpt lat="45.07328" lon="2.69003">
        <ele>1457.88</ele>
        <time>2022-10-20T10:51:51.000Z</time>
      </trkpt>
      <trkpt lat="45.07332" lon="2.68996">
        <ele>1459.63</ele>
        <time>2022-10-20T10:52:01.000Z</time>
      </trkpt>
      <trkpt lat="45.07336" lon="2.68993">
        <ele>1458.89</ele>
        <time>2022-10-20T10:52:10.854Z</time>
      </trkpt>
      <trkpt lat="45.07339" lon="2.6899">
        <ele>1458.88</ele>
        <time>2022-10-20T10:52:20.000Z</time>
      </trkpt>
      <trkpt lat="45.0734" lon="2.6899">
        <ele>1458.87</ele>
        <time>2022-10-20T10:52:29.113Z</time>
      </trkpt>
      <trkpt lat="45.07342" lon="2.6899">
        <ele>1460.87</ele>
        <time>2022-10-20T10:52:39.000Z</time>
      </trkpt>
      <trkpt lat="45.07345" lon="2.68988">
        <ele>1461.88</ele>
        <time>2022-10-20T10:52:50.000Z</time>
      </trkpt>
      <trkpt lat="45.07347" lon="2.68987">
        <ele>1463.88</ele>
        <time>2022-10-20T10:53:00.000Z</time>
      </trkpt>
      <trkpt lat="45.07348" lon="2.68986">
        <ele>1463.88</ele>
        <time>2022-10-20T10:53:15.000Z</time>
      </trkpt>
      <trkpt lat="45.07351" lon="2.68985">
        <ele>1464.88</ele>
        <time>2022-10-20T10:53:24.851Z</time>
      </trkpt>
      <trkpt lat="45.07351" lon="2.68983">
        <ele>1466.87</ele>
        <time>2022-10-20T10:53:34.000Z</time>
      </trkpt>
      <trkpt lat="45.07351" lon="2.68981">
        <ele>1466.88</ele>
        <time>2022-10-20T10:53:49.000Z</time>
      </trkpt>
      <trkpt lat="45.07352" lon="2.68981">
        <ele>1465.88</ele>
        <time>2022-10-20T10:54:02.000Z</time>
      </trkpt>
      <trkpt lat="45.07353" lon="2.68981">
        <ele>1464.89</ele>
        <time>2022-10-20T10:54:13.000Z</time>
      </trkpt>
      <trkpt lat="45.07352" lon="2.68979">
        <ele>1465.82</ele>
        <time>2022-10-20T10:54:24.000Z</time>
      </trkpt>
      <trkpt lat="45.07352" lon="2.68975">
        <ele>1468.88</ele>
        <time>2022-10-20T10:54:33.071Z</time>
      </trkpt>
      <trkpt lat="45.0735" lon="2.68969">
        <ele>1468.13</ele>
        <time>2022-10-20T10:54:43.000Z</time>
      </trkpt>
      <trkpt lat="45.07352" lon="2.68966">
        <ele>1467.88</ele>
        <time>2022-10-20T10:54:53.000Z</time>
      </trkpt>
      <trkpt lat="45.07352" lon="2.68965">
        <ele>1468.88</ele>
        <time>2022-10-20T10:55:38.000Z</time>
      </trkpt>
      <trkpt lat="45.07352" lon="2.68961">
        <ele>1469.88</ele>
        <time>2022-10-20T10:55:48.092Z</time>
      </trkpt>
      <trkpt lat="45.07351" lon="2.68958">
        <ele>1469.13</ele>
        <time>2022-10-20T10:55:58.013Z</time>
      </trkpt>
      <trkpt lat="45.07348" lon="2.68948">
        <ele>1469.63</ele>
        <time>2022-10-20T10:56:08.000Z</time>
      </trkpt>
      <trkpt lat="45.07349" lon="2.68943">
        <ele>1469.88</ele>
        <time>2022-10-20T10:56:17.912Z</time>
      </trkpt>
      <trkpt lat="45.07353" lon="2.68944">
        <ele>1470.88</ele>
        <time>2022-10-20T10:56:27.000Z</time>
      </trkpt>
      <trkpt lat="45.07356" lon="2.68949">
        <ele>1472.88</ele>
        <time>2022-10-20T10:56:37.000Z</time>
      </trkpt>
      <trkpt lat="45.07357" lon="2.68948">
        <ele>1474.88</ele>
        <time>2022-10-20T10:56:48.000Z</time>
      </trkpt>
      <trkpt lat="45.07359" lon="2.68945">
        <ele>1476.88</ele>
        <time>2022-10-20T10:56:58.000Z</time>
      </trkpt>
      <trkpt lat="45.0736" lon="2.68944">
        <ele>1477.87</ele>
        <time>2022-10-20T10:57:08.000Z</time>
      </trkpt>
      <trkpt lat="45.07361" lon="2.68943">
        <ele>1478.88</ele>
        <time>2022-10-20T10:57:17.933Z</time>
      </trkpt>
      <trkpt lat="45.07362" lon="2.68942">
        <ele>1480.63</ele>
        <time>2022-10-20T10:57:27.000Z</time>
      </trkpt>
      <trkpt lat="45.07366" lon="2.68943">
        <ele>1481.88</ele>
        <time>2022-10-20T10:57:37.112Z</time>
      </trkpt>
      <trkpt lat="45.07368" lon="2.68944">
        <ele>1481.88</ele>
        <time>2022-10-20T10:57:47.000Z</time>
      </trkpt>
      <trkpt lat="45.0737" lon="2.68945">
        <ele>1482.63</ele>
        <time>2022-10-20T10:58:03.991Z</time>
      </trkpt>
      <trkpt lat="45.07372" lon="2.68941">
        <ele>1483.87</ele>
        <time>2022-10-20T10:58:14.000Z</time>
      </trkpt>
      <trkpt lat="45.0737" lon="2.68936">
        <ele>1484.88</ele>
        <time>2022-10-20T10:58:23.814Z</time>
      </trkpt>
      <trkpt lat="45.07372" lon="2.68931">
        <ele>1485.64</ele>
        <time>2022-10-20T10:58:33.774Z</time>
      </trkpt>
      <trkpt lat="45.07376" lon="2.68929">
        <ele>1486.88</ele>
        <time>2022-10-20T10:58:43.000Z</time>
      </trkpt>
      <trkpt lat="45.07379" lon="2.68922">
        <ele>1487.87</ele>
        <time>2022-10-20T10:58:53.000Z</time>
      </trkpt>
      <trkpt lat="45.07379" lon="2.68914">
        <ele>1488.88</ele>
        <time>2022-10-20T10:59:04.000Z</time>
      </trkpt>
      <trkpt lat="45.07379" lon="2.68906">
        <ele>1490.87</ele>
        <time>2022-10-20T10:59:14.000Z</time>
      </trkpt>
      <trkpt lat="45.07377" lon="2.68902">
        <ele>1491.87</ele>
        <time>2022-10-20T10:59:24.000Z</time>
      </trkpt>
      <trkpt lat="45.07378" lon="2.68903">
        <ele>1491.87</ele>
        <time>2022-10-20T10:59:34.000Z</time>
      </trkpt>
      <trkpt lat="45.07377" lon="2.68904">
        <ele>1491.89</ele>
        <time>2022-10-20T10:59:54.481Z</time>
      </trkpt>
      <trkpt lat="45.07376" lon="2.68906">
        <ele>1492.88</ele>
        <time>2022-10-20T11:11:06.000Z</time>
      </trkpt>
      <trkpt lat="45.07377" lon="2.68907">
        <ele>1490.95</ele>
        <time>2022-10-20T11:11:27.650Z</time>
      </trkpt>
      <trkpt lat="45.07379" lon="2.68911">
        <ele>1491.14</ele>
        <time>2022-10-20T11:11:38.000Z</time>
      </trkpt>
      <trkpt lat="45.07378" lon="2.6892">
        <ele>1489.14</ele>
        <time>2022-10-20T11:11:47.874Z</time>
      </trkpt>
      <trkpt lat="45.07377" lon="2.68923">
        <ele>1487.89</ele>
        <time>2022-10-20T11:11:58.000Z</time>
      </trkpt>
      <trkpt lat="45.07374" lon="2.68931">
        <ele>1486.64</ele>
        <time>2022-10-20T11:12:09.000Z</time>
      </trkpt>
      <trkpt lat="45.07371" lon="2.68935">
        <ele>1485.88</ele>
        <time>2022-10-20T11:12:18.132Z</time>
      </trkpt>
      <trkpt lat="45.07368" lon="2.68936">
        <ele>1484.89</ele>
        <time>2022-10-20T11:12:27.811Z</time>
      </trkpt>
      <trkpt lat="45.07369" lon="2.6894">
        <ele>1483.88</ele>
        <time>2022-10-20T11:12:37.000Z</time>
      </trkpt>
      <trkpt lat="45.07371" lon="2.68946">
        <ele>1482.13</ele>
        <time>2022-10-20T11:12:46.161Z</time>
      </trkpt>
      <trkpt lat="45.0737" lon="2.68948">
        <ele>1480.13</ele>
        <time>2022-10-20T11:12:56.000Z</time>
      </trkpt>
      <trkpt lat="45.07367" lon="2.68952">
        <ele>1478.88</ele>
        <time>2022-10-20T11:13:06.000Z</time>
      </trkpt>
      <trkpt lat="45.07369" lon="2.68954">
        <ele>1477.88</ele>
        <time>2022-10-20T11:13:15.072Z</time>
      </trkpt>
      <trkpt lat="45.07366" lon="2.68956">
        <ele>1476.88</ele>
        <time>2022-10-20T11:13:24.074Z</time>
      </trkpt>
      <trkpt lat="45.07364" lon="2.68956">
        <ele>1474.13</ele>
        <time>2022-10-20T11:13:34.000Z</time>
      </trkpt>
      <trkpt lat="45.07364" lon="2.68957">
        <ele>1474.87</ele>
        <time>2022-10-20T11:13:44.000Z</time>
      </trkpt>
      <trkpt lat="45.07365" lon="2.6896">
        <ele>1473.88</ele>
        <time>2022-10-20T11:13:54.000Z</time>
      </trkpt>
      <trkpt lat="45.07364" lon="2.68963">
        <ele>1472.89</ele>
        <time>2022-10-20T11:14:04.000Z</time>
      </trkpt>
      <trkpt lat="45.07365" lon="2.68966">
        <ele>1471.65</ele>
        <time>2022-10-20T11:14:14.000Z</time>
      </trkpt>
      <trkpt lat="45.07365" lon="2.68972">
        <ele>1470.88</ele>
        <time>2022-10-20T11:14:24.000Z</time>
      </trkpt>
      <trkpt lat="45.07366" lon="2.68972">
        <ele>1469.9</ele>
        <time>2022-10-20T11:14:36.020Z</time>
      </trkpt>
      <trkpt lat="45.07366" lon="2.68974">
        <ele>1467.9</ele>
        <time>2022-10-20T11:14:49.912Z</time>
      </trkpt>
      <trkpt lat="45.07366" lon="2.68975">
        <ele>1466.89</ele>
        <time>2022-10-20T11:14:59.000Z</time>
      </trkpt>
      <trkpt lat="45.07366" lon="2.68977">
        <ele>1464.88</ele>
        <time>2022-10-20T11:15:08.795Z</time>
      </trkpt>
      <trkpt lat="45.07365" lon="2.68979">
        <ele>1464.13</ele>
        <time>2022-10-20T11:15:18.000Z</time>
      </trkpt>
      <trkpt lat="45.07365" lon="2.68981">
        <ele>1463.15</ele>
        <time>2022-10-20T11:15:27.033Z</time>
      </trkpt>
      <trkpt lat="45.07363" lon="2.68981">
        <ele>1461.88</ele>
        <time>2022-10-20T11:15:37.000Z</time>
      </trkpt>
      <trkpt lat="45.07361" lon="2.68981">
        <ele>1460.95</ele>
        <time>2022-10-20T11:15:47.000Z</time>
      </trkpt>
      <trkpt lat="45.07357" lon="2.68981">
        <ele>1461.88</ele>
        <time>2022-10-20T11:15:57.000Z</time>
      </trkpt>
      <trkpt lat="45.07355" lon="2.68981">
        <ele>1461.88</ele>
        <time>2022-10-20T11:16:07.000Z</time>
      </trkpt>
      <trkpt lat="45.07354" lon="2.68982">
        <ele>1460.89</ele>
        <time>2022-10-20T11:16:19.000Z</time>
      </trkpt>
      <trkpt lat="45.07353" lon="2.68983">
        <ele>1459.89</ele>
        <time>2022-10-20T11:16:29.000Z</time>
      </trkpt>
      <trkpt lat="45.07353" lon="2.68985">
        <ele>1458.88</ele>
        <time>2022-10-20T11:16:39.000Z</time>
      </trkpt>
      <trkpt lat="45.07352" lon="2.68986">
        <ele>1458.88</ele>
        <time>2022-10-20T11:16:50.000Z</time>
      </trkpt>
      <trkpt lat="45.07352" lon="2.68987">
        <ele>1456.88</ele>
        <time>2022-10-20T11:17:05.000Z</time>
      </trkpt>
      <trkpt lat="45.0735" lon="2.68989">
        <ele>1455.88</ele>
        <time>2022-10-20T11:17:14.391Z</time>
      </trkpt>
      <trkpt lat="45.07349" lon="2.68992">
        <ele>1455.88</ele>
        <time>2022-10-20T11:17:24.162Z</time>
      </trkpt>
      <trkpt lat="45.07345" lon="2.68993">
        <ele>1453.88</ele>
        <time>2022-10-20T11:17:34.000Z</time>
      </trkpt>
      <trkpt lat="45.07342" lon="2.68995">
        <ele>1453.88</ele>
        <time>2022-10-20T11:17:44.000Z</time>
      </trkpt>
      <trkpt lat="45.07336" lon="2.69002">
        <ele>1452.88</ele>
        <time>2022-10-20T11:17:53.994Z</time>
      </trkpt>
      <trkpt lat="45.0733" lon="2.69007">
        <ele>1452.89</ele>
        <time>2022-10-20T11:18:03.550Z</time>
      </trkpt>
      <trkpt lat="45.07324" lon="2.69012">
        <ele>1450.95</ele>
        <time>2022-10-20T11:18:12.751Z</time>
      </trkpt>
      <trkpt lat="45.07321" lon="2.69017">
        <ele>1450.01</ele>
        <time>2022-10-20T11:18:21.933Z</time>
      </trkpt>
      <trkpt lat="45.07317" lon="2.69023">
        <ele>1447.88</ele>
        <time>2022-10-20T11:18:31.392Z</time>
      </trkpt>
      <trkpt lat="45.07313" lon="2.69027">
        <ele>1447.88</ele>
        <time>2022-10-20T11:18:40.620Z</time>
      </trkpt>
      <trkpt lat="45.07309" lon="2.69036">
        <ele>1447.88</ele>
        <time>2022-10-20T11:18:51.000Z</time>
      </trkpt>
      <trkpt lat="45.07304" lon="2.69043">
        <ele>1444.87</ele>
        <time>2022-10-20T11:19:01.000Z</time>
      </trkpt>
      <trkpt lat="45.07301" lon="2.69052">
        <ele>1439.91</ele>
        <time>2022-10-20T11:19:10.553Z</time>
      </trkpt>
      <trkpt lat="45.07293" lon="2.6906">
        <ele>1438.89</ele>
        <time>2022-10-20T11:19:20.000Z</time>
      </trkpt>
      <trkpt lat="45.07285" lon="2.69074">
        <ele>1438.88</ele>
        <time>2022-10-20T11:19:29.358Z</time>
      </trkpt>
      <trkpt lat="45.07283" lon="2.6908">
        <ele>1436.41</ele>
        <time>2022-10-20T11:19:39.000Z</time>
      </trkpt>
      <trkpt lat="45.07285" lon="2.69087">
        <ele>1435.88</ele>
        <time>2022-10-20T11:19:49.000Z</time>
      </trkpt>
      <trkpt lat="45.07285" lon="2.69092">
        <ele>1436.63</ele>
        <time>2022-10-20T11:19:59.000Z</time>
      </trkpt>
      <trkpt lat="45.07283" lon="2.69101">
        <ele>1435.88</ele>
        <time>2022-10-20T11:20:08.112Z</time>
      </trkpt>
      <trkpt lat="45.07282" lon="2.69108">
        <ele>1433.01</ele>
        <time>2022-10-20T11:20:18.000Z</time>
      </trkpt>
      <trkpt lat="45.07283" lon="2.69112">
        <ele>1431.9</ele>
        <time>2022-10-20T11:20:28.000Z</time>
      </trkpt>
      <trkpt lat="45.07284" lon="2.69114">
        <ele>1430.38</ele>
        <time>2022-10-20T11:20:43.000Z</time>
      </trkpt>
      <trkpt lat="45.07284" lon="2.69116">
        <ele>1428.89</ele>
        <time>2022-10-20T11:20:52.852Z</time>
      </trkpt>
      <trkpt lat="45.07283" lon="2.69125">
        <ele>1428.88</ele>
        <time>2022-10-20T11:21:02.000Z</time>
      </trkpt>
      <trkpt lat="45.0728" lon="2.69133">
        <ele>1428.88</ele>
        <time>2022-10-20T11:21:11.116Z</time>
      </trkpt>
      <trkpt lat="45.07277" lon="2.6914">
        <ele>1427.13</ele>
        <time>2022-10-20T11:21:22.000Z</time>
      </trkpt>
      <trkpt lat="45.07276" lon="2.69146">
        <ele>1424.9</ele>
        <time>2022-10-20T11:21:31.291Z</time>
      </trkpt>
      <trkpt lat="45.07273" lon="2.69156">
        <ele>1424.63</ele>
        <time>2022-10-20T11:21:41.055Z</time>
      </trkpt>
      <trkpt lat="45.0727" lon="2.69169">
        <ele>1424.88</ele>
        <time>2022-10-20T11:21:51.012Z</time>
      </trkpt>
      <trkpt lat="45.07266" lon="2.69183">
        <ele>1422.88</ele>
        <time>2022-10-20T11:22:00.621Z</time>
      </trkpt>
      <trkpt lat="45.07262" lon="2.69193">
        <ele>1421.88</ele>
        <time>2022-10-20T11:22:10.000Z</time>
      </trkpt>
      <trkpt lat="45.07258" lon="2.69207">
        <ele>1420.87</ele>
        <time>2022-10-20T11:22:19.871Z</time>
      </trkpt>
      <trkpt lat="45.07253" lon="2.69216">
        <ele>1421.62</ele>
        <time>2022-10-20T11:22:28.913Z</time>
      </trkpt>
      <trkpt lat="45.07249" lon="2.69228">
        <ele>1421.07</ele>
        <time>2022-10-20T11:22:38.162Z</time>
      </trkpt>
      <trkpt lat="45.07244" lon="2.6924">
        <ele>1422.88</ele>
        <time>2022-10-20T11:22:47.393Z</time>
      </trkpt>
      <trkpt lat="45.0724" lon="2.69252">
        <ele>1421.88</ele>
        <time>2022-10-20T11:22:58.000Z</time>
      </trkpt>
      <trkpt lat="45.07233" lon="2.69265">
        <ele>1421.88</ele>
        <time>2022-10-20T11:23:07.462Z</time>
      </trkpt>
      <trkpt lat="45.0723" lon="2.69271">
        <ele>1423.63</ele>
        <time>2022-10-20T11:23:17.000Z</time>
      </trkpt>
      <trkpt lat="45.07229" lon="2.69273">
        <ele>1423.88</ele>
        <time>2022-10-20T11:23:27.000Z</time>
      </trkpt>
      <trkpt lat="45.07226" lon="2.69279">
        <ele>1423.88</ele>
        <time>2022-10-20T11:23:37.141Z</time>
      </trkpt>
      <trkpt lat="45.07221" lon="2.69288">
        <ele>1422.88</ele>
        <time>2022-10-20T11:23:46.632Z</time>
      </trkpt>
      <trkpt lat="45.07217" lon="2.69299">
        <ele>1422.88</ele>
        <time>2022-10-20T11:23:56.141Z</time>
      </trkpt>
      <trkpt lat="45.07213" lon="2.69311">
        <ele>1424.13</ele>
        <time>2022-10-20T11:24:05.441Z</time>
      </trkpt>
      <trkpt lat="45.07208" lon="2.69325">
        <ele>1423.88</ele>
        <time>2022-10-20T11:24:15.000Z</time>
      </trkpt>
      <trkpt lat="45.07205" lon="2.69337">
        <ele>1421.13</ele>
        <time>2022-10-20T11:24:25.000Z</time>
      </trkpt>
      <trkpt lat="45.07203" lon="2.69342">
        <ele>1418.88</ele>
        <time>2022-10-20T11:24:35.000Z</time>
      </trkpt>
      <trkpt lat="45.07202" lon="2.69351">
        <ele>1417.88</ele>
        <time>2022-10-20T11:24:44.882Z</time>
      </trkpt>
      <trkpt lat="45.07201" lon="2.69358">
        <ele>1415.13</ele>
        <time>2022-10-20T11:24:54.000Z</time>
      </trkpt>
      <trkpt lat="45.07198" lon="2.69371">
        <ele>1415.89</ele>
        <time>2022-10-20T11:25:03.952Z</time>
      </trkpt>
      <trkpt lat="45.07197" lon="2.69377">
        <ele>1415.82</ele>
        <time>2022-10-20T11:25:13.000Z</time>
      </trkpt>
      <trkpt lat="45.07196" lon="2.69389">
        <ele>1414.88</ele>
        <time>2022-10-20T11:25:22.093Z</time>
      </trkpt>
      <trkpt lat="45.07192" lon="2.69403">
        <ele>1413.89</ele>
        <time>2022-10-20T11:25:31.613Z</time>
      </trkpt>
      <trkpt lat="45.07187" lon="2.69416">
        <ele>1412.13</ele>
        <time>2022-10-20T11:25:40.622Z</time>
      </trkpt>
      <trkpt lat="45.07184" lon="2.69428">
        <ele>1407.94</ele>
        <time>2022-10-20T11:25:50.000Z</time>
      </trkpt>
      <trkpt lat="45.07182" lon="2.69434">
        <ele>1406.88</ele>
        <time>2022-10-20T11:25:59.251Z</time>
      </trkpt>
      <trkpt lat="45.0718" lon="2.69442">
        <ele>1403.11</ele>
        <time>2022-10-20T11:26:09.000Z</time>
      </trkpt>
      <trkpt lat="45.07177" lon="2.69451">
        <ele>1402.94</ele>
        <time>2022-10-20T11:26:19.012Z</time>
      </trkpt>
      <trkpt lat="45.07173" lon="2.6946">
        <ele>1402.13</ele>
        <time>2022-10-20T11:26:28.632Z</time>
      </trkpt>
      <trkpt lat="45.07167" lon="2.69469">
        <ele>1399.94</ele>
        <time>2022-10-20T11:26:37.852Z</time>
      </trkpt>
      <trkpt lat="45.07161" lon="2.6948">
        <ele>1400.63</ele>
        <time>2022-10-20T11:26:47.143Z</time>
      </trkpt>
      <trkpt lat="45.07157" lon="2.6949">
        <ele>1400.11</ele>
        <time>2022-10-20T11:26:56.640Z</time>
      </trkpt>
      <trkpt lat="45.07154" lon="2.69498">
        <ele>1397.94</ele>
        <time>2022-10-20T11:27:06.000Z</time>
      </trkpt>
      <trkpt lat="45.07153" lon="2.69502">
        <ele>1397.88</ele>
        <time>2022-10-20T11:27:15.616Z</time>
      </trkpt>
      <trkpt lat="45.07155" lon="2.69513">
        <ele>1397.88</ele>
        <time>2022-10-20T11:27:24.632Z</time>
      </trkpt>
      <trkpt lat="45.07155" lon="2.69528">
        <ele>1398.88</ele>
        <time>2022-10-20T11:27:33.871Z</time>
      </trkpt>
      <trkpt lat="45.07159" lon="2.69542">
        <ele>1398.88</ele>
        <time>2022-10-20T11:27:44.000Z</time>
      </trkpt>
      <trkpt lat="45.07164" lon="2.69556">
        <ele>1397.88</ele>
        <time>2022-10-20T11:27:53.491Z</time>
      </trkpt>
      <trkpt lat="45.07166" lon="2.69572">
        <ele>1399.87</ele>
        <time>2022-10-20T11:28:02.953Z</time>
      </trkpt>
      <trkpt lat="45.07168" lon="2.69586">
        <ele>1402.62</ele>
        <time>2022-10-20T11:28:13.032Z</time>
      </trkpt>
      <trkpt lat="45.07172" lon="2.696">
        <ele>1402.62</ele>
        <time>2022-10-20T11:28:22.640Z</time>
      </trkpt>
      <trkpt lat="45.07175" lon="2.69613">
        <ele>1405.81</ele>
        <time>2022-10-20T11:28:32.121Z</time>
      </trkpt>
      <trkpt lat="45.07177" lon="2.69625">
        <ele>1404.87</ele>
        <time>2022-10-20T11:28:41.552Z</time>
      </trkpt>
      <trkpt lat="45.07181" lon="2.6964">
        <ele>1405.88</ele>
        <time>2022-10-20T11:28:50.974Z</time>
      </trkpt>
      <trkpt lat="45.07184" lon="2.69652">
        <ele>1403.87</ele>
        <time>2022-10-20T11:29:00.000Z</time>
      </trkpt>
      <trkpt lat="45.07189" lon="2.69667">
        <ele>1403.88</ele>
        <time>2022-10-20T11:29:09.052Z</time>
      </trkpt>
      <trkpt lat="45.07192" lon="2.69681">
        <ele>1401.89</ele>
        <time>2022-10-20T11:29:18.123Z</time>
      </trkpt>
      <trkpt lat="45.07197" lon="2.69694">
        <ele>1400.88</ele>
        <time>2022-10-20T11:29:28.000Z</time>
      </trkpt>
      <trkpt lat="45.07201" lon="2.69705">
        <ele>1399.87</ele>
        <time>2022-10-20T11:29:38.000Z</time>
      </trkpt>
      <trkpt lat="45.07208" lon="2.69718">
        <ele>1398.14</ele>
        <time>2022-10-20T11:29:47.605Z</time>
      </trkpt>
      <trkpt lat="45.07214" lon="2.69726">
        <ele>1395.88</ele>
        <time>2022-10-20T11:29:56.830Z</time>
      </trkpt>
      <trkpt lat="45.07223" lon="2.69736">
        <ele>1394.87</ele>
        <time>2022-10-20T11:30:07.000Z</time>
      </trkpt>
      <trkpt lat="45.07231" lon="2.69741">
        <ele>1394.88</ele>
        <time>2022-10-20T11:30:16.652Z</time>
      </trkpt>
      <trkpt lat="45.07239" lon="2.69749">
        <ele>1396.87</ele>
        <time>2022-10-20T11:30:27.000Z</time>
      </trkpt>
      <trkpt lat="45.07248" lon="2.69757">
        <ele>1396.88</ele>
        <time>2022-10-20T11:30:36.622Z</time>
      </trkpt>
      <trkpt lat="45.07254" lon="2.6976">
        <ele>1397.06</ele>
        <time>2022-10-20T11:30:47.000Z</time>
      </trkpt>
      <trkpt lat="45.07261" lon="2.69769">
        <ele>1397.64</ele>
        <time>2022-10-20T11:30:56.872Z</time>
      </trkpt>
      <trkpt lat="45.07265" lon="2.69773">
        <ele>1399.87</ele>
        <time>2022-10-20T11:31:05.890Z</time>
      </trkpt>
      <trkpt lat="45.07273" lon="2.69779">
        <ele>1399.87</ele>
        <time>2022-10-20T11:31:15.000Z</time>
      </trkpt>
      <trkpt lat="45.07279" lon="2.69785">
        <ele>1398.87</ele>
        <time>2022-10-20T11:31:25.000Z</time>
      </trkpt>
      <trkpt lat="45.07282" lon="2.69787">
        <ele>1397.81</ele>
        <time>2022-10-20T11:31:35.000Z</time>
      </trkpt>
      <trkpt lat="45.07291" lon="2.69793">
        <ele>1400.87</ele>
        <time>2022-10-20T11:31:44.111Z</time>
      </trkpt>
      <trkpt lat="45.07298" lon="2.69802">
        <ele>1401.81</ele>
        <time>2022-10-20T11:31:55.000Z</time>
      </trkpt>
      <trkpt lat="45.07306" lon="2.69806">
        <ele>1401.87</ele>
        <time>2022-10-20T11:32:04.293Z</time>
      </trkpt>
      <trkpt lat="45.07315" lon="2.69808">
        <ele>1402.87</ele>
        <time>2022-10-20T11:32:13.606Z</time>
      </trkpt>
      <trkpt lat="45.07323" lon="2.69807">
        <ele>1401.87</ele>
        <time>2022-10-20T11:32:24.000Z</time>
      </trkpt>
      <trkpt lat="45.07324" lon="2.69808">
        <ele>1401.87</ele>
        <time>2022-10-20T11:32:34.000Z</time>
      </trkpt>
      <trkpt lat="45.07328" lon="2.69803">
        <ele>1400.87</ele>
        <time>2022-10-20T11:32:43.753Z</time>
      </trkpt>
      <trkpt lat="45.07333" lon="2.69794">
        <ele>1402.56</ele>
        <time>2022-10-20T11:32:53.000Z</time>
      </trkpt>
      <trkpt lat="45.07338" lon="2.69786">
        <ele>1404.85</ele>
        <time>2022-10-20T11:33:03.000Z</time>
      </trkpt>
      <trkpt lat="45.07345" lon="2.69778">
        <ele>1404.93</ele>
        <time>2022-10-20T11:33:13.000Z</time>
      </trkpt>
      <trkpt lat="45.0735" lon="2.69769">
        <ele>1405.06</ele>
        <time>2022-10-20T11:33:23.000Z</time>
      </trkpt>
      <trkpt lat="45.07356" lon="2.69758">
        <ele>1405.87</ele>
        <time>2022-10-20T11:33:33.000Z</time>
      </trkpt>
      <trkpt lat="45.07361" lon="2.69752">
        <ele>1405.87</ele>
        <time>2022-10-20T11:33:43.000Z</time>
      </trkpt>
      <trkpt lat="45.07369" lon="2.69746">
        <ele>1406.93</ele>
        <time>2022-10-20T11:33:52.618Z</time>
      </trkpt>
      <trkpt lat="45.07378" lon="2.69744">
        <ele>1406.87</ele>
        <time>2022-10-20T11:34:01.894Z</time>
      </trkpt>
      <trkpt lat="45.07385" lon="2.69741">
        <ele>1408.81</ele>
        <time>2022-10-20T11:34:11.000Z</time>
      </trkpt>
      <trkpt lat="45.07391" lon="2.69739">
        <ele>1409.87</ele>
        <time>2022-10-20T11:34:21.000Z</time>
      </trkpt>
      <trkpt lat="45.07399" lon="2.69734">
        <ele>1412.62</ele>
        <time>2022-10-20T11:34:31.000Z</time>
      </trkpt>
      <trkpt lat="45.0741" lon="2.6973">
        <ele>1415.62</ele>
        <time>2022-10-20T11:34:40.851Z</time>
      </trkpt>
      <trkpt lat="45.07418" lon="2.69724">
        <ele>1415.87</ele>
        <time>2022-10-20T11:34:51.000Z</time>
      </trkpt>
      <trkpt lat="45.07427" lon="2.69715">
        <ele>1415.62</ele>
        <time>2022-10-20T11:35:00.772Z</time>
      </trkpt>
      <trkpt lat="45.07436" lon="2.69709">
        <ele>1413.87</ele>
        <time>2022-10-20T11:35:11.000Z</time>
      </trkpt>
      <trkpt lat="45.0744" lon="2.69712">
        <ele>1410.88</ele>
        <time>2022-10-20T11:35:21.000Z</time>
      </trkpt>
      <trkpt lat="45.07441" lon="2.69713">
        <ele>1407.87</ele>
        <time>2022-10-20T11:35:32.000Z</time>
      </trkpt>
      <trkpt lat="45.07442" lon="2.69714">
        <ele>1407.87</ele>
        <time>2022-10-20T11:38:05.000Z</time>
      </trkpt>
      <trkpt lat="45.07442" lon="2.69712">
        <ele>1408.87</ele>
        <time>2022-10-20T11:38:28.833Z</time>
      </trkpt>
      <trkpt lat="45.07437" lon="2.69702">
        <ele>1406.87</ele>
        <time>2022-10-20T11:38:38.000Z</time>
      </trkpt>
      <trkpt lat="45.07438" lon="2.69694">
        <ele>1404.12</ele>
        <time>2022-10-20T11:38:48.000Z</time>
      </trkpt>
      <trkpt lat="45.07441" lon="2.69682">
        <ele>1403.87</ele>
        <time>2022-10-20T11:38:58.000Z</time>
      </trkpt>
      <trkpt lat="45.07441" lon="2.69679">
        <ele>1402.88</ele>
        <time>2022-10-20T11:39:08.000Z</time>
      </trkpt>
      <trkpt lat="45.07442" lon="2.6968">
        <ele>1401.87</ele>
        <time>2022-10-20T11:39:18.000Z</time>
      </trkpt>
      <trkpt lat="45.07441" lon="2.6968">
        <ele>1401.87</ele>
        <time>2022-10-20T11:40:03.000Z</time>
      </trkpt>
      <trkpt lat="45.07441" lon="2.69679">
        <ele>1401.87</ele>
        <time>2022-10-20T11:40:56.000Z</time>
      </trkpt>
      <trkpt lat="45.07441" lon="2.69679">
        <ele>1401.87</ele>
        <time>2022-10-20T11:41:01.000Z</time>
      </trkpt>
      <trkpt lat="45.07441" lon="2.6968">
        <ele>1401.87</ele>
        <time>2022-10-20T11:43:30.000Z</time>
      </trkpt>
      <trkpt lat="45.07442" lon="2.6968">
        <ele>1401.87</ele>
        <time>2022-10-20T11:54:43.000Z</time>
      </trkpt>
      <trkpt lat="45.07442" lon="2.69683">
        <ele>1404.86</ele>
        <time>2022-10-20T11:55:14.771Z</time>
      </trkpt>
      <trkpt lat="45.07441" lon="2.69692">
        <ele>1405.81</ele>
        <time>2022-10-20T11:55:24.000Z</time>
      </trkpt>
      <trkpt lat="45.0744" lon="2.69701">
        <ele>1406.87</ele>
        <time>2022-10-20T11:55:34.000Z</time>
      </trkpt>
      <trkpt lat="45.07443" lon="2.69713">
        <ele>1407.86</ele>
        <time>2022-10-20T11:55:44.092Z</time>
      </trkpt>
      <trkpt lat="45.0745" lon="2.69724">
        <ele>1407.87</ele>
        <time>2022-10-20T11:55:53.951Z</time>
      </trkpt>
      <trkpt lat="45.07456" lon="2.69734">
        <ele>1408.87</ele>
        <time>2022-10-20T11:56:04.000Z</time>
      </trkpt>
      <trkpt lat="45.0746" lon="2.69747">
        <ele>1410.6</ele>
        <time>2022-10-20T11:56:13.034Z</time>
      </trkpt>
      <trkpt lat="45.0746" lon="2.69755">
        <ele>1411.87</ele>
        <time>2022-10-20T11:56:22.552Z</time>
      </trkpt>
      <trkpt lat="45.07463" lon="2.69771">
        <ele>1413.87</ele>
        <time>2022-10-20T11:56:31.756Z</time>
      </trkpt>
      <trkpt lat="45.07464" lon="2.69781">
        <ele>1413.62</ele>
        <time>2022-10-20T11:56:41.000Z</time>
      </trkpt>
      <trkpt lat="45.07468" lon="2.69798">
        <ele>1413.85</ele>
        <time>2022-10-20T11:56:50.551Z</time>
      </trkpt>
      <trkpt lat="45.07469" lon="2.69805">
        <ele>1412.87</ele>
        <time>2022-10-20T11:57:00.000Z</time>
      </trkpt>
      <trkpt lat="45.07472" lon="2.69818">
        <ele>1414.85</ele>
        <time>2022-10-20T11:57:09.513Z</time>
      </trkpt>
      <trkpt lat="45.07476" lon="2.69835">
        <ele>1413.87</ele>
        <time>2022-10-20T11:57:18.607Z</time>
      </trkpt>
      <trkpt lat="45.07478" lon="2.69847">
        <ele>1413.62</ele>
        <time>2022-10-20T11:57:28.000Z</time>
      </trkpt>
      <trkpt lat="45.07481" lon="2.69862">
        <ele>1411.12</ele>
        <time>2022-10-20T11:57:38.000Z</time>
      </trkpt>
      <trkpt lat="45.07483" lon="2.69876">
        <ele>1408.87</ele>
        <time>2022-10-20T11:57:47.073Z</time>
      </trkpt>
      <trkpt lat="45.07484" lon="2.69886">
        <ele>1405.13</ele>
        <time>2022-10-20T11:57:57.000Z</time>
      </trkpt>
      <trkpt lat="45.07483" lon="2.69896">
        <ele>1407.79</ele>
        <time>2022-10-20T11:58:07.000Z</time>
      </trkpt>
      <trkpt lat="45.07482" lon="2.69909">
        <ele>1408.81</ele>
        <time>2022-10-20T11:58:16.053Z</time>
      </trkpt>
      <trkpt lat="45.07482" lon="2.6992">
        <ele>1406.87</ele>
        <time>2022-10-20T11:58:25.622Z</time>
      </trkpt>
      <trkpt lat="45.0748" lon="2.69929">
        <ele>1405.87</ele>
        <time>2022-10-20T11:58:35.010Z</time>
      </trkpt>
      <trkpt lat="45.0748" lon="2.69944">
        <ele>1405.87</ele>
        <time>2022-10-20T11:58:45.000Z</time>
      </trkpt>
      <trkpt lat="45.07485" lon="2.69961">
        <ele>1400.13</ele>
        <time>2022-10-20T11:58:54.608Z</time>
      </trkpt>
      <trkpt lat="45.07488" lon="2.69968">
        <ele>1397.87</ele>
        <time>2022-10-20T11:59:04.000Z</time>
      </trkpt>
      <trkpt lat="45.07494" lon="2.6997">
        <ele>1396.94</ele>
        <time>2022-10-20T11:59:14.000Z</time>
      </trkpt>
      <trkpt lat="45.075" lon="2.69973">
        <ele>1395.86</ele>
        <time>2022-10-20T11:59:23.622Z</time>
      </trkpt>
      <trkpt lat="45.07504" lon="2.69978">
        <ele>1392.87</ele>
        <time>2022-10-20T11:59:32.971Z</time>
      </trkpt>
      <trkpt lat="45.07508" lon="2.69986">
        <ele>1391.87</ele>
        <time>2022-10-20T11:59:42.660Z</time>
      </trkpt>
      <trkpt lat="45.07512" lon="2.69991">
        <ele>1393.87</ele>
        <time>2022-10-20T11:59:51.833Z</time>
      </trkpt>
      <trkpt lat="45.07515" lon="2.69997">
        <ele>1396.63</ele>
        <time>2022-10-20T12:00:01.000Z</time>
      </trkpt>
      <trkpt lat="45.07517" lon="2.70003">
        <ele>1397.92</ele>
        <time>2022-10-20T12:00:10.572Z</time>
      </trkpt>
      <trkpt lat="45.0752" lon="2.70011">
        <ele>1399.55</ele>
        <time>2022-10-20T12:00:19.771Z</time>
      </trkpt>
      <trkpt lat="45.07522" lon="2.70016">
        <ele>1402.85</ele>
        <time>2022-10-20T12:00:28.932Z</time>
      </trkpt>
      <trkpt lat="45.07525" lon="2.70021">
        <ele>1402.62</ele>
        <time>2022-10-20T12:00:38.000Z</time>
      </trkpt>
      <trkpt lat="45.07525" lon="2.70024">
        <ele>1403.87</ele>
        <time>2022-10-20T12:00:48.000Z</time>
      </trkpt>
      <trkpt lat="45.07524" lon="2.70025">
        <ele>1404.8</ele>
        <time>2022-10-20T12:01:11.000Z</time>
      </trkpt>
      <trkpt lat="45.07525" lon="2.7003">
        <ele>1406.86</ele>
        <time>2022-10-20T12:01:20.954Z</time>
      </trkpt>
      <trkpt lat="45.07527" lon="2.70036">
        <ele>1406.93</ele>
        <time>2022-10-20T12:01:30.000Z</time>
      </trkpt>
      <trkpt lat="45.07533" lon="2.70051">
        <ele>1407.8</ele>
        <time>2022-10-20T12:01:39.130Z</time>
      </trkpt>
      <trkpt lat="45.07536" lon="2.70055">
        <ele>1407.86</ele>
        <time>2022-10-20T12:01:48.372Z</time>
      </trkpt>
      <trkpt lat="45.07546" lon="2.70063">
        <ele>1405.92</ele>
        <time>2022-10-20T12:01:57.641Z</time>
      </trkpt>
      <trkpt lat="45.07551" lon="2.70067">
        <ele>1406.86</ele>
        <time>2022-10-20T12:02:06.659Z</time>
      </trkpt>
      <trkpt lat="45.07558" lon="2.70071">
        <ele>1407.86</ele>
        <time>2022-10-20T12:02:15.680Z</time>
      </trkpt>
      <trkpt lat="45.07562" lon="2.70074">
        <ele>1408.8</ele>
        <time>2022-10-20T12:02:25.392Z</time>
      </trkpt>
      <trkpt lat="45.07568" lon="2.70076">
        <ele>1408.88</ele>
        <time>2022-10-20T12:02:35.000Z</time>
      </trkpt>
      <trkpt lat="45.07573" lon="2.70079">
        <ele>1410.86</ele>
        <time>2022-10-20T12:02:44.931Z</time>
      </trkpt>
      <trkpt lat="45.07577" lon="2.70082">
        <ele>1413.55</ele>
        <time>2022-10-20T12:02:54.000Z</time>
      </trkpt>
      <trkpt lat="45.07581" lon="2.70087">
        <ele>1413.86</ele>
        <time>2022-10-20T12:03:03.431Z</time>
      </trkpt>
      <trkpt lat="45.07585" lon="2.70092">
        <ele>1415.86</ele>
        <time>2022-10-20T12:03:12.492Z</time>
      </trkpt>
      <trkpt lat="45.07589" lon="2.70098">
        <ele>1417.85</ele>
        <time>2022-10-20T12:03:21.514Z</time>
      </trkpt>
      <trkpt lat="45.07596" lon="2.70109">
        <ele>1419.86</ele>
        <time>2022-10-20T12:03:31.000Z</time>
      </trkpt>
      <trkpt lat="45.07596" lon="2.70122">
        <ele>1422.61</ele>
        <time>2022-10-20T12:03:40.655Z</time>
      </trkpt>
      <trkpt lat="45.07597" lon="2.70132">
        <ele>1424.86</ele>
        <time>2022-10-20T12:03:49.810Z</time>
      </trkpt>
      <trkpt lat="45.07598" lon="2.70141">
        <ele>1427.86</ele>
        <time>2022-10-20T12:04:00.000Z</time>
      </trkpt>
      <trkpt lat="45.07599" lon="2.70154">
        <ele>1428.86</ele>
        <time>2022-10-20T12:04:09.116Z</time>
      </trkpt>
      <trkpt lat="45.07602" lon="2.70165">
        <ele>1431.59</ele>
        <time>2022-10-20T12:04:18.731Z</time>
      </trkpt>
      <trkpt lat="45.07606" lon="2.70175">
        <ele>1433.85</ele>
        <time>2022-10-20T12:04:29.000Z</time>
      </trkpt>
      <trkpt lat="45.0761" lon="2.70185">
        <ele>1432.86</ele>
        <time>2022-10-20T12:04:39.000Z</time>
      </trkpt>
      <trkpt lat="45.07613" lon="2.70191">
        <ele>1433.86</ele>
        <time>2022-10-20T12:04:48.814Z</time>
      </trkpt>
      <trkpt lat="45.07612" lon="2.70196">
        <ele>1433.86</ele>
        <time>2022-10-20T12:04:58.000Z</time>
      </trkpt>
      <trkpt lat="45.07611" lon="2.70207">
        <ele>1433.86</ele>
        <time>2022-10-20T12:05:08.000Z</time>
      </trkpt>
      <trkpt lat="45.07609" lon="2.70213">
        <ele>1431.86</ele>
        <time>2022-10-20T12:05:18.000Z</time>
      </trkpt>
      <trkpt lat="45.07611" lon="2.70216">
        <ele>1426.87</ele>
        <time>2022-10-20T12:05:28.000Z</time>
      </trkpt>
      <trkpt lat="45.07614" lon="2.70218">
        <ele>1426.8</ele>
        <time>2022-10-20T12:05:37.533Z</time>
      </trkpt>
      <trkpt lat="45.0762" lon="2.70218">
        <ele>1427.86</ele>
        <time>2022-10-20T12:05:47.000Z</time>
      </trkpt>
      <trkpt lat="45.07628" lon="2.7022">
        <ele>1429.8</ele>
        <time>2022-10-20T12:05:56.532Z</time>
      </trkpt>
      <trkpt lat="45.07633" lon="2.7022">
        <ele>1430.85</ele>
        <time>2022-10-20T12:06:05.656Z</time>
      </trkpt>
      <trkpt lat="45.0764" lon="2.70225">
        <ele>1430.86</ele>
        <time>2022-10-20T12:06:14.771Z</time>
      </trkpt>
      <trkpt lat="45.07647" lon="2.70228">
        <ele>1430.86</ele>
        <time>2022-10-20T12:06:24.017Z</time>
      </trkpt>
      <trkpt lat="45.07654" lon="2.70229">
        <ele>1431.61</ele>
        <time>2022-10-20T12:06:34.000Z</time>
      </trkpt>
      <trkpt lat="45.07662" lon="2.70235">
        <ele>1431.86</ele>
        <time>2022-10-20T12:06:43.111Z</time>
      </trkpt>
      <trkpt lat="45.0767" lon="2.70241">
        <ele>1433.85</ele>
        <time>2022-10-20T12:06:52.361Z</time>
      </trkpt>
      <trkpt lat="45.07673" lon="2.70244">
        <ele>1434.05</ele>
        <time>2022-10-20T12:07:01.941Z</time>
      </trkpt>
      <trkpt lat="45.07679" lon="2.70251">
        <ele>1432.11</ele>
        <time>2022-10-20T12:07:12.000Z</time>
      </trkpt>
      <trkpt lat="45.0768" lon="2.70251">
        <ele>1431.86</ele>
        <time>2022-10-20T12:07:22.000Z</time>
      </trkpt>
      <trkpt lat="45.07686" lon="2.70246">
        <ele>1432.61</ele>
        <time>2022-10-20T12:07:31.563Z</time>
      </trkpt>
      <trkpt lat="45.07697" lon="2.70247">
        <ele>1433.8</ele>
        <time>2022-10-20T12:07:41.052Z</time>
      </trkpt>
      <trkpt lat="45.07708" lon="2.70251">
        <ele>1432.86</ele>
        <time>2022-10-20T12:07:51.000Z</time>
      </trkpt>
      <trkpt lat="45.07718" lon="2.7026">
        <ele>1433.86</ele>
        <time>2022-10-20T12:08:00.493Z</time>
      </trkpt>
      <trkpt lat="45.07726" lon="2.70261">
        <ele>1434.61</ele>
        <time>2022-10-20T12:08:09.742Z</time>
      </trkpt>
      <trkpt lat="45.07734" lon="2.70258">
        <ele>1435.86</ele>
        <time>2022-10-20T12:08:19.052Z</time>
      </trkpt>
      <trkpt lat="45.07742" lon="2.70253">
        <ele>1436.86</ele>
        <time>2022-10-20T12:08:29.000Z</time>
      </trkpt>
      <trkpt lat="45.07753" lon="2.70253">
        <ele>1436.86</ele>
        <time>2022-10-20T12:08:39.000Z</time>
      </trkpt>
      <trkpt lat="45.07762" lon="2.70248">
        <ele>1437.86</ele>
        <time>2022-10-20T12:08:49.000Z</time>
      </trkpt>
      <trkpt lat="45.07774" lon="2.70244">
        <ele>1438.85</ele>
        <time>2022-10-20T12:08:58.161Z</time>
      </trkpt>
      <trkpt lat="45.07783" lon="2.70242">
        <ele>1439.86</ele>
        <time>2022-10-20T12:09:08.000Z</time>
      </trkpt>
      <trkpt lat="45.07794" lon="2.70239">
        <ele>1440.86</ele>
        <time>2022-10-20T12:09:18.000Z</time>
      </trkpt>
      <trkpt lat="45.07805" lon="2.70236">
        <ele>1439.11</ele>
        <time>2022-10-20T12:09:27.495Z</time>
      </trkpt>
      <trkpt lat="45.07814" lon="2.70233">
        <ele>1440.86</ele>
        <time>2022-10-20T12:09:36.592Z</time>
      </trkpt>
      <trkpt lat="45.07821" lon="2.70231">
        <ele>1440.86</ele>
        <time>2022-10-20T12:09:46.011Z</time>
      </trkpt>
      <trkpt lat="45.07826" lon="2.70227">
        <ele>1442.8</ele>
        <time>2022-10-20T12:09:55.131Z</time>
      </trkpt>
      <trkpt lat="45.07831" lon="2.7022">
        <ele>1441.86</ele>
        <time>2022-10-20T12:10:04.574Z</time>
      </trkpt>
      <trkpt lat="45.07838" lon="2.70214">
        <ele>1439.88</ele>
        <time>2022-10-20T12:10:14.123Z</time>
      </trkpt>
      <trkpt lat="45.07851" lon="2.70212">
        <ele>1438.86</ele>
        <time>2022-10-20T12:10:24.000Z</time>
      </trkpt>
      <trkpt lat="45.07864" lon="2.7021">
        <ele>1435.86</ele>
        <time>2022-10-20T12:10:34.032Z</time>
      </trkpt>
      <trkpt lat="45.07875" lon="2.70208">
        <ele>1435.92</ele>
        <time>2022-10-20T12:10:43.092Z</time>
      </trkpt>
      <trkpt lat="45.07886" lon="2.70209">
        <ele>1434.86</ele>
        <time>2022-10-20T12:10:52.631Z</time>
      </trkpt>
      <trkpt lat="45.07899" lon="2.70208">
        <ele>1434.86</ele>
        <time>2022-10-20T12:11:02.072Z</time>
      </trkpt>
      <trkpt lat="45.07909" lon="2.70207">
        <ele>1435.84</ele>
        <time>2022-10-20T12:11:12.000Z</time>
      </trkpt>
      <trkpt lat="45.0792" lon="2.70207">
        <ele>1435.86</ele>
        <time>2022-10-20T12:11:21.432Z</time>
      </trkpt>
      <trkpt lat="45.07929" lon="2.70205">
        <ele>1436.8</ele>
        <time>2022-10-20T12:11:30.892Z</time>
      </trkpt>
      <trkpt lat="45.07938" lon="2.70202">
        <ele>1434.17</ele>
        <time>2022-10-20T12:11:40.872Z</time>
      </trkpt>
      <trkpt lat="45.07947" lon="2.70198">
        <ele>1433.86</ele>
        <time>2022-10-20T12:11:50.052Z</time>
      </trkpt>
      <trkpt lat="45.07957" lon="2.70199">
        <ele>1435.86</ele>
        <time>2022-10-20T12:12:00.150Z</time>
      </trkpt>
      <trkpt lat="45.0797" lon="2.70196">
        <ele>1436.11</ele>
        <time>2022-10-20T12:12:10.073Z</time>
      </trkpt>
      <trkpt lat="45.07982" lon="2.70194">
        <ele>1435.86</ele>
        <time>2022-10-20T12:12:19.652Z</time>
      </trkpt>
      <trkpt lat="45.07992" lon="2.70195">
        <ele>1436.62</ele>
        <time>2022-10-20T12:12:28.653Z</time>
      </trkpt>
      <trkpt lat="45.08001" lon="2.70195">
        <ele>1435.86</ele>
        <time>2022-10-20T12:12:38.000Z</time>
      </trkpt>
      <trkpt lat="45.0801" lon="2.70193">
        <ele>1436.55</ele>
        <time>2022-10-20T12:12:48.000Z</time>
      </trkpt>
      <trkpt lat="45.0802" lon="2.70193">
        <ele>1437.92</ele>
        <time>2022-10-20T12:12:58.000Z</time>
      </trkpt>
      <trkpt lat="45.08029" lon="2.70193">
        <ele>1439.86</ele>
        <time>2022-10-20T12:13:07.092Z</time>
      </trkpt>
      <trkpt lat="45.0804" lon="2.70192">
        <ele>1439.86</ele>
        <time>2022-10-20T12:13:16.117Z</time>
      </trkpt>
      <trkpt lat="45.08051" lon="2.70194">
        <ele>1437.88</ele>
        <time>2022-10-20T12:13:25.739Z</time>
      </trkpt>
      <trkpt lat="45.08061" lon="2.70196">
        <ele>1436.86</ele>
        <time>2022-10-20T12:13:34.953Z</time>
      </trkpt>
      <trkpt lat="45.08067" lon="2.70196">
        <ele>1438.86</ele>
        <time>2022-10-20T12:13:44.591Z</time>
      </trkpt>
      <trkpt lat="45.08078" lon="2.70198">
        <ele>1438.86</ele>
        <time>2022-10-20T12:13:54.000Z</time>
      </trkpt>
      <trkpt lat="45.08088" lon="2.70207">
        <ele>1438.11</ele>
        <time>2022-10-20T12:14:03.532Z</time>
      </trkpt>
      <trkpt lat="45.08094" lon="2.70211">
        <ele>1435.86</ele>
        <time>2022-10-20T12:14:13.000Z</time>
      </trkpt>
      <trkpt lat="45.08103" lon="2.70216">
        <ele>1437.84</ele>
        <time>2022-10-20T12:14:22.290Z</time>
      </trkpt>
      <trkpt lat="45.08113" lon="2.70214">
        <ele>1438.86</ele>
        <time>2022-10-20T12:14:31.632Z</time>
      </trkpt>
      <trkpt lat="45.08124" lon="2.70214">
        <ele>1438.82</ele>
        <time>2022-10-20T12:14:41.014Z</time>
      </trkpt>
      <trkpt lat="45.08129" lon="2.70217">
        <ele>1438.84</ele>
        <time>2022-10-20T12:14:50.017Z</time>
      </trkpt>
      <trkpt lat="45.0814" lon="2.70217">
        <ele>1439.05</ele>
        <time>2022-10-20T12:14:59.915Z</time>
      </trkpt>
      <trkpt lat="45.08151" lon="2.70216">
        <ele>1439.86</ele>
        <time>2022-10-20T12:15:10.000Z</time>
      </trkpt>
      <trkpt lat="45.08161" lon="2.7022">
        <ele>1437.11</ele>
        <time>2022-10-20T12:15:20.000Z</time>
      </trkpt>
      <trkpt lat="45.08172" lon="2.70225">
        <ele>1435.86</ele>
        <time>2022-10-20T12:15:29.755Z</time>
      </trkpt>
      <trkpt lat="45.0818" lon="2.70225">
        <ele>1433.86</ele>
        <time>2022-10-20T12:15:40.000Z</time>
      </trkpt>
      <trkpt lat="45.08181" lon="2.70226">
        <ele>1431.87</ele>
        <time>2022-10-20T12:15:51.650Z</time>
      </trkpt>
      <trkpt lat="45.08181" lon="2.70228">
        <ele>1432.86</ele>
        <time>2022-10-20T12:16:01.000Z</time>
      </trkpt>
      <trkpt lat="45.0818" lon="2.70227">
        <ele>1431.86</ele>
        <time>2022-10-20T12:16:11.000Z</time>
      </trkpt>
      <trkpt lat="45.08181" lon="2.70226">
        <ele>1429.92</ele>
        <time>2022-10-20T12:16:37.000Z</time>
      </trkpt>
      <trkpt lat="45.08181" lon="2.70225">
        <ele>1430.61</ele>
        <time>2022-10-20T12:17:16.000Z</time>
      </trkpt>
      <trkpt lat="45.08186" lon="2.70227">
        <ele>1431.86</ele>
        <time>2022-10-20T12:17:26.093Z</time>
      </trkpt>
      <trkpt lat="45.08194" lon="2.70226">
        <ele>1432.85</ele>
        <time>2022-10-20T12:17:35.842Z</time>
      </trkpt>
      <trkpt lat="45.08199" lon="2.70228">
        <ele>1431.86</ele>
        <time>2022-10-20T12:17:45.000Z</time>
      </trkpt>
      <trkpt lat="45.08209" lon="2.70221">
        <ele>1431.87</ele>
        <time>2022-10-20T12:17:54.534Z</time>
      </trkpt>
      <trkpt lat="45.08218" lon="2.70215">
        <ele>1433.86</ele>
        <time>2022-10-20T12:18:04.131Z</time>
      </trkpt>
      <trkpt lat="45.08226" lon="2.70209">
        <ele>1434.86</ele>
        <time>2022-10-20T12:18:13.931Z</time>
      </trkpt>
      <trkpt lat="45.08232" lon="2.70206">
        <ele>1435.11</ele>
        <time>2022-10-20T12:18:23.000Z</time>
      </trkpt>
      <trkpt lat="45.08238" lon="2.70203">
        <ele>1435.86</ele>
        <time>2022-10-20T12:18:33.000Z</time>
      </trkpt>
      <trkpt lat="45.08245" lon="2.702">
        <ele>1437.86</ele>
        <time>2022-10-20T12:18:42.393Z</time>
      </trkpt>
      <trkpt lat="45.08247" lon="2.702">
        <ele>1437.86</ele>
        <time>2022-10-20T12:18:52.000Z</time>
      </trkpt>
      <trkpt lat="45.08256" lon="2.70195">
        <ele>1438.67</ele>
        <time>2022-10-20T12:19:02.000Z</time>
      </trkpt>
      <trkpt lat="45.08264" lon="2.70197">
        <ele>1439.09</ele>
        <time>2022-10-20T12:19:11.972Z</time>
      </trkpt>
      <trkpt lat="45.08271" lon="2.70198">
        <ele>1440.86</ele>
        <time>2022-10-20T12:19:22.000Z</time>
      </trkpt>
      <trkpt lat="45.08278" lon="2.70194">
        <ele>1441.86</ele>
        <time>2022-10-20T12:19:31.821Z</time>
      </trkpt>
      <trkpt lat="45.08284" lon="2.70192">
        <ele>1442.86</ele>
        <time>2022-10-20T12:19:41.000Z</time>
      </trkpt>
      <trkpt lat="45.08291" lon="2.70197">
        <ele>1443.61</ele>
        <time>2022-10-20T12:19:50.571Z</time>
      </trkpt>
      <trkpt lat="45.08298" lon="2.702">
        <ele>1443.86</ele>
        <time>2022-10-20T12:19:59.833Z</time>
      </trkpt>
      <trkpt lat="45.08304" lon="2.702">
        <ele>1443.87</ele>
        <time>2022-10-20T12:20:09.000Z</time>
      </trkpt>
      <trkpt lat="45.08312" lon="2.70202">
        <ele>1445.86</ele>
        <time>2022-10-20T12:20:19.000Z</time>
      </trkpt>
      <trkpt lat="45.08315" lon="2.70199">
        <ele>1448.61</ele>
        <time>2022-10-20T12:20:29.000Z</time>
      </trkpt>
      <trkpt lat="45.08316" lon="2.70194">
        <ele>1448.86</ele>
        <time>2022-10-20T12:20:38.730Z</time>
      </trkpt>
      <trkpt lat="45.08313" lon="2.70187">
        <ele>1450.8</ele>
        <time>2022-10-20T12:20:48.000Z</time>
      </trkpt>
      <trkpt lat="45.08315" lon="2.70181">
        <ele>1451.86</ele>
        <time>2022-10-20T12:20:57.502Z</time>
      </trkpt>
      <trkpt lat="45.08317" lon="2.70174">
        <ele>1452.86</ele>
        <time>2022-10-20T12:21:06.890Z</time>
      </trkpt>
      <trkpt lat="45.08317" lon="2.70171">
        <ele>1454.09</ele>
        <time>2022-10-20T12:21:17.000Z</time>
      </trkpt>
      <trkpt lat="45.08322" lon="2.70173">
        <ele>1452.86</ele>
        <time>2022-10-20T12:21:27.000Z</time>
      </trkpt>
      <trkpt lat="45.08322" lon="2.70174">
        <ele>1452.86</ele>
        <time>2022-10-20T12:21:37.000Z</time>
      </trkpt>
      <trkpt lat="45.08322" lon="2.70173">
        <ele>1451.92</ele>
        <time>2022-10-20T12:21:50.000Z</time>
      </trkpt>
      <trkpt lat="45.08314" lon="2.70168">
        <ele>1452.86</ele>
        <time>2022-10-20T12:22:00.000Z</time>
      </trkpt>
      <trkpt lat="45.0831" lon="2.70159">
        <ele>1452.8</ele>
        <time>2022-10-20T12:22:09.554Z</time>
      </trkpt>
      <trkpt lat="45.08311" lon="2.7015">
        <ele>1452.92</ele>
        <time>2022-10-20T12:22:19.000Z</time>
      </trkpt>
      <trkpt lat="45.08311" lon="2.7014">
        <ele>1453.86</ele>
        <time>2022-10-20T12:22:29.094Z</time>
      </trkpt>
      <trkpt lat="45.08313" lon="2.70139">
        <ele>1454.86</ele>
        <time>2022-10-20T12:22:39.000Z</time>
      </trkpt>
      <trkpt lat="45.08316" lon="2.70134">
        <ele>1456.86</ele>
        <time>2022-10-20T12:22:48.652Z</time>
      </trkpt>
      <trkpt lat="45.08318" lon="2.70132">
        <ele>1457.84</ele>
        <time>2022-10-20T12:22:59.000Z</time>
      </trkpt>
      <trkpt lat="45.08321" lon="2.70129">
        <ele>1460.84</ele>
        <time>2022-10-20T12:23:09.000Z</time>
      </trkpt>
      <trkpt lat="45.08321" lon="2.70126">
        <ele>1459.88</ele>
        <time>2022-10-20T12:23:19.000Z</time>
      </trkpt>
      <trkpt lat="45.08322" lon="2.70121">
        <ele>1460.86</ele>
        <time>2022-10-20T12:23:29.000Z</time>
      </trkpt>
      <trkpt lat="45.08322" lon="2.70113">
        <ele>1460.86</ele>
        <time>2022-10-20T12:23:38.014Z</time>
      </trkpt>
      <trkpt lat="45.08323" lon="2.70108">
        <ele>1462.86</ele>
        <time>2022-10-20T12:23:47.132Z</time>
      </trkpt>
      <trkpt lat="45.08323" lon="2.70105">
        <ele>1464.84</ele>
        <time>2022-10-20T12:23:57.000Z</time>
      </trkpt>
      <trkpt lat="45.08321" lon="2.70101">
        <ele>1466.62</ele>
        <time>2022-10-20T12:24:06.572Z</time>
      </trkpt>
      <trkpt lat="45.08322" lon="2.70098">
        <ele>1467.86</ele>
        <time>2022-10-20T12:24:16.000Z</time>
      </trkpt>
      <trkpt lat="45.08323" lon="2.70093">
        <ele>1469.84</ele>
        <time>2022-10-20T12:24:25.093Z</time>
      </trkpt>
      <trkpt lat="45.08323" lon="2.70089">
        <ele>1472.8</ele>
        <time>2022-10-20T12:24:34.161Z</time>
      </trkpt>
      <trkpt lat="45.08322" lon="2.70086">
        <ele>1474.86</ele>
        <time>2022-10-20T12:24:44.000Z</time>
      </trkpt>
      <trkpt lat="45.08321" lon="2.7008">
        <ele>1477.61</ele>
        <time>2022-10-20T12:24:54.000Z</time>
      </trkpt>
      <trkpt lat="45.08321" lon="2.70077">
        <ele>1479.66</ele>
        <time>2022-10-20T12:25:04.000Z</time>
      </trkpt>
      <trkpt lat="45.08319" lon="2.7007">
        <ele>1480.81</ele>
        <time>2022-10-20T12:25:14.000Z</time>
      </trkpt>
      <trkpt lat="45.08318" lon="2.70066">
        <ele>1481.61</ele>
        <time>2022-10-20T12:25:23.740Z</time>
      </trkpt>
      <trkpt lat="45.08316" lon="2.70059">
        <ele>1483.85</ele>
        <time>2022-10-20T12:25:33.000Z</time>
      </trkpt>
      <trkpt lat="45.08315" lon="2.7005">
        <ele>1482.86</ele>
        <time>2022-10-20T12:25:44.000Z</time>
      </trkpt>
      <trkpt lat="45.08313" lon="2.70044">
        <ele>1484.8</ele>
        <time>2022-10-20T12:25:54.000Z</time>
      </trkpt>
      <trkpt lat="45.08313" lon="2.70038">
        <ele>1486.86</ele>
        <time>2022-10-20T12:26:03.752Z</time>
      </trkpt>
      <trkpt lat="45.08315" lon="2.70031">
        <ele>1488.8</ele>
        <time>2022-10-20T12:26:14.033Z</time>
      </trkpt>
      <trkpt lat="45.08317" lon="2.70025">
        <ele>1489.67</ele>
        <time>2022-10-20T12:26:24.000Z</time>
      </trkpt>
      <trkpt lat="45.08321" lon="2.70021">
        <ele>1489.86</ele>
        <time>2022-10-20T12:26:33.822Z</time>
      </trkpt>
      <trkpt lat="45.08324" lon="2.70014">
        <ele>1490.86</ele>
        <time>2022-10-20T12:26:43.000Z</time>
      </trkpt>
      <trkpt lat="45.08327" lon="2.70011">
        <ele>1492.61</ele>
        <time>2022-10-20T12:26:53.073Z</time>
      </trkpt>
      <trkpt lat="45.08328" lon="2.70011">
        <ele>1492.86</ele>
        <time>2022-10-20T12:27:03.000Z</time>
      </trkpt>
      <trkpt lat="45.08329" lon="2.7001">
        <ele>1493.86</ele>
        <time>2022-10-20T12:27:13.000Z</time>
      </trkpt>
      <trkpt lat="45.0833" lon="2.7001">
        <ele>1495.36</ele>
        <time>2022-10-20T12:27:23.000Z</time>
      </trkpt>
      <trkpt lat="45.08332" lon="2.70006">
        <ele>1497.8</ele>
        <time>2022-10-20T12:27:32.811Z</time>
      </trkpt>
      <trkpt lat="45.08335" lon="2.70005">
        <ele>1498.85</ele>
        <time>2022-10-20T12:27:41.912Z</time>
      </trkpt>
      <trkpt lat="45.08336" lon="2.70005">
        <ele>1499.85</ele>
        <time>2022-10-20T12:27:52.000Z</time>
      </trkpt>
      <trkpt lat="45.08338" lon="2.7">
        <ele>1500.8</ele>
        <time>2022-10-20T12:28:01.760Z</time>
      </trkpt>
      <trkpt lat="45.08339" lon="2.69999">
        <ele>1501.85</ele>
        <time>2022-10-20T12:28:11.000Z</time>
      </trkpt>
      <trkpt lat="45.08341" lon="2.69998">
        <ele>1502.86</ele>
        <time>2022-10-20T12:28:21.000Z</time>
      </trkpt>
      <trkpt lat="45.08343" lon="2.69996">
        <ele>1503.86</ele>
        <time>2022-10-20T12:28:31.000Z</time>
      </trkpt>
      <trkpt lat="45.08346" lon="2.7">
        <ele>1504.86</ele>
        <time>2022-10-20T12:28:41.000Z</time>
      </trkpt>
      <trkpt lat="45.0835" lon="2.70004">
        <ele>1504.86</ele>
        <time>2022-10-20T12:28:51.000Z</time>
      </trkpt>
      <trkpt lat="45.08359" lon="2.70008">
        <ele>1505.86</ele>
        <time>2022-10-20T12:29:00.452Z</time>
      </trkpt>
      <trkpt lat="45.08364" lon="2.70011">
        <ele>1507.86</ele>
        <time>2022-10-20T12:29:09.862Z</time>
      </trkpt>
      <trkpt lat="45.08367" lon="2.70003">
        <ele>1509.85</ele>
        <time>2022-10-20T12:29:19.000Z</time>
      </trkpt>
      <trkpt lat="45.08371" lon="2.69995">
        <ele>1510.86</ele>
        <time>2022-10-20T12:29:28.735Z</time>
      </trkpt>
      <trkpt lat="45.08374" lon="2.69991">
        <ele>1511.86</ele>
        <time>2022-10-20T12:29:38.003Z</time>
      </trkpt>
      <trkpt lat="45.08377" lon="2.69983">
        <ele>1512.61</ele>
        <time>2022-10-20T12:29:48.000Z</time>
      </trkpt>
      <trkpt lat="45.08377" lon="2.69984">
        <ele>1512.86</ele>
        <time>2022-10-20T12:29:58.000Z</time>
      </trkpt>
      <trkpt lat="45.08376" lon="2.69985">
        <ele>1511.92</ele>
        <time>2022-10-20T12:30:08.000Z</time>
      </trkpt>
      <trkpt lat="45.08375" lon="2.69986">
        <ele>1511.86</ele>
        <time>2022-10-20T12:31:47.000Z</time>
      </trkpt>
      <trkpt lat="45.08375" lon="2.69989">
        <ele>1512.86</ele>
        <time>2022-10-20T12:31:57.000Z</time>
      </trkpt>
      <trkpt lat="45.08373" lon="2.69983">
        <ele>1510.93</ele>
        <time>2022-10-20T12:32:07.000Z</time>
      </trkpt>
      <trkpt lat="45.08374" lon="2.69984">
        <ele>1511.86</ele>
        <time>2022-10-20T12:32:17.000Z</time>
      </trkpt>
      <trkpt lat="45.08375" lon="2.69983">
        <ele>1511.86</ele>
        <time>2022-10-20T12:32:34.000Z</time>
      </trkpt>
      <trkpt lat="45.08375" lon="2.69982">
        <ele>1512.8</ele>
        <time>2022-10-20T12:34:56.000Z</time>
      </trkpt>
      <trkpt lat="45.08376" lon="2.69981">
        <ele>1512.86</ele>
        <time>2022-10-20T12:35:06.000Z</time>
      </trkpt>
      <trkpt lat="45.08376" lon="2.69982">
        <ele>1511.86</ele>
        <time>2022-10-20T12:35:37.000Z</time>
      </trkpt>
      <trkpt lat="45.08374" lon="2.69995">
        <ele>1510.87</ele>
        <time>2022-10-20T12:35:46.811Z</time>
      </trkpt>
      <trkpt lat="45.08372" lon="2.69994">
        <ele>1509.88</ele>
        <time>2022-10-20T12:35:56.000Z</time>
      </trkpt>
      <trkpt lat="45.08368" lon="2.70002">
        <ele>1507.86</ele>
        <time>2022-10-20T12:36:05.812Z</time>
      </trkpt>
      <trkpt lat="45.08363" lon="2.70009">
        <ele>1507.11</ele>
        <time>2022-10-20T12:36:15.311Z</time>
      </trkpt>
      <trkpt lat="45.08362" lon="2.70019">
        <ele>1505.92</ele>
        <time>2022-10-20T12:36:25.000Z</time>
      </trkpt>
      <trkpt lat="45.08359" lon="2.70026">
        <ele>1504.86</ele>
        <time>2022-10-20T12:36:35.000Z</time>
      </trkpt>
      <trkpt lat="45.08356" lon="2.70031">
        <ele>1504.86</ele>
        <time>2022-10-20T12:36:45.000Z</time>
      </trkpt>
      <trkpt lat="45.08355" lon="2.70034">
        <ele>1502.86</ele>
        <time>2022-10-20T12:36:54.912Z</time>
      </trkpt>
      <trkpt lat="45.08354" lon="2.70038">
        <ele>1500.86</ele>
        <time>2022-10-20T12:37:06.000Z</time>
      </trkpt>
      <trkpt lat="45.08352" lon="2.70042">
        <ele>1500.11</ele>
        <time>2022-10-20T12:37:16.000Z</time>
      </trkpt>
      <trkpt lat="45.0835" lon="2.70043">
        <ele>1498.87</ele>
        <time>2022-10-20T12:37:26.000Z</time>
      </trkpt>
      <trkpt lat="45.08346" lon="2.70043">
        <ele>1495.92</ele>
        <time>2022-10-20T12:37:36.000Z</time>
      </trkpt>
      <trkpt lat="45.08346" lon="2.70045">
        <ele>1495.86</ele>
        <time>2022-10-20T12:37:46.000Z</time>
      </trkpt>
      <trkpt lat="45.08346" lon="2.7005">
        <ele>1493.11</ele>
        <time>2022-10-20T12:37:56.000Z</time>
      </trkpt>
      <trkpt lat="45.08345" lon="2.70052">
        <ele>1493.11</ele>
        <time>2022-10-20T12:38:06.000Z</time>
      </trkpt>
      <trkpt lat="45.08342" lon="2.70056">
        <ele>1491.86</ele>
        <time>2022-10-20T12:38:16.000Z</time>
      </trkpt>
      <trkpt lat="45.08342" lon="2.70059">
        <ele>1489.88</ele>
        <time>2022-10-20T12:38:25.672Z</time>
      </trkpt>
      <trkpt lat="45.08342" lon="2.7006">
        <ele>1488.86</ele>
        <time>2022-10-20T12:38:35.000Z</time>
      </trkpt>
      <trkpt lat="45.08339" lon="2.70059">
        <ele>1487.86</ele>
        <time>2022-10-20T12:38:44.972Z</time>
      </trkpt>
      <trkpt lat="45.08336" lon="2.70057">
        <ele>1486.86</ele>
        <time>2022-10-20T12:38:54.000Z</time>
      </trkpt>
      <trkpt lat="45.08333" lon="2.70057">
        <ele>1483.88</ele>
        <time>2022-10-20T12:39:03.651Z</time>
      </trkpt>
      <trkpt lat="45.08332" lon="2.70061">
        <ele>1483.86</ele>
        <time>2022-10-20T12:39:13.131Z</time>
      </trkpt>
      <trkpt lat="45.08333" lon="2.70065">
        <ele>1482.86</ele>
        <time>2022-10-20T12:39:22.992Z</time>
      </trkpt>
      <trkpt lat="45.0833" lon="2.70066">
        <ele>1481.86</ele>
        <time>2022-10-20T12:39:32.000Z</time>
      </trkpt>
      <trkpt lat="45.08327" lon="2.70068">
        <ele>1479.88</ele>
        <time>2022-10-20T12:39:41.851Z</time>
      </trkpt>
      <trkpt lat="45.08325" lon="2.70073">
        <ele>1477.92</ele>
        <time>2022-10-20T12:39:52.000Z</time>
      </trkpt>
      <trkpt lat="45.08322" lon="2.70077">
        <ele>1476.86</ele>
        <time>2022-10-20T12:40:01.772Z</time>
      </trkpt>
      <trkpt lat="45.08323" lon="2.70081">
        <ele>1474.86</ele>
        <time>2022-10-20T12:40:11.000Z</time>
      </trkpt>
      <trkpt lat="45.08324" lon="2.70086">
        <ele>1473.86</ele>
        <time>2022-10-20T12:40:20.591Z</time>
      </trkpt>
      <trkpt lat="45.08324" lon="2.70094">
        <ele>1472.86</ele>
        <time>2022-10-20T12:40:29.772Z</time>
      </trkpt>
      <trkpt lat="45.08324" lon="2.70097">
        <ele>1470.13</ele>
        <time>2022-10-20T12:40:39.000Z</time>
      </trkpt>
      <trkpt lat="45.08323" lon="2.70102">
        <ele>1468.86</ele>
        <time>2022-10-20T12:40:49.000Z</time>
      </trkpt>
      <trkpt lat="45.08322" lon="2.7011">
        <ele>1466.36</ele>
        <time>2022-10-20T12:40:59.000Z</time>
      </trkpt>
      <trkpt lat="45.08322" lon="2.70117">
        <ele>1464.86</ele>
        <time>2022-10-20T12:41:09.000Z</time>
      </trkpt>
      <trkpt lat="45.08321" lon="2.70128">
        <ele>1464.05</ele>
        <time>2022-10-20T12:41:19.000Z</time>
      </trkpt>
      <trkpt lat="45.08321" lon="2.70137">
        <ele>1461.92</ele>
        <time>2022-10-20T12:41:29.000Z</time>
      </trkpt>
      <trkpt lat="45.08323" lon="2.70152">
        <ele>1462.11</ele>
        <time>2022-10-20T12:41:38.952Z</time>
      </trkpt>
      <trkpt lat="45.08323" lon="2.70162">
        <ele>1460.86</ele>
        <time>2022-10-20T12:41:48.012Z</time>
      </trkpt>
      <trkpt lat="45.08316" lon="2.70163">
        <ele>1458.86</ele>
        <time>2022-10-20T12:41:57.791Z</time>
      </trkpt>
      <trkpt lat="45.08312" lon="2.70171">
        <ele>1456.86</ele>
        <time>2022-10-20T12:42:07.362Z</time>
      </trkpt>
      <trkpt lat="45.08306" lon="2.70176">
        <ele>1453.67</ele>
        <time>2022-10-20T12:42:17.051Z</time>
      </trkpt>
      <trkpt lat="45.08299" lon="2.70178">
        <ele>1451.11</ele>
        <time>2022-10-20T12:42:27.000Z</time>
      </trkpt>
      <trkpt lat="45.08291" lon="2.70182">
        <ele>1449.86</ele>
        <time>2022-10-20T12:42:36.412Z</time>
      </trkpt>
      <trkpt lat="45.08282" lon="2.70186">
        <ele>1448.86</ele>
        <time>2022-10-20T12:42:45.682Z</time>
      </trkpt>
      <trkpt lat="45.08274" lon="2.70187">
        <ele>1445.86</ele>
        <time>2022-10-20T12:42:55.000Z</time>
      </trkpt>
      <trkpt lat="45.08264" lon="2.70191">
        <ele>1443.11</ele>
        <time>2022-10-20T12:43:05.000Z</time>
      </trkpt>
      <trkpt lat="45.08253" lon="2.70196">
        <ele>1441.87</ele>
        <time>2022-10-20T12:43:15.119Z</time>
      </trkpt>
      <trkpt lat="45.08243" lon="2.70199">
        <ele>1439.86</ele>
        <time>2022-10-20T12:43:25.000Z</time>
      </trkpt>
      <trkpt lat="45.08233" lon="2.70203">
        <ele>1438.86</ele>
        <time>2022-10-20T12:43:34.412Z</time>
      </trkpt>
      <trkpt lat="45.08223" lon="2.70208">
        <ele>1436.86</ele>
        <time>2022-10-20T12:43:43.992Z</time>
      </trkpt>
      <trkpt lat="45.08215" lon="2.70214">
        <ele>1436.92</ele>
        <time>2022-10-20T12:43:53.131Z</time>
      </trkpt>
      <trkpt lat="45.08207" lon="2.70222">
        <ele>1435.86</ele>
        <time>2022-10-20T12:44:02.550Z</time>
      </trkpt>
      <trkpt lat="45.08198" lon="2.70225">
        <ele>1436.86</ele>
        <time>2022-10-20T12:44:12.000Z</time>
      </trkpt>
      <trkpt lat="45.0819" lon="2.70227">
        <ele>1436.86</ele>
        <time>2022-10-20T12:44:23.000Z</time>
      </trkpt>
      <trkpt lat="45.08185" lon="2.70225">
        <ele>1433.86</ele>
        <time>2022-10-20T12:44:33.000Z</time>
      </trkpt>
      <trkpt lat="45.08184" lon="2.7022">
        <ele>1433.86</ele>
        <time>2022-10-20T12:44:42.831Z</time>
      </trkpt>
      <trkpt lat="45.08184" lon="2.70209">
        <ele>1431.86</ele>
        <time>2022-10-20T12:44:52.092Z</time>
      </trkpt>
      <trkpt lat="45.08185" lon="2.70203">
        <ele>1431.86</ele>
        <time>2022-10-20T12:45:01.552Z</time>
      </trkpt>
      <trkpt lat="45.08185" lon="2.70198">
        <ele>1428.86</ele>
        <time>2022-10-20T12:45:10.852Z</time>
      </trkpt>
      <trkpt lat="45.08183" lon="2.70195">
        <ele>1427.88</ele>
        <time>2022-10-20T12:45:20.000Z</time>
      </trkpt>
      <trkpt lat="45.08182" lon="2.70191">
        <ele>1426.86</ele>
        <time>2022-10-20T12:45:30.000Z</time>
      </trkpt>
      <trkpt lat="45.08181" lon="2.70187">
        <ele>1424.86</ele>
        <time>2022-10-20T12:45:40.000Z</time>
      </trkpt>
      <trkpt lat="45.08181" lon="2.70184">
        <ele>1422.86</ele>
        <time>2022-10-20T12:45:49.074Z</time>
      </trkpt>
      <trkpt lat="45.08179" lon="2.7018">
        <ele>1420.92</ele>
        <time>2022-10-20T12:45:59.000Z</time>
      </trkpt>
      <trkpt lat="45.08177" lon="2.70176">
        <ele>1419.86</ele>
        <time>2022-10-20T12:46:08.012Z</time>
      </trkpt>
      <trkpt lat="45.08176" lon="2.70175">
        <ele>1419.86</ele>
        <time>2022-10-20T12:46:18.000Z</time>
      </trkpt>
      <trkpt lat="45.08176" lon="2.70172">
        <ele>1418.86</ele>
        <time>2022-10-20T12:46:28.000Z</time>
      </trkpt>
      <trkpt lat="45.08175" lon="2.70166">
        <ele>1418.86</ele>
        <time>2022-10-20T12:46:38.000Z</time>
      </trkpt>
      <trkpt lat="45.08174" lon="2.70162">
        <ele>1418.11</ele>
        <time>2022-10-20T12:46:48.000Z</time>
      </trkpt>
      <trkpt lat="45.08172" lon="2.70155">
        <ele>1417.61</ele>
        <time>2022-10-20T12:46:58.073Z</time>
      </trkpt>
      <trkpt lat="45.0817" lon="2.70154">
        <ele>1417.86</ele>
        <time>2022-10-20T12:47:08.000Z</time>
      </trkpt>
      <trkpt lat="45.08169" lon="2.70149">
        <ele>1416.93</ele>
        <time>2022-10-20T12:47:18.000Z</time>
      </trkpt>
      <trkpt lat="45.08169" lon="2.70143">
        <ele>1413.88</ele>
        <time>2022-10-20T12:47:28.000Z</time>
      </trkpt>
      <trkpt lat="45.08169" lon="2.70136">
        <ele>1413.86</ele>
        <time>2022-10-20T12:47:38.000Z</time>
      </trkpt>
      <trkpt lat="45.08171" lon="2.70128">
        <ele>1411.86</ele>
        <time>2022-10-20T12:47:47.821Z</time>
      </trkpt>
      <trkpt lat="45.0817" lon="2.70121">
        <ele>1410.86</ele>
        <time>2022-10-20T12:47:56.910Z</time>
      </trkpt>
      <trkpt lat="45.08168" lon="2.7012">
        <ele>1409.17</ele>
        <time>2022-10-20T12:48:08.000Z</time>
      </trkpt>
      <trkpt lat="45.0816" lon="2.70119">
        <ele>1405.88</ele>
        <time>2022-10-20T12:48:17.052Z</time>
      </trkpt>
      <trkpt lat="45.0815" lon="2.70117">
        <ele>1405.92</ele>
        <time>2022-10-20T12:48:26.131Z</time>
      </trkpt>
      <trkpt lat="45.08149" lon="2.70119">
        <ele>1406.86</ele>
        <time>2022-10-20T12:48:36.000Z</time>
      </trkpt>
      <trkpt lat="45.08151" lon="2.7012">
        <ele>1406.86</ele>
        <time>2022-10-20T12:48:46.000Z</time>
      </trkpt>
      <trkpt lat="45.08149" lon="2.7012">
        <ele>1407.61</ele>
        <time>2022-10-20T12:50:49.000Z</time>
      </trkpt>
      <trkpt lat="45.08149" lon="2.70122">
        <ele>1407.86</ele>
        <time>2022-10-20T12:50:59.000Z</time>
      </trkpt>
      <trkpt lat="45.08149" lon="2.70121">
        <ele>1407.61</ele>
        <time>2022-10-20T12:51:18.000Z</time>
      </trkpt>
      <trkpt lat="45.08148" lon="2.70121">
        <ele>1407.86</ele>
        <time>2022-10-20T12:51:27.512Z</time>
      </trkpt>
      <trkpt lat="45.08142" lon="2.70123">
        <ele>1409.86</ele>
        <time>2022-10-20T12:51:37.000Z</time>
      </trkpt>
      <trkpt lat="45.08138" lon="2.70124">
        <ele>1408.92</ele>
        <time>2022-10-20T12:51:46.912Z</time>
      </trkpt>
      <trkpt lat="45.08131" lon="2.70123">
        <ele>1408.11</ele>
        <time>2022-10-20T12:51:56.451Z</time>
      </trkpt>
      <trkpt lat="45.08125" lon="2.7012">
        <ele>1405.86</ele>
        <time>2022-10-20T12:52:06.000Z</time>
      </trkpt>
      <trkpt lat="45.08119" lon="2.70116">
        <ele>1403.92</ele>
        <time>2022-10-20T12:52:16.000Z</time>
      </trkpt>
      <trkpt lat="45.08113" lon="2.70111">
        <ele>1402.86</ele>
        <time>2022-10-20T12:52:25.141Z</time>
      </trkpt>
      <trkpt lat="45.08109" lon="2.70108">
        <ele>1398.87</ele>
        <time>2022-10-20T12:52:34.311Z</time>
      </trkpt>
      <trkpt lat="45.08105" lon="2.701">
        <ele>1396.12</ele>
        <time>2022-10-20T12:52:44.091Z</time>
      </trkpt>
      <trkpt lat="45.08102" lon="2.70095">
        <ele>1394.11</ele>
        <time>2022-10-20T12:52:53.632Z</time>
      </trkpt>
      <trkpt lat="45.08097" lon="2.7009">
        <ele>1392.92</ele>
        <time>2022-10-20T12:53:04.000Z</time>
      </trkpt>
      <trkpt lat="45.08091" lon="2.70083">
        <ele>1387.89</ele>
        <time>2022-10-20T12:53:13.432Z</time>
      </trkpt>
      <trkpt lat="45.08087" lon="2.70079">
        <ele>1387.86</ele>
        <time>2022-10-20T12:53:22.652Z</time>
      </trkpt>
      <trkpt lat="45.08081" lon="2.70074">
        <ele>1389.1</ele>
        <time>2022-10-20T12:53:31.810Z</time>
      </trkpt>
      <trkpt lat="45.08076" lon="2.7007">
        <ele>1386.93</ele>
        <time>2022-10-20T12:53:41.000Z</time>
      </trkpt>
      <trkpt lat="45.0807" lon="2.70066">
        <ele>1384.11</ele>
        <time>2022-10-20T12:53:51.000Z</time>
      </trkpt>
      <trkpt lat="45.08065" lon="2.70061">
        <ele>1381.11</ele>
        <time>2022-10-20T12:54:00.830Z</time>
      </trkpt>
      <trkpt lat="45.08061" lon="2.70057">
        <ele>1379.88</ele>
        <time>2022-10-20T12:54:11.000Z</time>
      </trkpt>
      <trkpt lat="45.08056" lon="2.70052">
        <ele>1377.91</ele>
        <time>2022-10-20T12:54:21.000Z</time>
      </trkpt>
      <trkpt lat="45.08053" lon="2.70048">
        <ele>1375.86</ele>
        <time>2022-10-20T12:54:30.816Z</time>
      </trkpt>
      <trkpt lat="45.08047" lon="2.70046">
        <ele>1373.88</ele>
        <time>2022-10-20T12:54:39.911Z</time>
      </trkpt>
      <trkpt lat="45.08043" lon="2.70039">
        <ele>1371.88</ele>
        <time>2022-10-20T12:54:49.000Z</time>
      </trkpt>
      <trkpt lat="45.08038" lon="2.70032">
        <ele>1369.88</ele>
        <time>2022-10-20T12:54:59.000Z</time>
      </trkpt>
      <trkpt lat="45.08033" lon="2.7003">
        <ele>1365.14</ele>
        <time>2022-10-20T12:55:09.000Z</time>
      </trkpt>
      <trkpt lat="45.0803" lon="2.70029">
        <ele>1364.86</ele>
        <time>2022-10-20T12:55:19.000Z</time>
      </trkpt>
      <trkpt lat="45.08027" lon="2.70026">
        <ele>1364.86</ele>
        <time>2022-10-20T12:55:29.000Z</time>
      </trkpt>
      <trkpt lat="45.08021" lon="2.70028">
        <ele>1361.86</ele>
        <time>2022-10-20T12:55:40.000Z</time>
      </trkpt>
      <trkpt lat="45.08013" lon="2.70026">
        <ele>1361.11</ele>
        <time>2022-10-20T12:55:50.000Z</time>
      </trkpt>
      <trkpt lat="45.08004" lon="2.70027">
        <ele>1359.86</ele>
        <time>2022-10-20T12:56:00.012Z</time>
      </trkpt>
      <trkpt lat="45.07997" lon="2.70022">
        <ele>1358.86</ele>
        <time>2022-10-20T12:56:09.112Z</time>
      </trkpt>
      <trkpt lat="45.07991" lon="2.70019">
        <ele>1360.85</ele>
        <time>2022-10-20T12:56:19.000Z</time>
      </trkpt>
      <trkpt lat="45.07987" lon="2.70014">
        <ele>1360.85</ele>
        <time>2022-10-20T12:56:28.818Z</time>
      </trkpt>
      <trkpt lat="45.07982" lon="2.7001">
        <ele>1359.86</ele>
        <time>2022-10-20T12:56:38.433Z</time>
      </trkpt>
      <trkpt lat="45.07979" lon="2.70006">
        <ele>1358.86</ele>
        <time>2022-10-20T12:56:48.000Z</time>
      </trkpt>
      <trkpt lat="45.07976" lon="2.70002">
        <ele>1358.86</ele>
        <time>2022-10-20T12:56:57.991Z</time>
      </trkpt>
      <trkpt lat="45.07973" lon="2.69997">
        <ele>1355.86</ele>
        <time>2022-10-20T12:57:07.754Z</time>
      </trkpt>
      <trkpt lat="45.0797" lon="2.69993">
        <ele>1352.63</ele>
        <time>2022-10-20T12:57:18.000Z</time>
      </trkpt>
      <trkpt lat="45.07967" lon="2.6999">
        <ele>1351.86</ele>
        <time>2022-10-20T12:57:28.000Z</time>
      </trkpt>
      <trkpt lat="45.07964" lon="2.69986">
        <ele>1349.13</ele>
        <time>2022-10-20T12:57:38.000Z</time>
      </trkpt>
      <trkpt lat="45.07961" lon="2.69981">
        <ele>1348.86</ele>
        <time>2022-10-20T12:57:48.000Z</time>
      </trkpt>
      <trkpt lat="45.07958" lon="2.69978">
        <ele>1344.12</ele>
        <time>2022-10-20T12:57:57.822Z</time>
      </trkpt>
      <trkpt lat="45.07958" lon="2.69975">
        <ele>1344.86</ele>
        <time>2022-10-20T12:58:07.000Z</time>
      </trkpt>
      <trkpt lat="45.07957" lon="2.69972">
        <ele>1342.87</ele>
        <time>2022-10-20T12:58:17.000Z</time>
      </trkpt>
      <trkpt lat="45.07954" lon="2.69967">
        <ele>1341.86</ele>
        <time>2022-10-20T12:58:27.000Z</time>
      </trkpt>
      <trkpt lat="45.07953" lon="2.69966">
        <ele>1340.86</ele>
        <time>2022-10-20T12:58:37.000Z</time>
      </trkpt>
      <trkpt lat="45.07953" lon="2.69962">
        <ele>1338.93</ele>
        <time>2022-10-20T12:58:46.051Z</time>
      </trkpt>
      <trkpt lat="45.07954" lon="2.6996">
        <ele>1338.88</ele>
        <time>2022-10-20T12:58:56.000Z</time>
      </trkpt>
      <trkpt lat="45.07955" lon="2.69958">
        <ele>1338.86</ele>
        <time>2022-10-20T12:59:06.000Z</time>
      </trkpt>
      <trkpt lat="45.07956" lon="2.69956">
        <ele>1338.11</ele>
        <time>2022-10-20T12:59:21.809Z</time>
      </trkpt>
      <trkpt lat="45.07961" lon="2.69956">
        <ele>1338.11</ele>
        <time>2022-10-20T12:59:31.000Z</time>
      </trkpt>
      <trkpt lat="45.07968" lon="2.69949">
        <ele>1335.87</ele>
        <time>2022-10-20T12:59:40.808Z</time>
      </trkpt>
      <trkpt lat="45.07973" lon="2.69944">
        <ele>1334.11</ele>
        <time>2022-10-20T12:59:51.000Z</time>
      </trkpt>
      <trkpt lat="45.07977" lon="2.69942">
        <ele>1331.11</ele>
        <time>2022-10-20T13:00:01.000Z</time>
      </trkpt>
      <trkpt lat="45.07986" lon="2.69936">
        <ele>1331.86</ele>
        <time>2022-10-20T13:00:10.111Z</time>
      </trkpt>
      <trkpt lat="45.07995" lon="2.69934">
        <ele>1330.12</ele>
        <time>2022-10-20T13:00:19.684Z</time>
      </trkpt>
      <trkpt lat="45.08002" lon="2.69925">
        <ele>1328.87</ele>
        <time>2022-10-20T13:00:29.013Z</time>
      </trkpt>
      <trkpt lat="45.08012" lon="2.69922">
        <ele>1327.86</ele>
        <time>2022-10-20T13:00:38.050Z</time>
      </trkpt>
      <trkpt lat="45.08021" lon="2.69918">
        <ele>1325.86</ele>
        <time>2022-10-20T13:00:47.051Z</time>
      </trkpt>
      <trkpt lat="45.08025" lon="2.69913">
        <ele>1324.86</ele>
        <time>2022-10-20T13:00:56.358Z</time>
      </trkpt>
      <trkpt lat="45.08027" lon="2.69911">
        <ele>1324.86</ele>
        <time>2022-10-20T13:01:06.000Z</time>
      </trkpt>
      <trkpt lat="45.08036" lon="2.69902">
        <ele>1323.87</ele>
        <time>2022-10-20T13:01:16.012Z</time>
      </trkpt>
      <trkpt lat="45.08041" lon="2.69896">
        <ele>1322.87</ele>
        <time>2022-10-20T13:01:26.000Z</time>
      </trkpt>
      <trkpt lat="45.08046" lon="2.69888">
        <ele>1321.87</ele>
        <time>2022-10-20T13:01:35.394Z</time>
      </trkpt>
      <trkpt lat="45.08051" lon="2.69881">
        <ele>1320.62</ele>
        <time>2022-10-20T13:01:44.511Z</time>
      </trkpt>
      <trkpt lat="45.08055" lon="2.69873">
        <ele>1318.88</ele>
        <time>2022-10-20T13:01:53.593Z</time>
      </trkpt>
      <trkpt lat="45.08058" lon="2.69864">
        <ele>1319.62</ele>
        <time>2022-10-20T13:02:03.000Z</time>
      </trkpt>
      <trkpt lat="45.08058" lon="2.69862">
        <ele>1322.85</ele>
        <time>2022-10-20T13:02:13.000Z</time>
      </trkpt>
      <trkpt lat="45.08059" lon="2.69861">
        <ele>1323.86</ele>
        <time>2022-10-20T13:02:23.000Z</time>
      </trkpt>
      <trkpt lat="45.0806" lon="2.69859">
        <ele>1324.87</ele>
        <time>2022-10-20T13:02:32.631Z</time>
      </trkpt>
      <trkpt lat="45.08062" lon="2.69853">
        <ele>1321.87</ele>
        <time>2022-10-20T13:02:42.000Z</time>
      </trkpt>
      <trkpt lat="45.08064" lon="2.69848">
        <ele>1320.88</ele>
        <time>2022-10-20T13:02:51.823Z</time>
      </trkpt>
      <trkpt lat="45.08065" lon="2.69844">
        <ele>1319.87</ele>
        <time>2022-10-20T13:03:01.000Z</time>
      </trkpt>
      <trkpt lat="45.08064" lon="2.69836">
        <ele>1315.24</ele>
        <time>2022-10-20T13:03:11.000Z</time>
      </trkpt>
      <trkpt lat="45.08062" lon="2.69831">
        <ele>1314.87</ele>
        <time>2022-10-20T13:03:21.000Z</time>
      </trkpt>
      <trkpt lat="45.0806" lon="2.69831">
        <ele>1312.87</ele>
        <time>2022-10-20T13:03:30.532Z</time>
      </trkpt>
      <trkpt lat="45.0806" lon="2.6983">
        <ele>1312.87</ele>
        <time>2022-10-20T13:03:44.000Z</time>
      </trkpt>
      <trkpt lat="45.0806" lon="2.69829">
        <ele>1313.9</ele>
        <time>2022-10-20T13:04:01.901Z</time>
      </trkpt>
      <trkpt lat="45.08059" lon="2.69826">
        <ele>1314.87</ele>
        <time>2022-10-20T13:04:12.000Z</time>
      </trkpt>
      <trkpt lat="45.08057" lon="2.69819">
        <ele>1311.87</ele>
        <time>2022-10-20T13:04:21.731Z</time>
      </trkpt>
      <trkpt lat="45.08055" lon="2.69814">
        <ele>1311.12</ele>
        <time>2022-10-20T13:04:32.000Z</time>
      </trkpt>
      <trkpt lat="45.08053" lon="2.69803">
        <ele>1308.12</ele>
        <time>2022-10-20T13:04:42.000Z</time>
      </trkpt>
      <trkpt lat="45.08051" lon="2.69792">
        <ele>1306.93</ele>
        <time>2022-10-20T13:04:51.162Z</time>
      </trkpt>
      <trkpt lat="45.0805" lon="2.69788">
        <ele>1305.87</ele>
        <time>2022-10-20T13:05:01.000Z</time>
      </trkpt>
      <trkpt lat="45.08049" lon="2.69788">
        <ele>1305.12</ele>
        <time>2022-10-20T13:07:07.000Z</time>
      </trkpt>
      <trkpt lat="45.08048" lon="2.69786">
        <ele>1306.55</ele>
        <time>2022-10-20T13:08:58.000Z</time>
      </trkpt>
      <trkpt lat="45.08049" lon="2.69782">
        <ele>1303.87</ele>
        <time>2022-10-20T13:09:08.053Z</time>
      </trkpt>
      <trkpt lat="45.0805" lon="2.69774">
        <ele>1301.68</ele>
        <time>2022-10-20T13:09:17.811Z</time>
      </trkpt>
      <trkpt lat="45.08049" lon="2.69769">
        <ele>1301.86</ele>
        <time>2022-10-20T13:09:27.000Z</time>
      </trkpt>
      <trkpt lat="45.08051" lon="2.69762">
        <ele>1303.8</ele>
        <time>2022-10-20T13:09:37.000Z</time>
      </trkpt>
      <trkpt lat="45.08052" lon="2.69751">
        <ele>1301.87</ele>
        <time>2022-10-20T13:09:46.671Z</time>
      </trkpt>
      <trkpt lat="45.08055" lon="2.69745">
        <ele>1301.12</ele>
        <time>2022-10-20T13:09:56.000Z</time>
      </trkpt>
      <trkpt lat="45.08056" lon="2.69732">
        <ele>1300.86</ele>
        <time>2022-10-20T13:10:06.000Z</time>
      </trkpt>
      <trkpt lat="45.08058" lon="2.69719">
        <ele>1299.87</ele>
        <time>2022-10-20T13:10:15.703Z</time>
      </trkpt>
      <trkpt lat="45.08057" lon="2.69713">
        <ele>1299.87</ele>
        <time>2022-10-20T13:10:24.993Z</time>
      </trkpt>
      <trkpt lat="45.08058" lon="2.69704">
        <ele>1297.87</ele>
        <time>2022-10-20T13:10:34.000Z</time>
      </trkpt>
      <trkpt lat="45.08062" lon="2.69695">
        <ele>1294.88</ele>
        <time>2022-10-20T13:10:43.074Z</time>
      </trkpt>
      <trkpt lat="45.08066" lon="2.69683">
        <ele>1291.37</ele>
        <time>2022-10-20T13:10:53.000Z</time>
      </trkpt>
      <trkpt lat="45.08067" lon="2.69675">
        <ele>1288.62</ele>
        <time>2022-10-20T13:11:03.000Z</time>
      </trkpt>
      <trkpt lat="45.08072" lon="2.69665">
        <ele>1286.87</ele>
        <time>2022-10-20T13:11:13.000Z</time>
      </trkpt>
      <trkpt lat="45.08074" lon="2.6966">
        <ele>1285.87</ele>
        <time>2022-10-20T13:11:22.633Z</time>
      </trkpt>
      <trkpt lat="45.08074" lon="2.69648">
        <ele>1288.62</ele>
        <time>2022-10-20T13:11:32.072Z</time>
      </trkpt>
      <trkpt lat="45.08075" lon="2.69631">
        <ele>1288.12</ele>
        <time>2022-10-20T13:11:41.550Z</time>
      </trkpt>
      <trkpt lat="45.08077" lon="2.69624">
        <ele>1285.14</ele>
        <time>2022-10-20T13:11:50.572Z</time>
      </trkpt>
      <trkpt lat="45.08079" lon="2.69613">
        <ele>1283.87</ele>
        <time>2022-10-20T13:12:01.000Z</time>
      </trkpt>
      <trkpt lat="45.08084" lon="2.69598">
        <ele>1278.93</ele>
        <time>2022-10-20T13:12:10.093Z</time>
      </trkpt>
      <trkpt lat="45.08089" lon="2.69585">
        <ele>1281.1</ele>
        <time>2022-10-20T13:12:20.074Z</time>
      </trkpt>
      <trkpt lat="45.08091" lon="2.69581">
        <ele>1279.87</ele>
        <time>2022-10-20T13:12:30.000Z</time>
      </trkpt>
      <trkpt lat="45.08094" lon="2.69573">
        <ele>1280.87</ele>
        <time>2022-10-20T13:12:39.452Z</time>
      </trkpt>
      <trkpt lat="45.081" lon="2.69564">
        <ele>1280.11</ele>
        <time>2022-10-20T13:12:50.000Z</time>
      </trkpt>
      <trkpt lat="45.08103" lon="2.69552">
        <ele>1275.87</ele>
        <time>2022-10-20T13:13:00.012Z</time>
      </trkpt>
      <trkpt lat="45.08108" lon="2.69542">
        <ele>1277.86</ele>
        <time>2022-10-20T13:13:09.511Z</time>
      </trkpt>
      <trkpt lat="45.08112" lon="2.69535">
        <ele>1278.87</ele>
        <time>2022-10-20T13:13:19.000Z</time>
      </trkpt>
      <trkpt lat="45.08116" lon="2.69526">
        <ele>1274.25</ele>
        <time>2022-10-20T13:13:29.000Z</time>
      </trkpt>
      <trkpt lat="45.08121" lon="2.69513">
        <ele>1273.81</ele>
        <time>2022-10-20T13:13:39.000Z</time>
      </trkpt>
      <trkpt lat="45.08124" lon="2.69505">
        <ele>1273.81</ele>
        <time>2022-10-20T13:13:48.433Z</time>
      </trkpt>
      <trkpt lat="45.08128" lon="2.69495">
        <ele>1270.94</ele>
        <time>2022-10-20T13:13:57.972Z</time>
      </trkpt>
      <trkpt lat="45.08133" lon="2.69485">
        <ele>1268.93</ele>
        <time>2022-10-20T13:14:07.000Z</time>
      </trkpt>
      <trkpt lat="45.08134" lon="2.69481">
        <ele>1269.12</ele>
        <time>2022-10-20T13:14:16.571Z</time>
      </trkpt>
      <trkpt lat="45.08138" lon="2.69471">
        <ele>1265.87</ele>
        <time>2022-10-20T13:14:25.732Z</time>
      </trkpt>
      <trkpt lat="45.08143" lon="2.69462">
        <ele>1264.93</ele>
        <time>2022-10-20T13:14:35.071Z</time>
      </trkpt>
      <trkpt lat="45.08149" lon="2.69453">
        <ele>1264.87</ele>
        <time>2022-10-20T13:14:46.000Z</time>
      </trkpt>
      <trkpt lat="45.08152" lon="2.69446">
        <ele>1264.12</ele>
        <time>2022-10-20T13:14:55.512Z</time>
      </trkpt>
      <trkpt lat="45.08159" lon="2.69438">
        <ele>1261.88</ele>
        <time>2022-10-20T13:15:04.531Z</time>
      </trkpt>
      <trkpt lat="45.08165" lon="2.6943">
        <ele>1259.94</ele>
        <time>2022-10-20T13:15:14.000Z</time>
      </trkpt>
      <trkpt lat="45.08171" lon="2.69418">
        <ele>1258.62</ele>
        <time>2022-10-20T13:15:24.000Z</time>
      </trkpt>
      <trkpt lat="45.08175" lon="2.69411">
        <ele>1256.94</ele>
        <time>2022-10-20T13:15:33.092Z</time>
      </trkpt>
      <trkpt lat="45.08181" lon="2.69404">
        <ele>1255.89</ele>
        <time>2022-10-20T13:15:43.000Z</time>
      </trkpt>
      <trkpt lat="45.0819" lon="2.69397">
        <ele>1253.14</ele>
        <time>2022-10-20T13:15:53.000Z</time>
      </trkpt>
      <trkpt lat="45.08196" lon="2.6939">
        <ele>1253.87</ele>
        <time>2022-10-20T13:16:03.000Z</time>
      </trkpt>
      <trkpt lat="45.08204" lon="2.6938">
        <ele>1253.12</ele>
        <time>2022-10-20T13:16:12.494Z</time>
      </trkpt>
      <trkpt lat="45.08212" lon="2.69374">
        <ele>1253.12</ele>
        <time>2022-10-20T13:16:22.000Z</time>
      </trkpt>
      <trkpt lat="45.08214" lon="2.69369">
        <ele>1253.87</ele>
        <time>2022-10-20T13:16:31.572Z</time>
      </trkpt>
      <trkpt lat="45.08218" lon="2.69365">
        <ele>1251.89</ele>
        <time>2022-10-20T13:16:41.072Z</time>
      </trkpt>
      <trkpt lat="45.08225" lon="2.69358">
        <ele>1251.87</ele>
        <time>2022-10-20T13:16:50.972Z</time>
      </trkpt>
      <trkpt lat="45.08229" lon="2.69353">
        <ele>1248.87</ele>
        <time>2022-10-20T13:17:00.000Z</time>
      </trkpt>
      <trkpt lat="45.08234" lon="2.69345">
        <ele>1246.94</ele>
        <time>2022-10-20T13:17:09.392Z</time>
      </trkpt>
      <trkpt lat="45.08238" lon="2.69339">
        <ele>1245.81</ele>
        <time>2022-10-20T13:17:19.000Z</time>
      </trkpt>
      <trkpt lat="45.08243" lon="2.6933">
        <ele>1243.86</ele>
        <time>2022-10-20T13:17:29.000Z</time>
      </trkpt>
      <trkpt lat="45.08249" lon="2.69326">
        <ele>1243.87</ele>
        <time>2022-10-20T13:17:38.453Z</time>
      </trkpt>
      <trkpt lat="45.08255" lon="2.69321">
        <ele>1240.89</ele>
        <time>2022-10-20T13:17:48.000Z</time>
      </trkpt>
      <trkpt lat="45.08264" lon="2.69312">
        <ele>1240.81</ele>
        <time>2022-10-20T13:17:57.132Z</time>
      </trkpt>
      <trkpt lat="45.08271" lon="2.69309">
        <ele>1238.94</ele>
        <time>2022-10-20T13:18:07.000Z</time>
      </trkpt>
      <trkpt lat="45.08283" lon="2.69305">
        <ele>1236.87</ele>
        <time>2022-10-20T13:18:16.111Z</time>
      </trkpt>
      <trkpt lat="45.08293" lon="2.69302">
        <ele>1235.87</ele>
        <time>2022-10-20T13:18:25.232Z</time>
      </trkpt>
      <trkpt lat="45.08301" lon="2.69296">
        <ele>1233.94</ele>
        <time>2022-10-20T13:18:34.691Z</time>
      </trkpt>
      <trkpt lat="45.08306" lon="2.69294">
        <ele>1232.87</ele>
        <time>2022-10-20T13:18:43.832Z</time>
      </trkpt>
      <trkpt lat="45.08315" lon="2.69287">
        <ele>1230.88</ele>
        <time>2022-10-20T13:18:53.023Z</time>
      </trkpt>
      <trkpt lat="45.0832" lon="2.69284">
        <ele>1229.12</ele>
        <time>2022-10-20T13:19:02.554Z</time>
      </trkpt>
      <trkpt lat="45.08328" lon="2.69281">
        <ele>1226.89</ele>
        <time>2022-10-20T13:19:11.592Z</time>
      </trkpt>
      <trkpt lat="45.08334" lon="2.69279">
        <ele>1223.88</ele>
        <time>2022-10-20T13:19:21.000Z</time>
      </trkpt>
      <trkpt lat="45.08339" lon="2.69278">
        <ele>1221.68</ele>
        <time>2022-10-20T13:19:30.451Z</time>
      </trkpt>
      <trkpt lat="45.08344" lon="2.69274">
        <ele>1219.13</ele>
        <time>2022-10-20T13:19:41.000Z</time>
      </trkpt>
      <trkpt lat="45.0835" lon="2.69266">
        <ele>1215.88</ele>
        <time>2022-10-20T13:19:50.481Z</time>
      </trkpt>
      <trkpt lat="45.08354" lon="2.6926">
        <ele>1214.88</ele>
        <time>2022-10-20T13:20:00.000Z</time>
      </trkpt>
      <trkpt lat="45.08359" lon="2.69254">
        <ele>1211.89</ele>
        <time>2022-10-20T13:20:09.954Z</time>
      </trkpt>
      <trkpt lat="45.08365" lon="2.69244">
        <ele>1210.88</ele>
        <time>2022-10-20T13:20:19.492Z</time>
      </trkpt>
      <trkpt lat="45.08366" lon="2.69242">
        <ele>1210.12</ele>
        <time>2022-10-20T13:20:29.000Z</time>
      </trkpt>
      <trkpt lat="45.0837" lon="2.69235">
        <ele>1209.87</ele>
        <time>2022-10-20T13:20:39.000Z</time>
      </trkpt>
      <trkpt lat="45.08373" lon="2.6923">
        <ele>1209.87</ele>
        <time>2022-10-20T13:20:49.000Z</time>
      </trkpt>
      <trkpt lat="45.08379" lon="2.69231">
        <ele>1207.87</ele>
        <time>2022-10-20T13:20:59.000Z</time>
      </trkpt>
      <trkpt lat="45.08381" lon="2.69233">
        <ele>1206.87</ele>
        <time>2022-10-20T13:21:09.000Z</time>
      </trkpt>
      <trkpt lat="45.0838" lon="2.69234">
        <ele>1207.87</ele>
        <time>2022-10-20T13:21:24.000Z</time>
      </trkpt>
      <trkpt lat="45.08379" lon="2.69235">
        <ele>1210.69</ele>
        <time>2022-10-20T13:21:34.000Z</time>
      </trkpt>
      <trkpt lat="45.08381" lon="2.69232">
        <ele>1208.87</ele>
        <time>2022-10-20T13:21:43.571Z</time>
      </trkpt>
      <trkpt lat="45.08381" lon="2.69226">
        <ele>1207.06</ele>
        <time>2022-10-20T13:21:53.111Z</time>
      </trkpt>
      <trkpt lat="45.08381" lon="2.69213">
        <ele>1206.88</ele>
        <time>2022-10-20T13:22:03.000Z</time>
      </trkpt>
      <trkpt lat="45.08386" lon="2.69198">
        <ele>1205.83</ele>
        <time>2022-10-20T13:22:12.915Z</time>
      </trkpt>
      <trkpt lat="45.08389" lon="2.6919">
        <ele>1205.81</ele>
        <time>2022-10-20T13:22:22.000Z</time>
      </trkpt>
      <trkpt lat="45.0839" lon="2.69183">
        <ele>1208.61</ele>
        <time>2022-10-20T13:22:31.809Z</time>
      </trkpt>
      <trkpt lat="45.08391" lon="2.69177">
        <ele>1210.87</ele>
        <time>2022-10-20T13:22:42.000Z</time>
      </trkpt>
      <trkpt lat="45.08391" lon="2.69166">
        <ele>1214.81</ele>
        <time>2022-10-20T13:22:51.192Z</time>
      </trkpt>
      <trkpt lat="45.08387" lon="2.69156">
        <ele>1216.88</ele>
        <time>2022-10-20T13:23:01.000Z</time>
      </trkpt>
      <trkpt lat="45.08383" lon="2.69144">
        <ele>1213.88</ele>
        <time>2022-10-20T13:23:10.162Z</time>
      </trkpt>
      <trkpt lat="45.0838" lon="2.69132">
        <ele>1216.12</ele>
        <time>2022-10-20T13:23:20.000Z</time>
      </trkpt>
      <trkpt lat="45.08376" lon="2.69117">
        <ele>1214.88</ele>
        <time>2022-10-20T13:23:29.271Z</time>
      </trkpt>
      <trkpt lat="45.08372" lon="2.69108">
        <ele>1215.88</ele>
        <time>2022-10-20T13:23:39.000Z</time>
      </trkpt>
      <trkpt lat="45.08373" lon="2.69099">
        <ele>1213.94</ele>
        <time>2022-10-20T13:23:48.592Z</time>
      </trkpt>
      <trkpt lat="45.08371" lon="2.69091">
        <ele>1211.38</ele>
        <time>2022-10-20T13:23:59.000Z</time>
      </trkpt>
      <trkpt lat="45.08367" lon="2.69081">
        <ele>1208.88</ele>
        <time>2022-10-20T13:24:09.000Z</time>
      </trkpt>
      <trkpt lat="45.08362" lon="2.69072">
        <ele>1206.19</ele>
        <time>2022-10-20T13:24:19.034Z</time>
      </trkpt>
      <trkpt lat="45.08357" lon="2.69062">
        <ele>1205.88</ele>
        <time>2022-10-20T13:24:29.000Z</time>
      </trkpt>
      <trkpt lat="45.08353" lon="2.69056">
        <ele>1202.13</ele>
        <time>2022-10-20T13:24:39.000Z</time>
      </trkpt>
      <trkpt lat="45.08349" lon="2.69043">
        <ele>1201.88</ele>
        <time>2022-10-20T13:24:48.573Z</time>
      </trkpt>
      <trkpt lat="45.08347" lon="2.69035">
        <ele>1200.88</ele>
        <time>2022-10-20T13:24:58.050Z</time>
      </trkpt>
      <trkpt lat="45.08341" lon="2.69022">
        <ele>1194.88</ele>
        <time>2022-10-20T13:25:07.378Z</time>
      </trkpt>
      <trkpt lat="45.08336" lon="2.69007">
        <ele>1193.12</ele>
        <time>2022-10-20T13:25:18.000Z</time>
      </trkpt>
      <trkpt lat="45.08336" lon="2.69005">
        <ele>1193.86</ele>
        <time>2022-10-20T13:25:27.012Z</time>
      </trkpt>
      <trkpt lat="45.0833" lon="2.68996">
        <ele>1192.13</ele>
        <time>2022-10-20T13:25:38.000Z</time>
      </trkpt>
      <trkpt lat="45.08326" lon="2.68985">
        <ele>1191.88</ele>
        <time>2022-10-20T13:25:47.452Z</time>
      </trkpt>
      <trkpt lat="45.08326" lon="2.68967">
        <ele>1191.88</ele>
        <time>2022-10-20T13:25:57.052Z</time>
      </trkpt>
      <trkpt lat="45.08326" lon="2.68957">
        <ele>1191.13</ele>
        <time>2022-10-20T13:26:06.563Z</time>
      </trkpt>
      <trkpt lat="45.08323" lon="2.68939">
        <ele>1188.88</ele>
        <time>2022-10-20T13:26:15.940Z</time>
      </trkpt>
      <trkpt lat="45.08322" lon="2.68925">
        <ele>1189.11</ele>
        <time>2022-10-20T13:26:26.000Z</time>
      </trkpt>
      <trkpt lat="45.08321" lon="2.6891">
        <ele>1188.88</ele>
        <time>2022-10-20T13:26:35.971Z</time>
      </trkpt>
      <trkpt lat="45.08325" lon="2.68901">
        <ele>1189.88</ele>
        <time>2022-10-20T13:26:45.000Z</time>
      </trkpt>
      <trkpt lat="45.08329" lon="2.68889">
        <ele>1187.9</ele>
        <time>2022-10-20T13:26:55.000Z</time>
      </trkpt>
      <trkpt lat="45.0833" lon="2.68873">
        <ele>1186.88</ele>
        <time>2022-10-20T13:27:04.612Z</time>
      </trkpt>
      <trkpt lat="45.08329" lon="2.68859">
        <ele>1189.88</ele>
        <time>2022-10-20T13:27:13.731Z</time>
      </trkpt>
      <trkpt lat="45.08332" lon="2.68849">
        <ele>1189.87</ele>
        <time>2022-10-20T13:27:23.140Z</time>
      </trkpt>
      <trkpt lat="45.08333" lon="2.68841">
        <ele>1189.88</ele>
        <time>2022-10-20T13:27:32.222Z</time>
      </trkpt>
      <trkpt lat="45.08336" lon="2.68829">
        <ele>1188.88</ele>
        <time>2022-10-20T13:27:41.692Z</time>
      </trkpt>
      <trkpt lat="45.08341" lon="2.6882">
        <ele>1187.69</ele>
        <time>2022-10-20T13:27:51.000Z</time>
      </trkpt>
      <trkpt lat="45.08347" lon="2.68809">
        <ele>1189.63</ele>
        <time>2022-10-20T13:28:00.973Z</time>
      </trkpt>
      <trkpt lat="45.08353" lon="2.68799">
        <ele>1188.19</ele>
        <time>2022-10-20T13:28:11.000Z</time>
      </trkpt>
      <trkpt lat="45.08363" lon="2.68787">
        <ele>1186.88</ele>
        <time>2022-10-20T13:28:20.442Z</time>
      </trkpt>
      <trkpt lat="45.08369" lon="2.68784">
        <ele>1187.88</ele>
        <time>2022-10-20T13:28:29.763Z</time>
      </trkpt>
      <trkpt lat="45.08372" lon="2.68777">
        <ele>1187.89</ele>
        <time>2022-10-20T13:28:40.000Z</time>
      </trkpt>
      <trkpt lat="45.08377" lon="2.68766">
        <ele>1186.95</ele>
        <time>2022-10-20T13:28:49.672Z</time>
      </trkpt>
      <trkpt lat="45.08376" lon="2.68756">
        <ele>1185.13</ele>
        <time>2022-10-20T13:28:59.000Z</time>
      </trkpt>
      <trkpt lat="45.08376" lon="2.68739">
        <ele>1181.89</ele>
        <time>2022-10-20T13:29:09.000Z</time>
      </trkpt>
      <trkpt lat="45.08377" lon="2.68723">
        <ele>1180.2</ele>
        <time>2022-10-20T13:29:18.071Z</time>
      </trkpt>
      <trkpt lat="45.08381" lon="2.68711">
        <ele>1177.63</ele>
        <time>2022-10-20T13:29:27.714Z</time>
      </trkpt>
      <trkpt lat="45.08384" lon="2.68701">
        <ele>1176.89</ele>
        <time>2022-10-20T13:29:37.773Z</time>
      </trkpt>
      <trkpt lat="45.08386" lon="2.68692">
        <ele>1175.9</ele>
        <time>2022-10-20T13:29:46.973Z</time>
      </trkpt>
      <trkpt lat="45.08391" lon="2.68686">
        <ele>1172.95</ele>
        <time>2022-10-20T13:29:56.000Z</time>
      </trkpt>
      <trkpt lat="45.08398" lon="2.68679">
        <ele>1173.87</ele>
        <time>2022-10-20T13:30:05.694Z</time>
      </trkpt>
      <trkpt lat="45.08402" lon="2.68675">
        <ele>1172.63</ele>
        <time>2022-10-20T13:30:16.000Z</time>
      </trkpt>
      <trkpt lat="45.08406" lon="2.68664">
        <ele>1171.88</ele>
        <time>2022-10-20T13:30:26.000Z</time>
      </trkpt>
      <trkpt lat="45.08408" lon="2.68649">
        <ele>1172.13</ele>
        <time>2022-10-20T13:30:35.912Z</time>
      </trkpt>
      <trkpt lat="45.08412" lon="2.68637">
        <ele>1168.89</ele>
        <time>2022-10-20T13:30:45.000Z</time>
      </trkpt>
      <trkpt lat="45.08418" lon="2.68619">
        <ele>1168.82</ele>
        <time>2022-10-20T13:30:55.000Z</time>
      </trkpt>
      <trkpt lat="45.0842" lon="2.68613">
        <ele>1168.89</ele>
        <time>2022-10-20T13:31:04.571Z</time>
      </trkpt>
      <trkpt lat="45.08424" lon="2.68607">
        <ele>1168.89</ele>
        <time>2022-10-20T13:31:14.000Z</time>
      </trkpt>
      <trkpt lat="45.08427" lon="2.68598">
        <ele>1166.39</ele>
        <time>2022-10-20T13:31:24.000Z</time>
      </trkpt>
      <trkpt lat="45.08432" lon="2.68588">
        <ele>1160.89</ele>
        <time>2022-10-20T13:31:33.094Z</time>
      </trkpt>
      <trkpt lat="45.08434" lon="2.68584">
        <ele>1160.89</ele>
        <time>2022-10-20T13:31:43.000Z</time>
      </trkpt>
      <trkpt lat="45.08435" lon="2.6858">
        <ele>1160.89</ele>
        <time>2022-10-20T13:31:53.000Z</time>
      </trkpt>
      <trkpt lat="45.08437" lon="2.68576">
        <ele>1158.89</ele>
        <time>2022-10-20T13:32:03.000Z</time>
      </trkpt>
      <trkpt lat="45.08439" lon="2.68571">
        <ele>1158.14</ele>
        <time>2022-10-20T13:32:13.000Z</time>
      </trkpt>
      <trkpt lat="45.08437" lon="2.68564">
        <ele>1158.1</ele>
        <time>2022-10-20T13:32:23.000Z</time>
      </trkpt>
      <trkpt lat="45.08433" lon="2.68553">
        <ele>1156.13</ele>
        <time>2022-10-20T13:32:33.092Z</time>
      </trkpt>
      <trkpt lat="45.08432" lon="2.68541">
        <ele>1155.9</ele>
        <time>2022-10-20T13:32:42.611Z</time>
      </trkpt>
      <trkpt lat="45.08435" lon="2.68532">
        <ele>1154.95</ele>
        <time>2022-10-20T13:32:52.131Z</time>
      </trkpt>
      <trkpt lat="45.08438" lon="2.68519">
        <ele>1152.89</ele>
        <time>2022-10-20T13:33:01.694Z</time>
      </trkpt>
      <trkpt lat="45.0844" lon="2.68507">
        <ele>1150.89</ele>
        <time>2022-10-20T13:33:10.856Z</time>
      </trkpt>
      <trkpt lat="45.0844" lon="2.68498">
        <ele>1152.89</ele>
        <time>2022-10-20T13:33:20.593Z</time>
      </trkpt>
      <trkpt lat="45.08441" lon="2.68492">
        <ele>1151.89</ele>
        <time>2022-10-20T13:33:30.000Z</time>
      </trkpt>
      <trkpt lat="45.08447" lon="2.68484">
        <ele>1152.89</ele>
        <time>2022-10-20T13:33:40.000Z</time>
      </trkpt>
      <trkpt lat="45.08451" lon="2.68472">
        <ele>1152.89</ele>
        <time>2022-10-20T13:33:50.000Z</time>
      </trkpt>
      <trkpt lat="45.08452" lon="2.68461">
        <ele>1152.95</ele>
        <time>2022-10-20T13:33:59.012Z</time>
      </trkpt>
      <trkpt lat="45.08452" lon="2.68452">
        <ele>1152.89</ele>
        <time>2022-10-20T13:34:08.112Z</time>
      </trkpt>
      <trkpt lat="45.08452" lon="2.68441">
        <ele>1151.14</ele>
        <time>2022-10-20T13:34:17.614Z</time>
      </trkpt>
      <trkpt lat="45.08453" lon="2.68433">
        <ele>1151.88</ele>
        <time>2022-10-20T13:34:27.000Z</time>
      </trkpt>
      <trkpt lat="45.08455" lon="2.68425">
        <ele>1149.14</ele>
        <time>2022-10-20T13:34:37.000Z</time>
      </trkpt>
      <trkpt lat="45.08457" lon="2.6842">
        <ele>1147.89</ele>
        <time>2022-10-20T13:34:47.000Z</time>
      </trkpt>
      <trkpt lat="45.08458" lon="2.68419">
        <ele>1146.39</ele>
        <time>2022-10-20T13:35:00.000Z</time>
      </trkpt>
      <trkpt lat="45.0846" lon="2.68415">
        <ele>1144.89</ele>
        <time>2022-10-20T13:35:10.000Z</time>
      </trkpt>
      <trkpt lat="45.08462" lon="2.6841">
        <ele>1144.89</ele>
        <time>2022-10-20T13:35:19.161Z</time>
      </trkpt>
      <trkpt lat="45.08463" lon="2.684">
        <ele>1144.64</ele>
        <time>2022-10-20T13:35:28.672Z</time>
      </trkpt>
      <trkpt lat="45.08463" lon="2.68393">
        <ele>1143.89</ele>
        <time>2022-10-20T13:35:38.000Z</time>
      </trkpt>
      <trkpt lat="45.08463" lon="2.68391">
        <ele>1143.89</ele>
        <time>2022-10-20T13:35:48.000Z</time>
      </trkpt>
      <trkpt lat="45.08463" lon="2.68389">
        <ele>1142.89</ele>
        <time>2022-10-20T13:36:01.614Z</time>
      </trkpt>
      <trkpt lat="45.08463" lon="2.68387">
        <ele>1143.9</ele>
        <time>2022-10-20T13:36:10.855Z</time>
      </trkpt>
      <trkpt lat="45.08463" lon="2.68382">
        <ele>1142.89</ele>
        <time>2022-10-20T13:36:20.031Z</time>
      </trkpt>
      <trkpt lat="45.08467" lon="2.68372">
        <ele>1142.89</ele>
        <time>2022-10-20T13:36:29.412Z</time>
      </trkpt>
      <trkpt lat="45.08469" lon="2.68362">
        <ele>1141.89</ele>
        <time>2022-10-20T13:36:38.712Z</time>
      </trkpt>
      <trkpt lat="45.08469" lon="2.68351">
        <ele>1136.96</ele>
        <time>2022-10-20T13:36:48.074Z</time>
      </trkpt>
      <trkpt lat="45.08469" lon="2.68342">
        <ele>1136.64</ele>
        <time>2022-10-20T13:36:57.511Z</time>
      </trkpt>
      <trkpt lat="45.08467" lon="2.68334">
        <ele>1135.89</ele>
        <time>2022-10-20T13:37:06.712Z</time>
      </trkpt>
      <trkpt lat="45.08467" lon="2.68324">
        <ele>1135.89</ele>
        <time>2022-10-20T13:37:16.000Z</time>
      </trkpt>
      <trkpt lat="45.08468" lon="2.68314">
        <ele>1134.89</ele>
        <time>2022-10-20T13:37:26.000Z</time>
      </trkpt>
      <trkpt lat="45.08468" lon="2.68301">
        <ele>1131.89</ele>
        <time>2022-10-20T13:37:35.472Z</time>
      </trkpt>
      <trkpt lat="45.08468" lon="2.68294">
        <ele>1131.89</ele>
        <time>2022-10-20T13:37:44.573Z</time>
      </trkpt>
      <trkpt lat="45.08464" lon="2.68282">
        <ele>1129.14</ele>
        <time>2022-10-20T13:37:55.000Z</time>
      </trkpt>
      <trkpt lat="45.08458" lon="2.68273">
        <ele>1122.91</ele>
        <time>2022-10-20T13:38:04.912Z</time>
      </trkpt>
      <trkpt lat="45.08457" lon="2.68266">
        <ele>1120.69</ele>
        <time>2022-10-20T13:38:14.000Z</time>
      </trkpt>
      <trkpt lat="45.08455" lon="2.68262">
        <ele>1114.91</ele>
        <time>2022-10-20T13:38:24.000Z</time>
      </trkpt>
      <trkpt lat="45.08455" lon="2.6825">
        <ele>1113.14</ele>
        <time>2022-10-20T13:38:33.052Z</time>
      </trkpt>
      <trkpt lat="45.08456" lon="2.68244">
        <ele>1111.89</ele>
        <time>2022-10-20T13:38:43.000Z</time>
      </trkpt>
      <trkpt lat="45.08456" lon="2.68241">
        <ele>1111.89</ele>
        <time>2022-10-20T13:38:52.092Z</time>
      </trkpt>
      <trkpt lat="45.08453" lon="2.68234">
        <ele>1114.58</ele>
        <time>2022-10-20T13:39:01.332Z</time>
      </trkpt>
      <trkpt lat="45.08449" lon="2.6823">
        <ele>1116.14</ele>
        <time>2022-10-20T13:39:11.000Z</time>
      </trkpt>
      <trkpt lat="45.08442" lon="2.68223">
        <ele>1112.89</ele>
        <time>2022-10-20T13:39:21.000Z</time>
      </trkpt>
      <trkpt lat="45.08431" lon="2.68217">
        <ele>1113.89</ele>
        <time>2022-10-20T13:39:31.000Z</time>
      </trkpt>
      <trkpt lat="45.08424" lon="2.68214">
        <ele>1112.95</ele>
        <time>2022-10-20T13:39:41.000Z</time>
      </trkpt>
      <trkpt lat="45.08417" lon="2.68212">
        <ele>1113.89</ele>
        <time>2022-10-20T13:39:50.774Z</time>
      </trkpt>
      <trkpt lat="45.08408" lon="2.68214">
        <ele>1114.95</ele>
        <time>2022-10-20T13:40:00.464Z</time>
      </trkpt>
      <trkpt lat="45.08402" lon="2.68219">
        <ele>1116.7</ele>
        <time>2022-10-20T13:40:09.612Z</time>
      </trkpt>
      <trkpt lat="45.08398" lon="2.68224">
        <ele>1118.89</ele>
        <time>2022-10-20T13:40:19.000Z</time>
      </trkpt>
      <trkpt lat="45.08398" lon="2.68225">
        <ele>1116.89</ele>
        <time>2022-10-20T13:40:46.000Z</time>
      </trkpt>
      <trkpt lat="45.08397" lon="2.68225">
        <ele>1115.2</ele>
        <time>2022-10-20T13:41:14.000Z</time>
      </trkpt>
      <trkpt lat="45.08398" lon="2.68226">
        <ele>1116.89</ele>
        <time>2022-10-20T13:41:32.000Z</time>
      </trkpt>
      <trkpt lat="45.08396" lon="2.68225">
        <ele>1116.89</ele>
        <time>2022-10-20T13:41:41.031Z</time>
      </trkpt>
      <trkpt lat="45.08398" lon="2.68221">
        <ele>1116.89</ele>
        <time>2022-10-20T13:41:50.292Z</time>
      </trkpt>
      <trkpt lat="45.08398" lon="2.68217">
        <ele>1116.89</ele>
        <time>2022-10-20T13:41:59.674Z</time>
      </trkpt>
      <trkpt lat="45.08397" lon="2.68217">
        <ele>1115.9</ele>
        <time>2022-10-20T13:42:18.000Z</time>
      </trkpt>
      <trkpt lat="45.08397" lon="2.68218">
        <ele>1114.89</ele>
        <time>2022-10-20T13:42:37.000Z</time>
      </trkpt>
      <trkpt lat="45.08397" lon="2.68217">
        <ele>1112.89</ele>
        <time>2022-10-20T13:43:16.000Z</time>
      </trkpt>
      <trkpt lat="45.08398" lon="2.68215">
        <ele>1111.65</ele>
        <time>2022-10-20T13:43:39.000Z</time>
      </trkpt>
      <trkpt lat="45.08405" lon="2.68212">
        <ele>1111.89</ele>
        <time>2022-10-20T13:43:48.432Z</time>
      </trkpt>
      <trkpt lat="45.08413" lon="2.68209">
        <ele>1112.65</ele>
        <time>2022-10-20T13:43:57.552Z</time>
      </trkpt>
      <trkpt lat="45.0842" lon="2.68209">
        <ele>1112.64</ele>
        <time>2022-10-20T13:44:08.000Z</time>
      </trkpt>
      <trkpt lat="45.0843" lon="2.68215">
        <ele>1111.89</ele>
        <time>2022-10-20T13:44:17.113Z</time>
      </trkpt>
      <trkpt lat="45.08436" lon="2.68219">
        <ele>1112.83</ele>
        <time>2022-10-20T13:44:26.910Z</time>
      </trkpt>
      <trkpt lat="45.08445" lon="2.68227">
        <ele>1112.89</ele>
        <time>2022-10-20T13:44:35.931Z</time>
      </trkpt>
      <trkpt lat="45.08451" lon="2.68234">
        <ele>1112.14</ele>
        <time>2022-10-20T13:44:46.000Z</time>
      </trkpt>
      <trkpt lat="45.08458" lon="2.68244">
        <ele>1110.89</ele>
        <time>2022-10-20T13:44:56.000Z</time>
      </trkpt>
      <trkpt lat="45.08467" lon="2.68256">
        <ele>1109.83</ele>
        <time>2022-10-20T13:45:05.111Z</time>
      </trkpt>
      <trkpt lat="45.08475" lon="2.68266">
        <ele>1106.89</ele>
        <time>2022-10-20T13:45:16.000Z</time>
      </trkpt>
      <trkpt lat="45.08476" lon="2.68268">
        <ele>1107.89</ele>
        <time>2022-10-20T13:45:25.012Z</time>
      </trkpt>
      <trkpt lat="45.08478" lon="2.68273">
        <ele>1106.89</ele>
        <time>2022-10-20T13:45:34.896Z</time>
      </trkpt>
      <trkpt lat="45.08482" lon="2.68276">
        <ele>1105.14</ele>
        <time>2022-10-20T13:45:44.000Z</time>
      </trkpt>
      <trkpt lat="45.08492" lon="2.68284">
        <ele>1105.89</ele>
        <time>2022-10-20T13:45:53.031Z</time>
      </trkpt>
      <trkpt lat="45.08501" lon="2.68294">
        <ele>1105.89</ele>
        <time>2022-10-20T13:46:02.512Z</time>
      </trkpt>
      <trkpt lat="45.0851" lon="2.68306">
        <ele>1103.95</ele>
        <time>2022-10-20T13:46:12.051Z</time>
      </trkpt>
      <trkpt lat="45.0852" lon="2.68313">
        <ele>1103.89</ele>
        <time>2022-10-20T13:46:22.000Z</time>
      </trkpt>
      <trkpt lat="45.08527" lon="2.68319">
        <ele>1104.88</ele>
        <time>2022-10-20T13:46:32.000Z</time>
      </trkpt>
      <trkpt lat="45.08531" lon="2.68324">
        <ele>1102.89</ele>
        <time>2022-10-20T13:46:42.000Z</time>
      </trkpt>
      <trkpt lat="45.08539" lon="2.68333">
        <ele>1098.89</ele>
        <time>2022-10-20T13:46:51.551Z</time>
      </trkpt>
      <trkpt lat="45.08546" lon="2.68342">
        <ele>1097.89</ele>
        <time>2022-10-20T13:47:01.000Z</time>
      </trkpt>
      <trkpt lat="45.08551" lon="2.68353">
        <ele>1097.89</ele>
        <time>2022-10-20T13:47:10.011Z</time>
      </trkpt>
      <trkpt lat="45.08557" lon="2.68365">
        <ele>1096.89</ele>
        <time>2022-10-20T13:47:19.532Z</time>
      </trkpt>
      <trkpt lat="45.08561" lon="2.6837">
        <ele>1096.87</ele>
        <time>2022-10-20T13:47:28.534Z</time>
      </trkpt>
      <trkpt lat="45.08566" lon="2.68376">
        <ele>1094.95</ele>
        <time>2022-10-20T13:47:38.000Z</time>
      </trkpt>
      <trkpt lat="45.08568" lon="2.68386">
        <ele>1095.64</ele>
        <time>2022-10-20T13:47:47.392Z</time>
      </trkpt>
      <trkpt lat="45.08569" lon="2.68396">
        <ele>1094.14</ele>
        <time>2022-10-20T13:47:56.459Z</time>
      </trkpt>
      <trkpt lat="45.08571" lon="2.68405">
        <ele>1094.89</ele>
        <time>2022-10-20T13:48:05.533Z</time>
      </trkpt>
      <trkpt lat="45.08572" lon="2.68415">
        <ele>1094.89</ele>
        <time>2022-10-20T13:48:14.651Z</time>
      </trkpt>
      <trkpt lat="45.08573" lon="2.68423">
        <ele>1095.89</ele>
        <time>2022-10-20T13:48:23.654Z</time>
      </trkpt>
      <trkpt lat="45.08576" lon="2.68435">
        <ele>1092.91</ele>
        <time>2022-10-20T13:48:33.000Z</time>
      </trkpt>
      <trkpt lat="45.08577" lon="2.68445">
        <ele>1091.89</ele>
        <time>2022-10-20T13:48:43.000Z</time>
      </trkpt>
      <trkpt lat="45.08575" lon="2.6846">
        <ele>1087.95</ele>
        <time>2022-10-20T13:48:53.000Z</time>
      </trkpt>
      <trkpt lat="45.08577" lon="2.68463">
        <ele>1087.89</ele>
        <time>2022-10-20T13:49:02.552Z</time>
      </trkpt>
      <trkpt lat="45.08577" lon="2.68472">
        <ele>1088.07</ele>
        <time>2022-10-20T13:49:12.000Z</time>
      </trkpt>
      <trkpt lat="45.0858" lon="2.68493">
        <ele>1086.89</ele>
        <time>2022-10-20T13:49:21.411Z</time>
      </trkpt>
      <trkpt lat="45.08582" lon="2.68504">
        <ele>1086.89</ele>
        <time>2022-10-20T13:49:31.000Z</time>
      </trkpt>
      <trkpt lat="45.08583" lon="2.6852">
        <ele>1084.89</ele>
        <time>2022-10-20T13:49:41.000Z</time>
      </trkpt>
      <trkpt lat="45.08586" lon="2.68531">
        <ele>1084.87</ele>
        <time>2022-10-20T13:49:50.491Z</time>
      </trkpt>
      <trkpt lat="45.08587" lon="2.68539">
        <ele>1082.64</ele>
        <time>2022-10-20T13:50:00.000Z</time>
      </trkpt>
      <trkpt lat="45.08592" lon="2.68553">
        <ele>1079.89</ele>
        <time>2022-10-20T13:50:09.394Z</time>
      </trkpt>
      <trkpt lat="45.08596" lon="2.6857">
        <ele>1079.88</ele>
        <time>2022-10-20T13:50:18.670Z</time>
      </trkpt>
      <trkpt lat="45.08603" lon="2.68585">
        <ele>1077.89</ele>
        <time>2022-10-20T13:50:27.714Z</time>
      </trkpt>
      <trkpt lat="45.08608" lon="2.68596">
        <ele>1075.88</ele>
        <time>2022-10-20T13:50:36.900Z</time>
      </trkpt>
      <trkpt lat="45.08612" lon="2.68605">
        <ele>1075.89</ele>
        <time>2022-10-20T13:50:46.052Z</time>
      </trkpt>
      <trkpt lat="45.08619" lon="2.6862">
        <ele>1072.88</ele>
        <time>2022-10-20T13:50:56.000Z</time>
      </trkpt>
      <trkpt lat="45.08629" lon="2.68634">
        <ele>1069.88</ele>
        <time>2022-10-20T13:51:05.131Z</time>
      </trkpt>
      <trkpt lat="45.08631" lon="2.68641">
        <ele>1068.88</ele>
        <time>2022-10-20T13:51:15.000Z</time>
      </trkpt>
      <trkpt lat="45.08633" lon="2.68642">
        <ele>1070.63</ele>
        <time>2022-10-20T13:51:25.000Z</time>
      </trkpt>
      <trkpt lat="45.08641" lon="2.6864">
        <ele>1069.88</ele>
        <time>2022-10-20T13:51:35.000Z</time>
      </trkpt>
      <trkpt lat="45.08647" lon="2.68627">
        <ele>1072.63</ele>
        <time>2022-10-20T13:51:44.352Z</time>
      </trkpt>
      <trkpt lat="45.08645" lon="2.68615">
        <ele>1069.95</ele>
        <time>2022-10-20T13:51:54.000Z</time>
      </trkpt>
      <trkpt lat="45.08645" lon="2.68599">
        <ele>1068.83</ele>
        <time>2022-10-20T13:52:03.074Z</time>
      </trkpt>
      <trkpt lat="45.08649" lon="2.68581">
        <ele>1065.95</ele>
        <time>2022-10-20T13:52:13.000Z</time>
      </trkpt>
      <trkpt lat="45.08651" lon="2.68563">
        <ele>1064.84</ele>
        <time>2022-10-20T13:52:22.143Z</time>
      </trkpt>
      <trkpt lat="45.08651" lon="2.68547">
        <ele>1061.89</ele>
        <time>2022-10-20T13:52:31.354Z</time>
      </trkpt>
      <trkpt lat="45.08649" lon="2.68534">
        <ele>1062.89</ele>
        <time>2022-10-20T13:52:40.873Z</time>
      </trkpt>
      <trkpt lat="45.08648" lon="2.68525">
        <ele>1060.2</ele>
        <time>2022-10-20T13:52:50.000Z</time>
      </trkpt>
      <trkpt lat="45.08649" lon="2.68508">
        <ele>1058.89</ele>
        <time>2022-10-20T13:52:59.113Z</time>
      </trkpt>
      <trkpt lat="45.08649" lon="2.68496">
        <ele>1058.9</ele>
        <time>2022-10-20T13:53:08.612Z</time>
      </trkpt>
      <trkpt lat="45.08648" lon="2.68483">
        <ele>1057.9</ele>
        <time>2022-10-20T13:53:17.897Z</time>
      </trkpt>
      <trkpt lat="45.08647" lon="2.68473">
        <ele>1057.89</ele>
        <time>2022-10-20T13:53:27.000Z</time>
      </trkpt>
      <trkpt lat="45.08647" lon="2.68458">
        <ele>1057.89</ele>
        <time>2022-10-20T13:53:37.011Z</time>
      </trkpt>
      <trkpt lat="45.08646" lon="2.68444">
        <ele>1056.89</ele>
        <time>2022-10-20T13:53:47.033Z</time>
      </trkpt>
      <trkpt lat="45.08647" lon="2.68429">
        <ele>1055.14</ele>
        <time>2022-10-20T13:53:57.074Z</time>
      </trkpt>
      <trkpt lat="45.08646" lon="2.68414">
        <ele>1053.87</ele>
        <time>2022-10-20T13:54:07.071Z</time>
      </trkpt>
      <trkpt lat="45.08648" lon="2.68402">
        <ele>1051.64</ele>
        <time>2022-10-20T13:54:16.491Z</time>
      </trkpt>
      <trkpt lat="45.08649" lon="2.68389">
        <ele>1053.87</ele>
        <time>2022-10-20T13:54:25.632Z</time>
      </trkpt>
      <trkpt lat="45.08651" lon="2.68375">
        <ele>1053.06</ele>
        <time>2022-10-20T13:54:35.000Z</time>
      </trkpt>
      <trkpt lat="45.08652" lon="2.68359">
        <ele>1050.89</ele>
        <time>2022-10-20T13:54:44.151Z</time>
      </trkpt>
      <trkpt lat="45.08652" lon="2.68343">
        <ele>1049.14</ele>
        <time>2022-10-20T13:54:54.073Z</time>
      </trkpt>
      <trkpt lat="45.08652" lon="2.68328">
        <ele>1046.9</ele>
        <time>2022-10-20T13:55:03.671Z</time>
      </trkpt>
      <trkpt lat="45.08652" lon="2.68314">
        <ele>1045.14</ele>
        <time>2022-10-20T13:55:14.000Z</time>
      </trkpt>
      <trkpt lat="45.0865" lon="2.68299">
        <ele>1043.89</ele>
        <time>2022-10-20T13:55:23.492Z</time>
      </trkpt>
      <trkpt lat="45.08649" lon="2.68287">
        <ele>1042.89</ele>
        <time>2022-10-20T13:55:33.000Z</time>
      </trkpt>
      <trkpt lat="45.08647" lon="2.68273">
        <ele>1040.89</ele>
        <time>2022-10-20T13:55:42.672Z</time>
      </trkpt>
      <trkpt lat="45.08644" lon="2.68262">
        <ele>1039.14</ele>
        <time>2022-10-20T13:55:51.792Z</time>
      </trkpt>
      <trkpt lat="45.08643" lon="2.68251">
        <ele>1038.89</ele>
        <time>2022-10-20T13:56:01.032Z</time>
      </trkpt>
      <trkpt lat="45.08642" lon="2.68238">
        <ele>1037.14</ele>
        <time>2022-10-20T13:56:10.313Z</time>
      </trkpt>
      <trkpt lat="45.0864" lon="2.68228">
        <ele>1033.91</ele>
        <time>2022-10-20T13:56:19.511Z</time>
      </trkpt>
      <trkpt lat="45.08637" lon="2.68216">
        <ele>1033.83</ele>
        <time>2022-10-20T13:56:28.998Z</time>
      </trkpt>
      <trkpt lat="45.08633" lon="2.68203">
        <ele>1032.89</ele>
        <time>2022-10-20T13:56:38.534Z</time>
      </trkpt>
      <trkpt lat="45.0863" lon="2.6819">
        <ele>1032.89</ele>
        <time>2022-10-20T13:56:47.790Z</time>
      </trkpt>
      <trkpt lat="45.08623" lon="2.6818">
        <ele>1030.89</ele>
        <time>2022-10-20T13:56:57.924Z</time>
      </trkpt>
      <trkpt lat="45.08617" lon="2.68169">
        <ele>1030.89</ele>
        <time>2022-10-20T13:57:07.042Z</time>
      </trkpt>
      <trkpt lat="45.0861" lon="2.6816">
        <ele>1030.83</ele>
        <time>2022-10-20T13:57:16.491Z</time>
      </trkpt>
      <trkpt lat="45.08604" lon="2.68151">
        <ele>1033.83</ele>
        <time>2022-10-20T13:57:25.885Z</time>
      </trkpt>
      <trkpt lat="45.08596" lon="2.68147">
        <ele>1032.14</ele>
        <time>2022-10-20T13:57:36.000Z</time>
      </trkpt>
      <trkpt lat="45.08593" lon="2.68146">
        <ele>1030.89</ele>
        <time>2022-10-20T13:57:46.000Z</time>
      </trkpt>
      <trkpt lat="45.08589" lon="2.68139">
        <ele>1028.89</ele>
        <time>2022-10-20T13:57:56.000Z</time>
      </trkpt>
      <trkpt lat="45.08585" lon="2.68132">
        <ele>1030.89</ele>
        <time>2022-10-20T13:58:05.574Z</time>
      </trkpt>
      <trkpt lat="45.08577" lon="2.68124">
        <ele>1030.89</ele>
        <time>2022-10-20T13:58:14.634Z</time>
      </trkpt>
      <trkpt lat="45.08565" lon="2.68112">
        <ele>1030.89</ele>
        <time>2022-10-20T13:58:24.052Z</time>
      </trkpt>
      <trkpt lat="45.08557" lon="2.68096">
        <ele>1031.91</ele>
        <time>2022-10-20T13:58:33.412Z</time>
      </trkpt>
      <trkpt lat="45.08553" lon="2.68081">
        <ele>1029.89</ele>
        <time>2022-10-20T13:58:42.533Z</time>
      </trkpt>
      <trkpt lat="45.08551" lon="2.68062">
        <ele>1031.89</ele>
        <time>2022-10-20T13:58:52.000Z</time>
      </trkpt>
      <trkpt lat="45.08548" lon="2.68047">
        <ele>1028.89</ele>
        <time>2022-10-20T13:59:01.072Z</time>
      </trkpt>
      <trkpt lat="45.08547" lon="2.6804">
        <ele>1029.89</ele>
        <time>2022-10-20T13:59:10.432Z</time>
      </trkpt>
      <trkpt lat="45.08542" lon="2.68022">
        <ele>1028.88</ele>
        <time>2022-10-20T13:59:19.533Z</time>
      </trkpt>
      <trkpt lat="45.08536" lon="2.68003">
        <ele>1027.9</ele>
        <time>2022-10-20T13:59:28.921Z</time>
      </trkpt>
      <trkpt lat="45.0853" lon="2.67988">
        <ele>1026.65</ele>
        <time>2022-10-20T13:59:39.000Z</time>
      </trkpt>
      <trkpt lat="45.08529" lon="2.67973">
        <ele>1023.71</ele>
        <time>2022-10-20T13:59:49.000Z</time>
      </trkpt>
      <trkpt lat="45.08527" lon="2.67954">
        <ele>1025.9</ele>
        <time>2022-10-20T13:59:59.054Z</time>
      </trkpt>
      <trkpt lat="45.08522" lon="2.67944">
        <ele>1024.15</ele>
        <time>2022-10-20T14:00:10.000Z</time>
      </trkpt>
      <trkpt lat="45.08515" lon="2.67933">
        <ele>1023.9</ele>
        <time>2022-10-20T14:00:19.512Z</time>
      </trkpt>
      <trkpt lat="45.08509" lon="2.67921">
        <ele>1021.9</ele>
        <time>2022-10-20T14:00:28.552Z</time>
      </trkpt>
      <trkpt lat="45.08502" lon="2.67913">
        <ele>1019.9</ele>
        <time>2022-10-20T14:00:37.773Z</time>
      </trkpt>
      <trkpt lat="45.08495" lon="2.67906">
        <ele>1018.9</ele>
        <time>2022-10-20T14:00:46.812Z</time>
      </trkpt>
      <trkpt lat="45.08486" lon="2.67897">
        <ele>1019.9</ele>
        <time>2022-10-20T14:00:57.000Z</time>
      </trkpt>
      <trkpt lat="45.08477" lon="2.67885">
        <ele>1018.9</ele>
        <time>2022-10-20T14:01:07.090Z</time>
      </trkpt>
      <trkpt lat="45.08466" lon="2.67874">
        <ele>1017.66</ele>
        <time>2022-10-20T14:01:16.343Z</time>
      </trkpt>
      <trkpt lat="45.08457" lon="2.67868">
        <ele>1018.9</ele>
        <time>2022-10-20T14:01:25.631Z</time>
      </trkpt>
      <trkpt lat="45.08448" lon="2.67861">
        <ele>1017.9</ele>
        <time>2022-10-20T14:01:34.888Z</time>
      </trkpt>
      <trkpt lat="45.0844" lon="2.67855">
        <ele>1017.96</ele>
        <time>2022-10-20T14:01:44.014Z</time>
      </trkpt>
      <trkpt lat="45.08437" lon="2.67843">
        <ele>1016.9</ele>
        <time>2022-10-20T14:01:53.921Z</time>
      </trkpt>
      <trkpt lat="45.08434" lon="2.6783">
        <ele>1012.96</ele>
        <time>2022-10-20T14:02:03.000Z</time>
      </trkpt>
      <trkpt lat="45.08428" lon="2.6782">
        <ele>1011.84</ele>
        <time>2022-10-20T14:02:12.297Z</time>
      </trkpt>
      <trkpt lat="45.08423" lon="2.67809">
        <ele>1012.9</ele>
        <time>2022-10-20T14:02:21.897Z</time>
      </trkpt>
      <trkpt lat="45.0842" lon="2.67796">
        <ele>1012.9</ele>
        <time>2022-10-20T14:02:31.112Z</time>
      </trkpt>
      <trkpt lat="45.08418" lon="2.67782">
        <ele>1013.9</ele>
        <time>2022-10-20T14:02:40.533Z</time>
      </trkpt>
      <trkpt lat="45.08418" lon="2.67768">
        <ele>1008.97</ele>
        <time>2022-10-20T14:02:49.994Z</time>
      </trkpt>
      <trkpt lat="45.08417" lon="2.67758">
        <ele>1005.9</ele>
        <time>2022-10-20T14:03:00.000Z</time>
      </trkpt>
      <trkpt lat="45.08413" lon="2.67749">
        <ele>1004.9</ele>
        <time>2022-10-20T14:03:10.000Z</time>
      </trkpt>
      <trkpt lat="45.08411" lon="2.67742">
        <ele>1004.9</ele>
        <time>2022-10-20T14:03:19.042Z</time>
      </trkpt>
      <trkpt lat="45.08409" lon="2.6773">
        <ele>1004.9</ele>
        <time>2022-10-20T14:03:29.032Z</time>
      </trkpt>
      <trkpt lat="45.08405" lon="2.67716">
        <ele>1003.9</ele>
        <time>2022-10-20T14:03:38.991Z</time>
      </trkpt>
      <trkpt lat="45.08399" lon="2.67707">
        <ele>1000.9</ele>
        <time>2022-10-20T14:03:47.992Z</time>
      </trkpt>
      <trkpt lat="45.08392" lon="2.67703">
        <ele>999.9</ele>
        <time>2022-10-20T14:03:57.000Z</time>
      </trkpt>
      <trkpt lat="45.08384" lon="2.67692">
        <ele>998.9</ele>
        <time>2022-10-20T14:04:06.452Z</time>
      </trkpt>
      <trkpt lat="45.08382" lon="2.67688">
        <ele>997.91</ele>
        <time>2022-10-20T14:04:16.000Z</time>
      </trkpt>
      <trkpt lat="45.08381" lon="2.67687">
        <ele>997.91</ele>
        <time>2022-10-20T14:04:26.433Z</time>
      </trkpt>
      <trkpt lat="45.08375" lon="2.67679">
        <ele>999.65</ele>
        <time>2022-10-20T14:04:37.000Z</time>
      </trkpt>
      <trkpt lat="45.08375" lon="2.67678">
        <ele>1000.9</ele>
        <time>2022-10-20T14:04:47.000Z</time>
      </trkpt>
      <trkpt lat="45.08376" lon="2.67677">
        <ele>998.92</ele>
        <time>2022-10-20T14:05:01.000Z</time>
      </trkpt>
      <trkpt lat="45.08375" lon="2.67671">
        <ele>996.96</ele>
        <time>2022-10-20T14:05:11.000Z</time>
      </trkpt>
      <trkpt lat="45.08375" lon="2.67661">
        <ele>994.9</ele>
        <time>2022-10-20T14:05:21.000Z</time>
      </trkpt>
      <trkpt lat="45.08377" lon="2.67659">
        <ele>994.9</ele>
        <time>2022-10-20T14:05:31.000Z</time>
      </trkpt>
      <trkpt lat="45.08378" lon="2.67659">
        <ele>994.9</ele>
        <time>2022-10-20T14:06:05.000Z</time>
      </trkpt>
      <trkpt lat="45.08378" lon="2.6766">
        <ele>992.9</ele>
        <time>2022-10-20T14:06:18.000Z</time>
      </trkpt>
      <trkpt lat="45.08379" lon="2.67659">
        <ele>992.15</ele>
        <time>2022-10-20T14:06:28.000Z</time>
      </trkpt>
      <trkpt lat="45.0838" lon="2.6766">
        <ele>990.91</ele>
        <time>2022-10-20T14:06:38.000Z</time>
      </trkpt>
      <trkpt lat="45.08379" lon="2.67667">
        <ele>989.9</ele>
        <time>2022-10-20T14:06:47.910Z</time>
      </trkpt>
      <trkpt lat="45.08376" lon="2.67673">
        <ele>991.84</ele>
        <time>2022-10-20T14:06:57.552Z</time>
      </trkpt>
      <trkpt lat="45.08373" lon="2.67673">
        <ele>994.84</ele>
        <time>2022-10-20T14:07:06.813Z</time>
      </trkpt>
      <trkpt lat="45.08367" lon="2.67668">
        <ele>996.15</ele>
        <time>2022-10-20T14:07:16.552Z</time>
      </trkpt>
      <trkpt lat="45.08363" lon="2.67663">
        <ele>997.64</ele>
        <time>2022-10-20T14:07:27.000Z</time>
      </trkpt>
      <trkpt lat="45.0836" lon="2.67653">
        <ele>996.9</ele>
        <time>2022-10-20T14:07:36.592Z</time>
      </trkpt>
      <trkpt lat="45.08354" lon="2.67643">
        <ele>995.9</ele>
        <time>2022-10-20T14:07:46.000Z</time>
      </trkpt>
      <trkpt lat="45.08346" lon="2.67634">
        <ele>995.89</ele>
        <time>2022-10-20T14:07:56.000Z</time>
      </trkpt>
      <trkpt lat="45.08341" lon="2.67628">
        <ele>995.9</ele>
        <time>2022-10-20T14:08:06.000Z</time>
      </trkpt>
      <trkpt lat="45.08336" lon="2.67625">
        <ele>994.9</ele>
        <time>2022-10-20T14:08:16.000Z</time>
      </trkpt>
      <trkpt lat="45.08335" lon="2.67621">
        <ele>994.9</ele>
        <time>2022-10-20T14:08:25.372Z</time>
      </trkpt>
      <trkpt lat="45.0833" lon="2.6762">
        <ele>993.9</ele>
        <time>2022-10-20T14:08:35.000Z</time>
      </trkpt>
      <trkpt lat="45.08328" lon="2.6762">
        <ele>992.9</ele>
        <time>2022-10-20T14:08:45.000Z</time>
      </trkpt>
      <trkpt lat="45.08327" lon="2.6762">
        <ele>992.9</ele>
        <time>2022-10-20T14:08:55.000Z</time>
      </trkpt>
      <trkpt lat="45.08322" lon="2.67617">
        <ele>991.91</ele>
        <time>2022-10-20T14:09:05.002Z</time>
      </trkpt>
      <trkpt lat="45.08315" lon="2.67611">
        <ele>992.9</ele>
        <time>2022-10-20T14:09:15.000Z</time>
      </trkpt>
      <trkpt lat="45.0831" lon="2.6761">
        <ele>993.9</ele>
        <time>2022-10-20T14:09:25.000Z</time>
      </trkpt>
      <trkpt lat="45.08301" lon="2.67603">
        <ele>991.92</ele>
        <time>2022-10-20T14:09:35.012Z</time>
      </trkpt>
      <trkpt lat="45.08291" lon="2.67595">
        <ele>991.9</ele>
        <time>2022-10-20T14:09:45.000Z</time>
      </trkpt>
      <trkpt lat="45.08281" lon="2.67588">
        <ele>992.9</ele>
        <time>2022-10-20T14:09:54.121Z</time>
      </trkpt>
      <trkpt lat="45.08272" lon="2.67587">
        <ele>992.84</ele>
        <time>2022-10-20T14:10:04.000Z</time>
      </trkpt>
      <trkpt lat="45.08267" lon="2.67586">
        <ele>992.09</ele>
        <time>2022-10-20T14:10:13.512Z</time>
      </trkpt>
      <trkpt lat="45.08265" lon="2.67583">
        <ele>992.9</ele>
        <time>2022-10-20T14:10:22.552Z</time>
      </trkpt>
      <trkpt lat="45.08256" lon="2.6757">
        <ele>991.97</ele>
        <time>2022-10-20T14:10:32.112Z</time>
      </trkpt>
      <trkpt lat="45.08248" lon="2.67561">
        <ele>988.91</ele>
        <time>2022-10-20T14:10:41.632Z</time>
      </trkpt>
      <trkpt lat="45.08241" lon="2.67553">
        <ele>990.9</ele>
        <time>2022-10-20T14:10:50.851Z</time>
      </trkpt>
      <trkpt lat="45.08235" lon="2.67548">
        <ele>990.92</ele>
        <time>2022-10-20T14:11:00.301Z</time>
      </trkpt>
      <trkpt lat="45.08227" lon="2.6754">
        <ele>989.9</ele>
        <time>2022-10-20T14:11:09.612Z</time>
      </trkpt>
      <trkpt lat="45.08221" lon="2.6753">
        <ele>989.9</ele>
        <time>2022-10-20T14:11:19.000Z</time>
      </trkpt>
      <trkpt lat="45.0821" lon="2.6752">
        <ele>988.9</ele>
        <time>2022-10-20T14:11:28.012Z</time>
      </trkpt>
      <trkpt lat="45.08203" lon="2.67517">
        <ele>990.15</ele>
        <time>2022-10-20T14:11:37.980Z</time>
      </trkpt>
      <trkpt lat="45.08196" lon="2.6751">
        <ele>990.91</ele>
        <time>2022-10-20T14:11:47.130Z</time>
      </trkpt>
      <trkpt lat="45.08187" lon="2.675">
        <ele>989.91</ele>
        <time>2022-10-20T14:11:56.591Z</time>
      </trkpt>
      <trkpt lat="45.08182" lon="2.67491">
        <ele>989.4</ele>
        <time>2022-10-20T14:12:07.000Z</time>
      </trkpt>
      <trkpt lat="45.08178" lon="2.67489">
        <ele>989.66</ele>
        <time>2022-10-20T14:12:18.000Z</time>
      </trkpt>
      <trkpt lat="45.08172" lon="2.67486">
        <ele>991.84</ele>
        <time>2022-10-20T14:12:28.000Z</time>
      </trkpt>
      <trkpt lat="45.08161" lon="2.67481">
        <ele>992.89</ele>
        <time>2022-10-20T14:12:38.000Z</time>
      </trkpt>
      <trkpt lat="45.08151" lon="2.67474">
        <ele>991.92</ele>
        <time>2022-10-20T14:12:47.471Z</time>
      </trkpt>
      <trkpt lat="45.08145" lon="2.67465">
        <ele>991.66</ele>
        <time>2022-10-20T14:12:56.532Z</time>
      </trkpt>
      <trkpt lat="45.08136" lon="2.67461">
        <ele>993.91</ele>
        <time>2022-10-20T14:13:07.000Z</time>
      </trkpt>
      <trkpt lat="45.08134" lon="2.67459">
        <ele>994.66</ele>
        <time>2022-10-20T14:13:17.000Z</time>
      </trkpt>
      <trkpt lat="45.08129" lon="2.67456">
        <ele>995.66</ele>
        <time>2022-10-20T14:13:26.292Z</time>
      </trkpt>
      <trkpt lat="45.08122" lon="2.67448">
        <ele>994.97</ele>
        <time>2022-10-20T14:13:35.702Z</time>
      </trkpt>
      <trkpt lat="45.08116" lon="2.67439">
        <ele>994.91</ele>
        <time>2022-10-20T14:13:45.000Z</time>
      </trkpt>
      <trkpt lat="45.08103" lon="2.67432">
        <ele>993.9</ele>
        <time>2022-10-20T14:13:54.105Z</time>
      </trkpt>
      <trkpt lat="45.08093" lon="2.67427">
        <ele>994.91</ele>
        <time>2022-10-20T14:14:04.000Z</time>
      </trkpt>
      <trkpt lat="45.08081" lon="2.6742">
        <ele>994.16</ele>
        <time>2022-10-20T14:14:13.950Z</time>
      </trkpt>
      <trkpt lat="45.08072" lon="2.67412">
        <ele>993.92</ele>
        <time>2022-10-20T14:14:23.000Z</time>
      </trkpt>
      <trkpt lat="45.08061" lon="2.67402">
        <ele>993.91</ele>
        <time>2022-10-20T14:14:32.601Z</time>
      </trkpt>
      <trkpt lat="45.08055" lon="2.67393">
        <ele>992.91</ele>
        <time>2022-10-20T14:14:42.000Z</time>
      </trkpt>
      <trkpt lat="45.08056" lon="2.67394">
        <ele>992.91</ele>
        <time>2022-10-20T14:14:53.000Z</time>
      </trkpt>
      <trkpt lat="45.08055" lon="2.67395">
        <ele>993.91</ele>
        <time>2022-10-20T14:15:03.000Z</time>
      </trkpt>
      <trkpt lat="45.08054" lon="2.67394">
        <ele>993.91</ele>
        <time>2022-10-20T14:15:13.000Z</time>
      </trkpt>
      <trkpt lat="45.08053" lon="2.67392">
        <ele>994.66</ele>
        <time>2022-10-20T14:15:45.000Z</time>
      </trkpt>
      <trkpt lat="45.08045" lon="2.6738">
        <ele>994.16</ele>
        <time>2022-10-20T14:15:56.000Z</time>
      </trkpt>
      <trkpt lat="45.08039" lon="2.6737">
        <ele>993.16</ele>
        <time>2022-10-20T14:16:05.142Z</time>
      </trkpt>
      <trkpt lat="45.08031" lon="2.67364">
        <ele>993.85</ele>
        <time>2022-10-20T14:16:15.000Z</time>
      </trkpt>
      <trkpt lat="45.08026" lon="2.67356">
        <ele>991.91</ele>
        <time>2022-10-20T14:16:24.151Z</time>
      </trkpt>
      <trkpt lat="45.08017" lon="2.67347">
        <ele>990.92</ele>
        <time>2022-10-20T14:16:34.000Z</time>
      </trkpt>
      <trkpt lat="45.08007" lon="2.67341">
        <ele>989.91</ele>
        <time>2022-10-20T14:16:44.000Z</time>
      </trkpt>
      <trkpt lat="45.07996" lon="2.67337">
        <ele>989.97</ele>
        <time>2022-10-20T14:16:53.093Z</time>
      </trkpt>
      <trkpt lat="45.07994" lon="2.67336">
        <ele>991.91</ele>
        <time>2022-10-20T14:17:03.000Z</time>
      </trkpt>
      <trkpt lat="45.07988" lon="2.67331">
        <ele>989.91</ele>
        <time>2022-10-20T14:17:13.000Z</time>
      </trkpt>
      <trkpt lat="45.07981" lon="2.67319">
        <ele>987.66</ele>
        <time>2022-10-20T14:17:23.000Z</time>
      </trkpt>
      <trkpt lat="45.07974" lon="2.67306">
        <ele>985.91</ele>
        <time>2022-10-20T14:17:32.113Z</time>
      </trkpt>
      <trkpt lat="45.07966" lon="2.67296">
        <ele>984.91</ele>
        <time>2022-10-20T14:17:41.872Z</time>
      </trkpt>
      <trkpt lat="45.07961" lon="2.67286">
        <ele>985.91</ele>
        <time>2022-10-20T14:17:51.086Z</time>
      </trkpt>
      <trkpt lat="45.07957" lon="2.67273">
        <ele>984.9</ele>
        <time>2022-10-20T14:18:00.941Z</time>
      </trkpt>
      <trkpt lat="45.0795" lon="2.67261">
        <ele>982.91</ele>
        <time>2022-10-20T14:18:10.132Z</time>
      </trkpt>
      <trkpt lat="45.07947" lon="2.67246">
        <ele>982.16</ele>
        <time>2022-10-20T14:18:19.552Z</time>
      </trkpt>
      <trkpt lat="45.07941" lon="2.67236">
        <ele>979.97</ele>
        <time>2022-10-20T14:18:29.000Z</time>
      </trkpt>
      <trkpt lat="45.07934" lon="2.67222">
        <ele>978.97</ele>
        <time>2022-10-20T14:18:38.151Z</time>
      </trkpt>
      <trkpt lat="45.0793" lon="2.67206">
        <ele>980.91</ele>
        <time>2022-10-20T14:18:48.132Z</time>
      </trkpt>
      <trkpt lat="45.07926" lon="2.67196">
        <ele>979.17</ele>
        <time>2022-10-20T14:18:58.000Z</time>
      </trkpt>
      <trkpt lat="45.07921" lon="2.67182">
        <ele>977.67</ele>
        <time>2022-10-20T14:19:08.000Z</time>
      </trkpt>
      <trkpt lat="45.07918" lon="2.67176">
        <ele>978.66</ele>
        <time>2022-10-20T14:19:18.000Z</time>
      </trkpt>
      <trkpt lat="45.07912" lon="2.6716">
        <ele>977.73</ele>
        <time>2022-10-20T14:19:27.942Z</time>
      </trkpt>
      <trkpt lat="45.07908" lon="2.67149">
        <ele>977.9</ele>
        <time>2022-10-20T14:19:37.030Z</time>
      </trkpt>
      <trkpt lat="45.07906" lon="2.67135">
        <ele>976.91</ele>
        <time>2022-10-20T14:19:46.501Z</time>
      </trkpt>
      <trkpt lat="45.07903" lon="2.67122">
        <ele>977.16</ele>
        <time>2022-10-20T14:19:55.586Z</time>
      </trkpt>
      <trkpt lat="45.07897" lon="2.6711">
        <ele>975.91</ele>
        <time>2022-10-20T14:20:04.952Z</time>
      </trkpt>
      <trkpt lat="45.07892" lon="2.67096">
        <ele>975.91</ele>
        <time>2022-10-20T14:20:14.150Z</time>
      </trkpt>
      <trkpt lat="45.07887" lon="2.67081">
        <ele>975.16</ele>
        <time>2022-10-20T14:20:23.672Z</time>
      </trkpt>
      <trkpt lat="45.07881" lon="2.6707">
        <ele>974.91</ele>
        <time>2022-10-20T14:20:32.992Z</time>
      </trkpt>
      <trkpt lat="45.07879" lon="2.6706">
        <ele>974.91</ele>
        <time>2022-10-20T14:20:42.000Z</time>
      </trkpt>
      <trkpt lat="45.07882" lon="2.67057">
        <ele>975.91</ele>
        <time>2022-10-20T14:20:52.000Z</time>
      </trkpt>
      <trkpt lat="45.0788" lon="2.67041">
        <ele>976.91</ele>
        <time>2022-10-20T14:21:01.111Z</time>
      </trkpt>
      <trkpt lat="45.07875" lon="2.67027">
        <ele>978.92</ele>
        <time>2022-10-20T14:21:10.151Z</time>
      </trkpt>
      <trkpt lat="45.07869" lon="2.67014">
        <ele>977.92</ele>
        <time>2022-10-20T14:21:19.651Z</time>
      </trkpt>
      <trkpt lat="45.07862" lon="2.67001">
        <ele>975.98</ele>
        <time>2022-10-20T14:21:28.952Z</time>
      </trkpt>
      <trkpt lat="45.07858" lon="2.6699">
        <ele>973.93</ele>
        <time>2022-10-20T14:21:38.000Z</time>
      </trkpt>
      <trkpt lat="45.07855" lon="2.66974">
        <ele>974.92</ele>
        <time>2022-10-20T14:21:47.551Z</time>
      </trkpt>
      <trkpt lat="45.07856" lon="2.66974">
        <ele>976.92</ele>
        <time>2022-10-20T14:22:01.000Z</time>
      </trkpt>
      <trkpt lat="45.07848" lon="2.66959">
        <ele>981.11</ele>
        <time>2022-10-20T14:22:10.474Z</time>
      </trkpt>
      <trkpt lat="45.07843" lon="2.66943">
        <ele>981.12</ele>
        <time>2022-10-20T14:22:19.930Z</time>
      </trkpt>
      <trkpt lat="45.07834" lon="2.66935">
        <ele>981.12</ele>
        <time>2022-10-20T14:22:29.774Z</time>
      </trkpt>
      <trkpt lat="45.07826" lon="2.66933">
        <ele>981.12</ele>
        <time>2022-10-20T14:22:39.000Z</time>
      </trkpt>
      <trkpt lat="45.07815" lon="2.66932">
        <ele>981.12</ele>
        <time>2022-10-20T14:22:49.000Z</time>
      </trkpt>
      <trkpt lat="45.07803" lon="2.66933">
        <ele>981.12</ele>
        <time>2022-10-20T14:22:59.000Z</time>
      </trkpt>
      <trkpt lat="45.07796" lon="2.6693">
        <ele>981.12</ele>
        <time>2022-10-20T14:23:09.000Z</time>
      </trkpt>
      <trkpt lat="45.07794" lon="2.66931">
        <ele>981.12</ele>
        <time>2022-10-20T14:23:19.000Z</time>
      </trkpt>
      <trkpt lat="45.07791" lon="2.66936">
        <ele>981.12</ele>
        <time>2022-10-20T14:23:28.950Z</time>
      </trkpt>
      <trkpt lat="45.0778" lon="2.66931">
        <ele>981.12</ele>
        <time>2022-10-20T14:23:38.000Z</time>
      </trkpt>
      <trkpt lat="45.0777" lon="2.66931">
        <ele>982.72</ele>
        <time>2022-10-20T14:23:47.393Z</time>
      </trkpt>
      <trkpt lat="45.07775" lon="2.66943">
        <ele>982.32</ele>
        <time>2022-10-20T14:23:57.000Z</time>
      </trkpt>
      <trkpt lat="45.0777" lon="2.66956">
        <ele>982.32</ele>
        <time>2022-10-20T14:24:06.098Z</time>
      </trkpt>
      <trkpt lat="45.07766" lon="2.6697">
        <ele>982.72</ele>
        <time>2022-10-20T14:24:16.000Z</time>
      </trkpt>
      <trkpt lat="45.07765" lon="2.66971">
        <ele>982.72</ele>
        <time>2022-10-20T14:24:26.000Z</time>
      </trkpt>
      <trkpt lat="45.07768" lon="2.66971">
        <ele>982.72</ele>
        <time>2022-10-20T14:24:36.000Z</time>
      </trkpt>
      <trkpt lat="45.0777" lon="2.66956">
        <ele>982.72</ele>
        <time>2022-10-20T14:24:45.872Z</time>
      </trkpt>
      <trkpt lat="45.0777" lon="2.66943">
        <ele>982.72</ele>
        <time>2022-10-20T14:24:55.031Z</time>
      </trkpt>
      <trkpt lat="45.07774" lon="2.6693">
        <ele>982.32</ele>
        <time>2022-10-20T14:25:04.116Z</time>
      </trkpt>
      <trkpt lat="45.0778" lon="2.66925">
        <ele>982.32</ele>
        <time>2022-10-20T14:25:13.512Z</time>
      </trkpt>
      <trkpt lat="45.07784" lon="2.66933">
        <ele>982.32</ele>
        <time>2022-10-20T14:25:22.942Z</time>
      </trkpt>
      <trkpt lat="45.07793" lon="2.66934">
        <ele>982.32</ele>
        <time>2022-10-20T14:25:32.000Z</time>
      </trkpt>
      <trkpt lat="45.07792" lon="2.66934">
        <ele>982.32</ele>
        <time>2022-10-20T14:25:46.000Z</time>
      </trkpt>
      <trkpt lat="45.07793" lon="2.66934">
        <ele>982.32</ele>
        <time>2022-10-20T14:25:57.000Z</time>
      </trkpt>
      <trkpt lat="45.07794" lon="2.6693">
        <ele>982.32</ele>
        <time>2022-10-20T14:26:07.000Z</time>
      </trkpt>
      <trkpt lat="45.07794" lon="2.66927">
        <ele>982.32</ele>
        <time>2022-10-20T14:26:17.000Z</time>
      </trkpt>
      <trkpt lat="45.07794" lon="2.66925">
        <ele>982.32</ele>
        <time>2022-10-20T14:26:27.000Z</time>
      </trkpt>
      <trkpt lat="45.07794" lon="2.66923">
        <ele>982.32</ele>
        <time>2022-10-20T14:26:37.000Z</time>
      </trkpt>
      <trkpt lat="45.07795" lon="2.66924">
        <ele>969.57</ele>
        <time>2022-10-20T14:26:47.000Z</time>
      </trkpt>
      <trkpt lat="45.07792" lon="2.6693">
        <ele>969.92</ele>
        <time>2022-10-20T14:26:57.000Z</time>
      </trkpt>
      <trkpt lat="45.07794" lon="2.6693">
        <ele>969.92</ele>
        <time>2022-10-20T14:27:07.000Z</time>
      </trkpt>
      <trkpt lat="45.07794" lon="2.66927">
        <ele>969.93</ele>
        <time>2022-10-20T14:27:17.000Z</time>
      </trkpt>
      <trkpt lat="45.07795" lon="2.66926">
        <ele>967.92</ele>
        <time>2022-10-20T14:27:27.000Z</time>
      </trkpt>
      <trkpt lat="45.07796" lon="2.66927">
        <ele>969.85</ele>
        <time>2022-10-20T14:27:45.000Z</time>
      </trkpt>
      <trkpt lat="45.07798" lon="2.66927">
        <ele>968.98</ele>
        <time>2022-10-20T14:27:55.000Z</time>
      </trkpt>
      <trkpt lat="45.07798" lon="2.66928">
        <ele>969.67</ele>
        <time>2022-10-20T14:28:40.000Z</time>
      </trkpt>
      <trkpt lat="45.07799" lon="2.66929">
        <ele>969.17</ele>
        <time>2022-10-20T14:28:52.000Z</time>
      </trkpt>
      <trkpt lat="45.07797" lon="2.6693">
        <ele>969.92</ele>
        <time>2022-10-20T14:29:02.000Z</time>
      </trkpt>
      <trkpt lat="45.07796" lon="2.66929">
        <ele>966.18</ele>
        <time>2022-10-20T14:29:12.000Z</time>
      </trkpt>
      <trkpt lat="45.07792" lon="2.66925">
        <ele>965.12</ele>
        <time>2022-10-20T14:29:18.000Z</time>
      </trkpt>
    </trkseg>
  </trk>
</gpx>